[[{"header":{"parameterUnit":"m.s-1","parameterCategory":1,"la1":31.0,"la2":29.5877,"lo1":-88.7671,"lo2":-86.6584,"dy":0.0162,"dx":0.0185,"nx":115,"ny":88,"refTime":"2023-11-06T06:00:00:Z","depth":0,"parameterNumber":2,"parameterNumberName":"U-component_of_WINDS"},"data":[0.0,0.0,0.0,0.0,0.0,0.0,0.0,0.0,0.0,0.0,0.0,0.0,0.0,0.0,0.0,0.0,0.0,0.0,0.0,0.0,0.0,0.0,0.0,0.0,0.0,0.0,0.0,0.0,0.0,0.0,0.0,0.0,0.0,0.0,0.0,0.0,0.0,0.0,0.0,0.0,0.0,0.0,0.0,0.0,0.0,0.0,0.0,0.0,0.0,0.0,0.0,0.0,0.0,0.0,0.0,0.0,0.0,0.0,0.0,0.0,0.0,0.0,0.0,0.0,0.0,0.0,0.0,0.0,0.0,0.0,0.0,0.0,0.0,0.0,0.0,0.0,0.0,0.0,0.0,0.0,0.0,0.0,0.0,0.0,0.0,0.0,0.0,0.0,0.0,0.0,0.0,0.0,0.0,0.0,0.0,0.0,0.0,0.0,0.0,0.0,0.0,0.0,0.0,0.0,0.0,0.0,0.0,0.0,0.0,0.0,0.0,0.0,0.0,0.0,0.0,0.0,0.0,0.0,0.0,0.0,0.0,0.0,0.0,0.0,0.0,0.0,0.0,0.0,0.0,0.0,0.0,0.0,0.0,0.0,0.0,0.0,0.0,0.0,0.0,0.0,0.0,0.0,0.0,0.0,0.0,0.0,0.0,0.0,0.0,0.0,0.0,0.0,0.0,0.0,0.0,0.0,0.0,0.0,0.0,0.0,0.0,0.0,0.0,0.0,0.0,0.0,0.0,0.0,0.0,0.0,0.0,0.0,0.0,0.0,0.0,0.0,0.0,0.0,0.0,0.0,0.0,0.0,0.0,0.0,0.0,0.0,0.0,0.0,0.0,0.0,0.0,0.0,0.0,0.0,0.0,0.0,0.0,0.0,0.0,0.0,0.0,0.0,0.0,0.0,0.0,0.0,0.0,0.0,0.0,0.0,0.0,0.0,0.0,0.0,0.0,0.0,0.0,0.0,0.0,0.0,0.0,0.0,0.0,0.0,0.0,0.0,0.0,0.0,0.0,0.0,0.0,0.0,0.0,0.0,0.0,0.0,0.0,0.0,0.0,0.0,0.0,0.0,0.0,0.0,0.0,0.0,0.0,0.0,0.0,0.0,0.0,0.0,0.0,0.0,0.0,0.0,0.0,0.0,0.0,0.0,0.0,0.0,0.0,0.0,0.0,0.0,0.0,0.0,0.0,0.0,0.0,0.0,0.0,0.0,0.0,0.0,0.0,0.0,0.0,0.0,0.0,0.0,0.0,0.0,0.0,0.0,0.0,0.0,0.0,0.0,0.0,0.0,0.0,0.0,0.0,0.0,0.0,0.0,0.0,0.0,0.0,0.0,0.0,0.0,0.0,0.0,0.0,0.0,0.0,0.0,0.0,0.0,0.0,0.0,0.0,0.0,0.0,0.0,0.0,0.0,0.0,0.0,0.0,0.0,0.0,0.0,0.0,0.0,0.0,0.0,0.0,0.0,0.0,0.0,0.0,0.0,0.0,0.0,0.0,0.0,0.0,0.0,0.0,0.0,0.0,0.0,0.0,0.0,0.0,0.0,0.0,0.0,0.0,0.0,0.0,0.0,0.0,0.0,0.0,0.0,0.0,0.0,0.0,0.0,0.0,0.0,0.0,0.0,0.0,0.0,0.0,0.0,0.0,0.0,0.0,0.0,0.0,0.0,0.0,0.0,0.0,0.0,0.0,0.0,0.0,0.0,0.0,0.0,0.0,0.0,0.0,0.0,0.0,0.0,0.0,0.0,0.0,0.0,0.0,0.0,0.0,0.0,0.0,0.0,0.0,0.0,0.0,0.0,0.0,0.0,0.0,0.0,0.0,0.0,0.0,0.0,0.0,0.0,0.0,0.0,0.0,0.0,0.0,0.0,0.0,0.0,0.0,0.0,0.0,0.0,0.0,0.0,0.0,0.0,0.0,0.0,0.0,0.0,0.0,0.0,0.0,0.0,0.0,0.0,0.0,0.0,0.0,0.0,0.0,0.0,0.0,0.0,0.0,0.0,0.0,0.0,0.0,0.0,0.0,0.0,0.0,0.0,0.0,0.0,0.0,0.0,0.0,0.0,0.0,0.0,0.0,0.0,0.0,0.0,0.0,0.0,0.0,0.0,0.0,0.0,0.0,0.0,0.0,0.0,0.0,0.0,0.0,0.0,0.0,0.0,0.0,0.0,0.0,0.0,0.0,0.0,0.0,0.0,0.0,0.0,0.0,0.0,0.0,0.0,0.0,0.0,0.0,0.0,0.0,0.0,0.0,0.0,0.0,0.0,0.0,0.0,0.0,0.0,0.0,0.0,0.0,0.0,0.0,0.0,0.0,0.0,0.0,0.0,0.0,0.0,0.0,0.0,0.0,0.0,0.0,0.0,0.0,0.0,0.0,0.0,0.0,0.0,0.0,0.0,0.0,0.0,0.0,0.0,0.0,0.0,0.0,0.0,0.0,0.0,0.0,0.0,0.0,0.0,0.0,0.0,0.0,0.0,0.0,0.0,0.0,0.0,0.0,0.0,0.0,0.0,0.0,0.0,0.0,0.0,0.0,0.0,0.0,0.0,0.0,0.0,0.0,0.0,0.0,0.0,0.0,0.0,0.0,0.0,0.0,0.0,0.0,0.0,0.0,0.0,0.0,0.0,0.0,0.0,0.0,0.0,0.0,0.0,0.0,0.0,0.0,0.0,0.0,0.0,0.0,0.0,0.0,0.0,0.0,0.0,0.0,0.0,0.0,0.0,0.0,0.0,0.0,0.0,0.0,0.0,0.0,0.0,0.0,0.0,0.0,0.0,0.0,0.0,0.0,0.0,0.0,0.0,0.0,0.0,0.0,0.0,0.0,0.0,0.0,0.0,0.0,0.0,0.0,0.0,0.0,0.0,0.0,0.0,0.0,0.0,0.0,0.0,0.0,0.0,0.0,0.0,0.0,0.0,0.0,0.0,0.0,0.0,0.0,0.0,0.0,0.0,0.0,0.0,0.0,0.0,0.0,0.0,0.0,0.0,0.0,0.0,0.0,0.0,0.0,0.0,0.0,0.0,0.0,0.0,0.0,0.0,0.0,0.0,0.0,0.0,0.0,0.0,0.0,0.0,0.0,0.0,0.0,0.0,0.0,0.0,0.0,0.0,0.0,0.0,0.0,0.0,0.0,0.0,0.0,0.0,0.0,0.0,0.0,0.0,0.0,0.0,0.0,0.0,0.0,0.0,0.0,0.0,0.0,0.0,0.0,0.0,0.0,0.0,0.0,0.0,0.0,0.0,0.0,0.0,0.0,0.0,0.0,0.0,0.0,0.0,0.0,0.0,0.0,0.0,0.0,0.0,0.0,0.0,0.0,0.0,0.0,0.0,0.0,0.0,0.0,0.0,0.0,0.0,0.0,0.0,0.0,0.0,0.0,0.0,0.0,0.0,0.0,0.0,0.0,0.0,0.0,0.0,0.0,0.0,0.0,0.0,0.0,0.0,0.0,0.0,0.0,0.0,0.0,0.0,0.0,0.0,0.0,0.0,0.0,0.0,0.0,0.0,0.0,0.0,0.0,0.0,0.0,0.0,0.0,0.0,0.0,0.0,0.0,0.0,0.0,0.0,0.0,0.0,0.0,0.0,0.0,0.0,0.0,0.0,0.0,0.0,0.0,0.0,0.0,0.0,0.0,0.0,0.0,0.0,0.0,0.0,0.0,0.0,0.0,0.0,0.0,0.0,0.0,0.0,0.0,0.0,0.0,0.0,0.0,0.0,0.0,0.0,0.0,0.0,0.0,0.0,0.0,0.0,0.0,0.0,0.0,0.0,0.0,0.0,0.0,0.0,0.0,0.0,0.0,0.0,0.0,0.0,0.0,0.0,0.0,0.0,0.0,0.0,0.0,0.0,0.0,0.0,0.0,0.0,0.0,0.0,0.0,0.0,0.0,0.0,0.0,0.0,0.0,0.0,0.0,0.0,0.0,0.0,0.0,0.0,0.0,0.0,0.0,0.0,0.0,0.0,0.0,0.0,0.0,0.0,0.0,0.0,0.0,0.0,0.0,0.0,0.0,0.0,0.0,0.0,0.0,0.0,0.0,0.0,0.0,0.0,0.0,0.0,0.0,0.0,0.0,0.0,0.0,0.0,0.0,0.0,0.0,0.0,0.0,0.0,0.0,0.0,0.0,0.0,0.0,0.0,0.0,0.0,0.0,0.0,0.0,0.0,0.0,0.0,0.0,0.0,0.0,0.0,0.0,0.0,0.0,0.0,0.0,0.0,0.0,0.0,0.0,0.0,0.0,0.0,0.0,0.0,-2.0201,0.0,0.0,0.0,0.0,0.0,0.0,0.0,0.0,0.0,0.0,0.0,0.0,0.0,0.0,0.0,0.0,0.0,0.0,0.0,0.0,0.0,0.0,0.0,0.0,0.0,0.0,0.0,0.0,0.0,0.0,0.0,0.0,0.0,0.0,0.0,0.0,0.0,0.0,0.0,0.0,0.0,0.0,0.0,0.0,0.0,0.0,0.0,0.0,0.0,0.0,0.0,0.0,0.0,0.0,0.0,0.0,0.0,0.0,0.0,0.0,0.0,0.0,0.0,0.0,0.0,0.0,0.0,0.0,0.0,0.0,0.0,0.0,0.0,0.0,0.0,0.0,0.0,0.0,0.0,0.0,0.0,0.0,0.0,0.0,0.0,0.0,0.0,0.0,0.0,0.0,0.0,0.0,0.0,0.0,0.0,0.0,0.0,0.0,0.0,0.0,0.0,0.0,0.0,0.0,0.0,0.0,0.0,0.0,0.0,0.0,-2.0102,-2.021,-2.021,-2.0205,-2.0212,0.0,0.0,0.0,0.0,0.0,0.0,0.0,0.0,0.0,0.0,0.0,0.0,0.0,0.0,0.0,0.0,0.0,0.0,0.0,0.0,0.0,0.0,0.0,0.0,0.0,0.0,0.0,0.0,0.0,0.0,0.0,0.0,0.0,0.0,0.0,0.0,0.0,0.0,0.0,0.0,0.0,0.0,0.0,0.0,0.0,0.0,0.0,0.0,0.0,0.0,0.0,0.0,0.0,0.0,0.0,0.0,0.0,0.0,0.0,0.0,0.0,0.0,0.0,0.0,0.0,0.0,0.0,0.0,0.0,0.0,0.0,0.0,0.0,0.0,0.0,0.0,0.0,0.0,0.0,0.0,0.0,0.0,0.0,0.0,0.0,0.0,0.0,0.0,0.0,0.0,0.0,0.0,0.0,0.0,0.0,0.0,0.0,0.0,0.0,0.0,0.0,0.0,0.0,0.0,0.0,0.0,0.0,0.0,0.0,0.0,0.0,0.0,-2.0474,-2.048,-2.0476,0.0,0.0,0.0,0.0,0.0,0.0,0.0,0.0,0.0,0.0,0.0,0.0,0.0,0.0,0.0,0.0,0.0,0.0,0.0,0.0,0.0,0.0,0.0,0.0,0.0,0.0,0.0,0.0,0.0,0.0,0.0,0.0,0.0,0.0,0.0,0.0,0.0,0.0,0.0,0.0,0.0,0.0,0.0,0.0,0.0,0.0,0.0,0.0,0.0,0.0,0.0,0.0,0.0,0.0,0.0,0.0,0.0,0.0,0.0,0.0,0.0,0.0,0.0,0.0,0.0,0.0,0.0,0.0,0.0,0.0,0.0,0.0,0.0,0.0,0.0,0.0,0.0,0.0,0.0,0.0,0.0,0.0,0.0,0.0,0.0,0.0,0.0,0.0,0.0,0.0,0.0,0.0,0.0,0.0,0.0,0.0,0.0,0.0,0.0,0.0,0.0,0.0,0.0,0.0,0.0,0.0,0.0,0.0,0.0,0.0,-2.0413,-2.1278,-2.1358,0.0,-2.1297,0.0,0.0,0.0,0.0,0.0,0.0,0.0,0.0,0.0,0.0,0.0,0.0,0.0,0.0,0.0,0.0,0.0,0.0,0.0,0.0,0.0,0.0,0.0,0.0,0.0,0.0,0.0,0.0,0.0,0.0,0.0,0.0,0.0,0.0,0.0,0.0,0.0,0.0,0.0,0.0,0.0,0.0,0.0,0.0,0.0,0.0,0.0,0.0,0.0,0.0,0.0,0.0,0.0,0.0,0.0,0.0,0.0,0.0,0.0,0.0,0.0,0.0,0.0,0.0,0.0,0.0,0.0,0.0,0.0,0.0,0.0,0.0,0.0,0.0,0.0,0.0,0.0,0.0,0.0,0.0,0.0,0.0,0.0,0.0,0.0,0.0,0.0,0.0,0.0,0.0,0.0,0.0,0.0,0.0,0.0,0.0,0.0,0.0,0.0,0.0,0.0,0.0,0.0,0.0,0.0,0.0,0.0,0.0,0.0,0.0,-2.0949,-2.1445,-2.1482,-2.1487,0.0,0.0,0.0,0.0,0.0,0.0,0.0,0.0,0.0,0.0,0.0,0.0,0.0,0.0,0.0,0.0,0.0,0.0,0.0,0.0,0.0,0.0,0.0,0.0,0.0,0.0,0.0,0.0,0.0,0.0,0.0,0.0,0.0,0.0,0.0,0.0,0.0,0.0,0.0,0.0,0.0,0.0,0.0,0.0,0.0,0.0,0.0,0.0,0.0,0.0,0.0,0.0,0.0,0.0,0.0,0.0,0.0,0.0,0.0,0.0,0.0,0.0,0.0,0.0,0.0,0.0,0.0,0.0,0.0,0.0,0.0,0.0,0.0,0.0,0.0,0.0,0.0,0.0,0.0,0.0,0.0,0.0,0.0,0.0,0.0,0.0,0.0,0.0,0.0,0.0,0.0,0.0,0.0,0.0,0.0,0.0,0.0,0.0,0.0,0.0,0.0,0.0,0.0,0.0,0.0,0.0,0.0,0.0,0.0,0.0,-2.0981,-2.1382,-2.1766,-2.157,-2.1464,-2.1463,0.0,0.0,0.0,0.0,0.0,0.0,0.0,0.0,0.0,0.0,0.0,0.0,0.0,0.0,0.0,0.0,0.0,0.0,0.0,0.0,0.0,0.0,0.0,0.0,0.0,0.0,0.0,0.0,0.0,0.0,0.0,0.0,0.0,0.0,0.0,0.0,0.0,0.0,0.0,0.0,0.0,0.0,0.0,0.0,0.0,0.0,0.0,0.0,0.0,0.0,0.0,0.0,0.0,0.0,0.0,0.0,0.0,0.0,0.0,0.0,0.0,0.0,0.0,0.0,0.0,0.0,0.0,0.0,0.0,0.0,0.0,0.0,0.0,0.0,0.0,0.0,0.0,0.0,0.0,0.0,0.0,0.0,0.0,0.0,0.0,0.0,0.0,0.0,0.0,0.0,0.0,0.0,0.0,0.0,0.0,0.0,0.0,0.0,0.0,0.0,0.0,0.0,0.0,0.0,0.0,0.0,0.0,0.0,-2.2223,-2.1525,-2.1566,-2.2468,-2.1748,-2.1344,0.0,0.0,0.0,0.0,0.0,0.0,0.0,0.0,0.0,0.0,0.0,0.0,0.0,0.0,0.0,0.0,0.0,0.0,0.0,0.0,0.0,0.0,0.0,0.0,0.0,0.0,0.0,0.0,0.0,0.0,0.0,0.0,0.0,0.0,0.0,0.0,0.0,0.0,0.0,0.0,0.0,0.0,0.0,0.0,0.0,0.0,0.0,0.0,0.0,0.0,0.0,0.0,0.0,0.0,0.0,0.0,0.0,0.0,0.0,0.0,0.0,0.0,0.0,0.0,0.0,0.0,0.0,0.0,0.0,0.0,0.0,0.0,0.0,0.0,0.0,0.0,0.0,0.0,0.0,0.0,0.0,0.0,0.0,0.0,0.0,0.0,0.0,0.0,0.0,0.0,0.0,0.0,0.0,0.0,0.0,0.0,0.0,0.0,0.0,0.0,0.0,0.0,0.0,0.0,0.0,0.0,0.0,0.0,0.0,-2.0734,-2.1045,-2.1654,-2.2522,-2.1788,-2.1393,0.0,0.0,0.0,0.0,0.0,0.0,0.0,0.0,0.0,0.0,0.0,0.0,0.0,0.0,0.0,0.0,0.0,0.0,0.0,0.0,0.0,0.0,0.0,0.0,0.0,0.0,0.0,0.0,0.0,0.0,0.0,0.0,0.0,0.0,0.0,0.0,0.0,0.0,0.0,0.0,0.0,0.0,0.0,0.0,0.0,0.0,0.0,0.0,0.0,0.0,0.0,0.0,0.0,0.0,0.0,0.0,0.0,0.0,0.0,0.0,0.0,0.0,0.0,0.0,0.0,0.0,0.0,0.0,0.0,0.0,0.0,0.0,0.0,0.0,0.0,0.0,0.0,0.0,0.0,0.0,0.0,0.0,0.0,0.0,0.0,0.0,0.0,0.0,0.0,0.0,0.0,0.0,0.0,0.0,0.0,0.0,0.0,0.0,0.0,0.0,0.0,0.0,0.0,0.0,0.0,0.0,0.0,0.0,0.0,-2.0201,0.0,-2.1575,-2.2089,-2.137,-2.0957,0.0,0.0,0.0,0.0,0.0,0.0,0.0,0.0,0.0,0.0,0.0,0.0,0.0,0.0,0.0,0.0,0.0,0.0,0.0,0.0,0.0,0.0,0.0,0.0,0.0,0.0,0.0,0.0,0.0,0.0,0.0,0.0,0.0,0.0,0.0,0.0,0.0,0.0,0.0,0.0,0.0,0.0,0.0,0.0,0.0,0.0,0.0,0.0,0.0,0.0,0.0,0.0,0.0,0.0,0.0,0.0,0.0,0.0,0.0,0.0,0.0,0.0,0.0,0.0,0.0,0.0,0.0,0.0,0.0,0.0,0.0,0.0,0.0,0.0,0.0,0.0,0.0,0.0,0.0,0.0,0.0,0.0,0.0,0.0,0.0,0.0,0.0,0.0,0.0,0.0,0.0,0.0,0.0,0.0,0.0,0.0,0.0,0.0,0.0,0.0,0.0,0.0,0.0,0.0,0.0,0.0,0.0,0.0,-2.0067,-2.0921,-2.1171,-2.1273,-2.1187,-2.0473,-2.0029,0.0,0.0,0.0,0.0,0.0,0.0,0.0,0.0,0.0,0.0,0.0,0.0,0.0,0.0,0.0,0.0,0.0,0.0,0.0,0.0,0.0,0.0,0.0,0.0,0.0,0.0,0.0,0.0,0.0,0.0,0.0,0.0,0.0,0.0,0.0,0.0,0.0,0.0,0.0,0.0,0.0,0.0,0.0,0.0,0.0,0.0,0.0,0.0,0.0,0.0,0.0,0.0,0.0,0.0,0.0,0.0,0.0,0.0,0.0,0.0,0.0,0.0,0.0,0.0,0.0,0.0,0.0,0.0,0.0,0.0,0.0,0.0,0.0,0.0,0.0,0.0,0.0,0.0,0.0,0.0,0.0,0.0,0.0,0.0,0.0,0.0,0.0,0.0,0.0,0.0,0.0,0.0,0.0,0.0,0.0,0.0,0.0,0.0,0.0,0.0,0.0,0.0,0.0,0.0,0.0,0.0,0.0,0.0,0.0,-2.0201,-2.0816,-2.1172,-2.1172,-2.0421,-2.0286,0.0,0.0,0.0,0.0,0.0,0.0,0.0,0.0,0.0,0.0,0.0,0.0,0.0,0.0,0.0,0.0,0.0,0.0,0.0,0.0,0.0,0.0,0.0,0.0,0.0,0.0,0.0,0.0,0.0,0.0,0.0,0.0,0.0,0.0,0.0,0.0,0.0,0.0,0.0,0.0,0.0,0.0,0.0,0.0,0.0,0.0,0.0,0.0,0.0,0.0,0.0,0.0,0.0,0.0,0.0,0.0,0.0,0.0,0.0,0.0,0.0,0.0,0.0,0.0,0.0,0.0,0.0,0.0,0.0,0.0,0.0,0.0,0.0,0.0,0.0,0.0,0.0,0.0,0.0,0.0,0.0,0.0,0.0,0.0,0.0,0.0,0.0,0.0,0.0,0.0,0.0,0.0,0.0,0.0,0.0,0.0,0.0,0.0,0.0,0.0,0.0,0.0,0.0,0.0,0.0,0.0,0.0,0.0,0.0,-2.0873,-2.135,-2.1529,-2.1275,-2.0788,-2.0586,-2.0758,0.0,0.0,0.0,0.0,0.0,0.0,0.0,0.0,0.0,0.0,0.0,0.0,0.0,0.0,0.0,0.0,0.0,0.0,0.0,0.0,0.0,0.0,0.0,0.0,0.0,0.0,0.0,0.0,0.0,0.0,0.0,0.0,0.0,0.0,0.0,0.0,0.0,0.0,0.0,0.0,0.0,0.0,0.0,0.0,0.0,0.0,0.0,0.0,0.0,0.0,0.0,0.0,0.0,0.0,0.0,0.0,0.0,0.0,0.0,0.0,0.0,0.0,0.0,0.0,0.0,0.0,0.0,0.0,0.0,0.0,0.0,0.0,0.0,0.0,0.0,0.0,0.0,0.0,0.0,0.0,0.0,0.0,0.0,0.0,0.0,0.0,0.0,0.0,0.0,0.0,0.0,0.0,0.0,0.0,0.0,0.0,0.0,0.0,0.0,0.0,0.0,0.0,0.0,0.0,0.0,0.0,0.0,0.0,-2.2652,-2.2824,-2.2526,-2.1687,-2.1544,-2.1015,0.0,0.0,0.0,0.0,0.0,0.0,0.0,0.0,0.0,0.0,0.0,0.0,0.0,0.0,0.0,0.0,0.0,0.0,0.0,0.0,0.0,0.0,0.0,0.0,0.0,0.0,0.0,0.0,0.0,0.0,0.0,0.0,0.0,0.0,0.0,0.0,0.0,0.0,0.0,0.0,0.0,0.0,0.0,0.0,0.0,0.0,0.0,0.0,0.0,0.0,0.0,0.0,0.0,0.0,0.0,0.0,0.0,0.0,0.0,0.0,0.0,0.0,0.0,0.0,0.0,0.0,0.0,0.0,0.0,0.0,0.0,0.0,0.0,0.0,0.0,0.0,0.0,0.0,0.0,0.0,0.0,0.0,0.0,0.0,0.0,0.0,0.0,0.0,0.0,0.0,0.0,0.0,0.0,0.0,0.0,0.0,0.0,0.0,0.0,0.0,0.0,0.0,0.0,0.0,0.0,0.0,0.0,0.0,0.0,-2.4586,-2.5876,-2.5857,-2.432,-2.2975,-2.2163,0.0,0.0,0.0,0.0,0.0,0.0,0.0,0.0,0.0,0.0,0.0,0.0,0.0,0.0,0.0,0.0,0.0,0.0,0.0,0.0,0.0,0.0,0.0,0.0,0.0,0.0,0.0,0.0,0.0,0.0,0.0,0.0,0.0,0.0,0.0,0.0,0.0,0.0,0.0,0.0,0.0,0.0,0.0,0.0,0.0,0.0,0.0,0.0,0.0,0.0,0.0,0.0,0.0,0.0,0.0,0.0,0.0,0.0,0.0,0.0,0.0,0.0,0.0,0.0,0.0,0.0,0.0,0.0,0.0,0.0,0.0,0.0,0.0,0.0,0.0,0.0,0.0,0.0,0.0,0.0,0.0,0.0,0.0,0.0,0.0,0.0,0.0,0.0,0.0,0.0,0.0,0.0,0.0,0.0,0.0,0.0,0.0,0.0,0.0,0.0,0.0,0.0,0.0,0.0,0.0,0.0,0.0,0.0,-2.5065,-2.6343,-2.8193,-2.8693,-2.7643,-2.5441,-2.3567,0.0,0.0,0.0,0.0,0.0,0.0,0.0,0.0,0.0,0.0,0.0,0.0,0.0,0.0,0.0,0.0,0.0,0.0,0.0,0.0,0.0,0.0,0.0,0.0,0.0,0.0,0.0,0.0,0.0,0.0,0.0,0.0,0.0,0.0,0.0,0.0,0.0,0.0,0.0,0.0,0.0,0.0,0.0,0.0,0.0,0.0,0.0,0.0,0.0,0.0,0.0,0.0,0.0,0.0,0.0,0.0,0.0,0.0,0.0,0.0,0.0,0.0,0.0,0.0,0.0,0.0,0.0,0.0,0.0,0.0,0.0,0.0,0.0,0.0,0.0,0.0,0.0,0.0,0.0,0.0,0.0,0.0,0.0,0.0,0.0,0.0,0.0,0.0,0.0,0.0,0.0,0.0,0.0,0.0,0.0,0.0,0.0,0.0,0.0,0.0,0.0,0.0,0.0,0.0,0.0,0.0,0.0,0.0,-2.6215,-2.7815,-2.9877,-3.0898,-3.0721,-2.8081,-2.5033,0.0,0.0,0.0,0.0,0.0,0.0,0.0,0.0,0.0,0.0,0.0,0.0,0.0,0.0,0.0,0.0,0.0,0.0,0.0,0.0,0.0,0.0,0.0,0.0,0.0,0.0,0.0,0.0,0.0,0.0,0.0,0.0,0.0,0.0,0.0,0.0,0.0,0.0,0.0,0.0,0.0,0.0,0.0,0.0,0.0,0.0,0.0,0.0,0.0,0.0,0.0,0.0,0.0,0.0,0.0,0.0,0.0,0.0,0.0,0.0,0.0,0.0,0.0,0.0,0.0,0.0,0.0,0.0,0.0,0.0,0.0,0.0,0.0,0.0,0.0,0.0,0.0,0.0,0.0,0.0,0.0,0.0,0.0,0.0,0.0,0.0,0.0,0.0,0.0,0.0,0.0,0.0,0.0,0.0,0.0,0.0,0.0,0.0,0.0,0.0,0.0,0.0,0.0,0.0,0.0,0.0,0.0,0.0,-2.6872,-2.8029,-3.0505,-3.1485,-3.08,-2.8124,-2.5669,0.0,0.0,0.0,0.0,0.0,0.0,0.0,0.0,0.0,0.0,0.0,0.0,0.0,0.0,0.0,0.0,0.0,0.0,0.0,0.0,0.0,0.0,0.0,0.0,0.0,0.0,0.0,0.0,0.0,0.0,0.0,0.0,0.0,0.0,0.0,0.0,0.0,0.0,0.0,0.0,0.0,0.0,0.0,0.0,0.0,0.0,0.0,0.0,-1.8699,0.0,0.0,0.0,0.0,0.0,0.0,0.0,0.0,0.0,0.0,0.0,0.0,0.0,0.0,0.0,0.0,0.0,0.0,0.0,0.0,0.0,0.0,0.0,0.0,0.0,0.0,0.0,0.0,0.0,0.0,0.0,0.0,0.0,0.0,0.0,0.0,0.0,0.0,0.0,0.0,0.0,0.0,0.0,0.0,0.0,0.0,0.0,0.0,0.0,0.0,0.0,0.0,0.0,0.0,0.0,0.0,0.0,0.0,0.0,-2.7267,-2.8668,-3.0528,-3.1465,-3.1327,-2.8781,-2.6317,0.0,0.0,0.0,0.0,0.0,0.0,0.0,0.0,0.0,0.0,0.0,0.0,0.0,0.0,0.0,0.0,0.0,0.0,0.0,0.0,0.0,0.0,0.0,0.0,0.0,0.0,0.0,0.0,0.0,0.0,0.0,0.0,0.0,0.0,0.0,0.0,0.0,0.0,0.0,0.0,0.0,0.0,0.0,0.0,0.0,0.0,0.0,0.0,0.0,0.0,0.0,0.0,0.0,0.0,0.0,0.0,0.0,0.0,0.0,0.0,0.0,0.0,0.0,0.0,0.0,0.0,0.0,0.0,0.0,0.0,0.0,0.0,0.0,0.0,0.0,0.0,0.0,0.0,0.0,0.0,0.0,0.0,0.0,0.0,0.0,0.0,0.0,0.0,0.0,0.0,0.0,0.0,0.0,0.0,0.0,0.0,0.0,0.0,0.0,0.0,0.0,0.0,0.0,0.0,0.0,0.0,0.0,-2.5459,-2.76,-2.9299,-3.043,-3.1231,-3.166,-2.949,-2.6965,-2.4205,0.0,0.0,0.0,0.0,0.0,0.0,0.0,0.0,0.0,0.0,0.0,0.0,0.0,0.0,0.0,0.0,0.0,0.0,0.0,0.0,0.0,0.0,0.0,0.0,0.0,0.0,0.0,0.0,0.0,0.0,0.0,0.0,0.0,0.0,0.0,0.0,0.0,0.0,-1.6884,-1.8155,0.0,0.0,0.0,0.0,0.0,0.0,0.0,0.0,-1.9597,0.0,0.0,0.0,0.0,0.0,0.0,0.0,0.0,0.0,0.0,0.0,0.0,0.0,0.0,0.0,0.0,0.0,0.0,0.0,0.0,0.0,0.0,0.0,0.0,0.0,0.0,0.0,0.0,0.0,0.0,0.0,0.0,0.0,0.0,0.0,0.0,0.0,0.0,0.0,0.0,0.0,0.0,0.0,0.0,0.0,0.0,0.0,0.0,0.0,0.0,0.0,0.0,0.0,0.0,0.0,0.0,-2.4749,-2.6642,-2.8236,-2.9541,-3.1072,-3.1291,-3.0079,-2.9423,-2.7498,-2.4175,0.0,0.0,0.0,0.0,0.0,0.0,0.0,0.0,0.0,0.0,0.0,0.0,0.0,0.0,0.0,0.0,0.0,0.0,0.0,0.0,0.0,0.0,0.0,0.0,0.0,0.0,0.0,0.0,0.0,0.0,0.0,0.0,0.0,0.0,0.0,0.0,0.0,0.0,0.0,-1.9783,-2.0479,0.0,0.0,0.0,0.0,0.0,0.0,0.0,0.0,-2.0317,0.0,0.0,0.0,0.0,0.0,0.0,0.0,0.0,0.0,0.0,0.0,0.0,0.0,0.0,0.0,0.0,0.0,0.0,0.0,0.0,0.0,0.0,0.0,0.0,0.0,0.0,0.0,0.0,0.0,0.0,0.0,0.0,0.0,0.0,0.0,0.0,0.0,0.0,0.0,0.0,0.0,0.0,0.0,0.0,0.0,0.0,0.0,0.0,0.0,0.0,0.0,0.0,0.0,0.0,0.0,-2.4602,-2.7203,-2.8918,-2.961,-3.0801,-3.0841,-2.963,-2.8554,-2.6771,0.0,0.0,0.0,0.0,0.0,0.0,0.0,0.0,0.0,0.0,0.0,0.0,0.0,0.0,0.0,0.0,0.0,0.0,0.0,0.0,0.0,0.0,0.0,0.0,0.0,0.0,0.0,0.0,0.0,0.0,0.0,0.0,0.0,0.0,0.0,0.0,0.0,0.0,0.0,0.0,-2.0481,-2.0833,-2.1636,0.0,0.0,0.0,0.0,0.0,0.0,-2.0505,-2.037,0.0,0.0,0.0,0.0,0.0,0.0,0.0,0.0,0.0,0.0,0.0,0.0,0.0,0.0,0.0,0.0,0.0,0.0,0.0,0.0,0.0,0.0,0.0,0.0,0.0,0.0,0.0,0.0,0.0,0.0,0.0,0.0,0.0,0.0,0.0,0.0,0.0,0.0,0.0,0.0,0.0,0.0,0.0,0.0,0.0,0.0,0.0,0.0,0.0,0.0,0.0,0.0,0.0,0.0,0.0,-2.4469,-2.7644,-2.9469,-2.9839,-3.0468,-3.0411,-2.9591,-2.7768,-2.5921,0.0,0.0,0.0,0.0,0.0,0.0,0.0,0.0,0.0,0.0,0.0,0.0,0.0,0.0,0.0,0.0,0.0,0.0,0.0,0.0,0.0,0.0,0.0,0.0,0.0,0.0,0.0,0.0,0.0,0.0,0.0,0.0,0.0,0.0,0.0,0.0,0.0,0.0,0.0,0.0,0.0,-2.1286,-2.2846,-2.1721,0.0,0.0,0.0,0.0,-2.0572,-2.0617,0.0,0.0,0.0,0.0,0.0,0.0,0.0,0.0,0.0,0.0,0.0,0.0,0.0,0.0,0.0,0.0,0.0,0.0,0.0,0.0,0.0,0.0,0.0,0.0,0.0,0.0,0.0,0.0,0.0,0.0,0.0,0.0,0.0,0.0,0.0,0.0,0.0,0.0,0.0,0.0,0.0,0.0,0.0,0.0,0.0,0.0,0.0,0.0,0.0,0.0,0.0,0.0,0.0,0.0,0.0,0.0,-2.6016,-2.8171,-2.9741,-3.0604,-3.0737,-3.0411,-2.9591,-2.7668,-2.5809,0.0,0.0,0.0,0.0,0.0,0.0,0.0,0.0,0.0,0.0,0.0,0.0,0.0,0.0,0.0,0.0,0.0,0.0,0.0,0.0,0.0,0.0,0.0,0.0,0.0,0.0,0.0,0.0,0.0,0.0,0.0,0.0,0.0,0.0,0.0,0.0,0.0,0.0,0.0,0.0,0.0,-2.2574,-2.3046,-2.2713,-2.2105,0.0,0.0,-2.2492,-2.2483,-2.2294,0.0,0.0,0.0,0.0,0.0,0.0,0.0,0.0,0.0,0.0,0.0,0.0,0.0,0.0,0.0,0.0,0.0,0.0,0.0,0.0,0.0,0.0,0.0,0.0,0.0,0.0,0.0,0.0,0.0,0.0,0.0,0.0,0.0,0.0,0.0,0.0,0.0,0.0,0.0,0.0,0.0,0.0,0.0,0.0,0.0,0.0,0.0,0.0,0.0,0.0,0.0,0.0,0.0,0.0,0.0,-2.487,-2.5696,-2.8582,-3.032,-3.0776,-3.0786,-3.0423,-2.9631,-2.7659,-2.5797,0.0,0.0,0.0,0.0,0.0,0.0,0.0,0.0,0.0,0.0,0.0,0.0,0.0,0.0,0.0,0.0,0.0,0.0,0.0,0.0,0.0,0.0,0.0,0.0,0.0,0.0,0.0,0.0,0.0,0.0,0.0,0.0,0.0,0.0,0.0,0.0,0.0,0.0,0.0,0.0,0.0,0.0,-2.363,-2.3171,0.0,0.0,0.0,-2.2496,-2.1767,0.0,0.0,0.0,0.0,0.0,0.0,0.0,0.0,0.0,0.0,0.0,0.0,0.0,0.0,0.0,0.0,0.0,0.0,0.0,0.0,0.0,0.0,0.0,0.0,0.0,0.0,0.0,0.0,0.0,0.0,0.0,0.0,0.0,0.0,0.0,0.0,0.0,0.0,0.0,0.0,0.0,0.0,0.0,0.0,0.0,0.0,0.0,0.0,0.0,0.0,0.0,0.0,0.0,0.0,0.0,0.0,0.0,-2.5718,-2.896,-3.0701,-3.0772,-3.0767,-3.0508,-2.9899,-2.7993,0.0,0.0,0.0,0.0,0.0,0.0,0.0,0.0,0.0,0.0,0.0,0.0,0.0,0.0,0.0,0.0,0.0,0.0,0.0,0.0,0.0,0.0,0.0,0.0,0.0,0.0,0.0,-1.5386,0.0,0.0,0.0,0.0,0.0,0.0,0.0,0.0,0.0,0.0,0.0,0.0,0.0,0.0,-2.3171,-2.4053,-2.3739,-2.3408,0.0,0.0,-2.3187,-2.2247,-2.2837,-2.3077,0.0,0.0,0.0,0.0,0.0,0.0,0.0,0.0,0.0,0.0,0.0,0.0,0.0,0.0,0.0,0.0,0.0,0.0,0.0,0.0,0.0,0.0,0.0,0.0,0.0,0.0,0.0,0.0,0.0,0.0,0.0,0.0,0.0,0.0,0.0,0.0,0.0,0.0,0.0,0.0,0.0,0.0,0.0,0.0,0.0,0.0,0.0,0.0,0.0,0.0,0.0,0.0,0.0,0.0,0.0,-2.7261,-2.9448,-3.0634,-3.0704,-3.0706,-3.0722,-3.0682,-2.8953,-2.7118,0.0,0.0,0.0,0.0,0.0,0.0,0.0,0.0,0.0,0.0,0.0,0.0,0.0,0.0,0.0,0.0,0.0,0.0,0.0,0.0,0.0,0.0,0.0,0.0,0.0,0.0,0.0,0.0,0.0,0.0,0.0,0.0,0.0,0.0,0.0,0.0,0.0,0.0,0.0,0.0,0.0,-2.3075,-2.3966,-2.4639,-2.5035,0.0,0.0,-2.5751,-2.5661,-2.5588,-2.5516,-2.5392,0.0,0.0,0.0,0.0,0.0,0.0,0.0,0.0,0.0,0.0,0.0,0.0,0.0,0.0,0.0,0.0,0.0,0.0,0.0,0.0,0.0,0.0,0.0,0.0,0.0,0.0,0.0,0.0,0.0,0.0,0.0,0.0,0.0,0.0,0.0,0.0,0.0,0.0,0.0,0.0,0.0,0.0,0.0,0.0,0.0,0.0,0.0,0.0,0.0,0.0,0.0,0.0,0.0,-2.5633,-2.6715,-2.9256,-3.0563,-3.0634,-3.0669,-3.07,-3.0741,-2.9508,-2.7738,0.0,0.0,0.0,0.0,0.0,0.0,0.0,0.0,0.0,0.0,0.0,0.0,0.0,0.0,0.0,0.0,0.0,0.0,0.0,0.0,0.0,0.0,0.0,0.0,0.0,0.0,0.0,0.0,-2.0307,-2.0889,-2.0129,0.0,0.0,0.0,0.0,0.0,0.0,0.0,0.0,0.0,0.0,-2.4299,-2.4668,-2.5383,0.0,0.0,-2.5953,-2.6009,-2.6009,-2.5881,-2.5816,-2.5809,-2.5796,0.0,0.0,0.0,0.0,0.0,0.0,0.0,0.0,0.0,0.0,0.0,0.0,0.0,0.0,0.0,0.0,0.0,0.0,0.0,0.0,0.0,0.0,0.0,0.0,0.0,0.0,0.0,0.0,0.0,0.0,0.0,0.0,0.0,0.0,0.0,0.0,0.0,0.0,0.0,0.0,0.0,0.0,0.0,0.0,0.0,0.0,0.0,0.0,0.0,0.0,0.0,0.0,-2.5577,-2.6657,-2.9162,-3.0491,-3.0572,-3.0641,-3.0662,-3.0684,-3.0058,-2.8605,0.0,0.0,0.0,0.0,0.0,0.0,0.0,0.0,0.0,0.0,0.0,0.0,0.0,0.0,0.0,0.0,0.0,0.0,0.0,0.0,0.0,0.0,0.0,0.0,0.0,0.0,0.0,0.0,-2.1159,-2.1463,-2.0606,0.0,0.0,0.0,0.0,0.0,0.0,0.0,0.0,0.0,0.0,-2.5426,-2.5444,-2.6134,-2.6613,-2.6589,-2.667,-2.6734,-2.674,-2.6659,-2.6604,-2.667,0.0,0.0,0.0,0.0,0.0,0.0,0.0,0.0,0.0,0.0,0.0,0.0,0.0,0.0,0.0,0.0,0.0,0.0,0.0,0.0,0.0,0.0,0.0,0.0,0.0,0.0,0.0,0.0,0.0,0.0,-2.047,0.0,0.0,0.0,0.0,0.0,0.0,0.0,0.0,0.0,0.0,0.0,0.0,0.0,0.0,0.0,0.0,0.0,0.0,0.0,0.0,0.0,0.0,-2.5831,-2.7454,-2.9396,-3.0425,-3.0501,-3.0554,-3.0641,-3.0697,-3.0681,-2.981,-2.7967,0.0,0.0,0.0,0.0,0.0,0.0,0.0,0.0,0.0,0.0,0.0,0.0,0.0,0.0,0.0,0.0,0.0,0.0,0.0,0.0,0.0,0.0,0.0,0.0,0.0,0.0,-1.8393,-1.9601,-2.0696,0.0,0.0,0.0,0.0,0.0,0.0,0.0,0.0,0.0,0.0,-2.5642,-2.6186,-2.6186,-2.6862,-2.7357,-2.7296,-2.7933,-2.8412,-2.8334,-2.8386,-2.8443,0.0,0.0,0.0,0.0,0.0,0.0,0.0,0.0,0.0,0.0,0.0,0.0,0.0,0.0,0.0,0.0,0.0,0.0,0.0,0.0,0.0,0.0,0.0,0.0,0.0,0.0,0.0,-2.5675,-2.4382,0.0,0.0,0.0,0.0,0.0,0.0,0.0,0.0,0.0,0.0,0.0,-2.7217,-2.779,0.0,0.0,0.0,0.0,0.0,0.0,0.0,0.0,0.0,0.0,0.0,0.0,-2.6435,-2.7599,-2.9468,-3.0501,-3.056,-3.0641,-3.0662,-3.07,-3.0735,-2.994,-2.8177,0.0,0.0,0.0,0.0,0.0,0.0,0.0,0.0,0.0,0.0,0.0,0.0,0.0,0.0,0.0,0.0,0.0,0.0,0.0,0.0,0.0,0.0,0.0,0.0,0.0,-2.2614,0.0,0.0,0.0,0.0,0.0,0.0,0.0,0.0,0.0,0.0,0.0,-2.49,-2.5697,-2.6458,-2.6929,-2.6941,-2.7565,-2.8049,0.0,0.0,0.0,0.0,0.0,0.0,0.0,0.0,0.0,0.0,0.0,0.0,0.0,0.0,-2.8318,-2.703,-2.6363,-2.5654,-2.4422,0.0,0.0,0.0,0.0,0.0,0.0,0.0,0.0,0.0,0.0,0.0,0.0,0.0,0.0,-2.8267,0.0,-2.6937,0.0,0.0,0.0,0.0,0.0,0.0,0.0,0.0,-2.8464,-2.9173,-2.9913,-3.0432,-3.0382,0.0,-2.973,-2.8094,0.0,0.0,0.0,0.0,0.0,0.0,0.0,0.0,-2.6689,-2.7629,-2.9519,-3.0533,-3.0598,-3.0646,-3.0678,-3.0694,-3.0765,-3.0269,-2.9134,-2.6814,-2.5399,0.0,0.0,0.0,0.0,0.0,0.0,0.0,0.0,0.0,0.0,0.0,0.0,0.0,0.0,0.0,0.0,0.0,0.0,0.0,0.0,0.0,0.0,0.0,-2.4046,0.0,0.0,0.0,0.0,0.0,0.0,0.0,0.0,0.0,-2.3984,-2.5034,-2.6011,-2.6513,-2.7278,-2.7754,-2.7754,0.0,0.0,0.0,0.0,0.0,0.0,0.0,-3.0649,-3.1242,-3.1409,-3.1556,-3.1893,-3.1721,-3.1629,-3.1924,0.0,0.0,-2.8639,-2.7929,-2.728,-2.6391,-2.5907,-2.5489,-2.5095,-2.512,-2.5169,0.0,0.0,0.0,0.0,0.0,0.0,0.0,0.0,-3.0959,-3.0432,0.0,-2.9544,0.0,0.0,0.0,0.0,0.0,-2.8294,0.0,0.0,-3.2303,-3.273,-3.1996,-3.1835,-3.1763,-3.1802,-3.1585,-3.1085,-3.0268,-2.8812,0.0,0.0,0.0,0.0,0.0,0.0,-2.6784,-2.7764,-2.9619,-3.0573,-3.0607,-3.061,-3.0639,-3.0709,-3.0759,-3.0786,-3.0721,-2.909,-2.7797,-2.6981,-2.5285,0.0,0.0,0.0,0.0,0.0,0.0,0.0,0.0,0.0,0.0,0.0,0.0,0.0,0.0,0.0,0.0,0.0,0.0,0.0,0.0,-2.2997,0.0,0.0,0.0,0.0,0.0,0.0,0.0,0.0,0.0,0.0,-2.4504,-2.6095,-2.7411,-2.7386,0.0,0.0,0.0,0.0,-2.915,-2.9841,-3.0063,-3.0387,-3.1122,-3.1433,-3.1586,-3.1695,0.0,0.0,-3.2908,-3.2392,-3.218,-3.2901,-3.2392,-3.153,-3.0589,-2.9134,-2.8099,-2.8143,-2.7529,-2.6962,-2.7019,-2.7465,-2.7849,-3.6746,0.0,0.0,0.0,0.0,-3.3553,-3.4371,-3.6196,-3.4993,-3.3971,-3.3071,-3.2452,0.0,0.0,0.0,0.0,0.0,0.0,-3.1158,-3.3147,-3.3058,-3.3817,-3.5328,-3.4704,-3.4391,-3.4424,-3.4337,-3.4203,-3.4032,-3.3597,-3.0788,-2.5842,0.0,0.0,0.0,0.0,-2.9147,-2.9638,-3.0848,-3.1227,-3.0678,-3.0715,-3.0734,-3.076,-3.0789,-3.0796,-3.08,-3.0305,-2.9622,-2.8722,-2.7639,0.0,0.0,0.0,0.0,0.0,0.0,0.0,0.0,0.0,0.0,0.0,0.0,0.0,0.0,0.0,0.0,0.0,0.0,0.0,-2.4936,-2.5815,-2.6851,0.0,0.0,0.0,0.0,0.0,0.0,0.0,0.0,0.0,-2.8829,-2.807,-2.799,0.0,0.0,-2.9799,-3.0376,-3.0487,-3.0611,-3.0868,-3.0999,0.0,-3.2213,-3.2555,-3.2922,-3.351,-3.3695,-3.3866,-3.4102,-3.3952,-3.3877,-3.4083,-3.3495,-3.2858,-3.2574,-3.1123,-3.0043,-3.0114,-2.9495,-2.896,-2.9118,-2.9712,-3.0205,-4.0407,-3.7708,-3.7013,-3.7198,-3.7858,-3.704,-3.7762,-3.9458,-3.8094,-3.7191,-3.661,-3.5745,-3.4377,-3.2691,-3.2209,0.0,0.0,0.0,-3.3967,-3.5869,-3.5289,-3.5701,-3.6798,-3.6335,-3.5881,-3.5566,-3.5527,-3.5527,-3.5554,-3.5143,-3.2852,-2.8862,0.0,0.0,-2.7736,-2.9581,-3.0673,-3.0906,-3.1826,-3.1968,-3.1197,-3.0915,-3.0767,-3.0794,-3.0798,-3.08,-3.08,-3.08,-3.0396,-2.9476,-2.8972,-2.8072,0.0,0.0,0.0,0.0,0.0,0.0,0.0,0.0,0.0,0.0,0.0,-2.3303,-2.3607,0.0,0.0,0.0,-2.5088,-2.6314,-2.7646,-2.8572,0.0,0.0,0.0,0.0,0.0,0.0,0.0,-3.0932,-3.1274,-3.144,-3.1216,-3.019,-2.9702,-3.038,-3.0558,-3.0815,-3.133,0.0,-3.1617,-3.2009,-3.2147,-3.2495,-3.3336,-3.3657,-3.3977,-3.4489,-3.4639,-3.4691,-3.4689,-3.4689,-3.467,-3.4632,-3.4304,-3.3985,-3.4063,-3.2901,-3.1704,-3.1226,-3.0682,-3.038,-3.0524,-3.1205,-3.1844,-4.3437,-4.2578,-4.0981,-4.0659,-4.1114,-4.0278,-4.0437,-4.1231,-4.0377,-3.9999,-3.9938,-3.9099,-3.7776,-3.615,-3.5054,0.0,-3.5846,-3.653,-3.7356,-3.8384,-3.8311,-3.7904,-3.7181,-3.6994,-3.646,-3.5701,-3.5567,-3.55,-3.5455,-3.4515,-3.3612,-3.2824,-3.2872,-3.1962,-3.0243,-3.1004,-3.1562,-3.1706,-3.2555,-3.2664,-3.2016,-3.1284,-3.0895,-3.0891,-3.089,-3.0878,-3.08,-3.08,-3.0441,-2.9659,-2.9599,-2.921,-2.8363,0.0,0.0,0.0,0.0,0.0,0.0,0.0,0.0,0.0,0.0,0.0,0.0,0.0,0.0,0.0,-2.8179,0.0,-3.0334,-3.1125,0.0,0.0,0.0,-3.2844,-3.2928,-3.2928,-3.2879,-3.2828,0.0,0.0,-3.239,-3.2342,-3.2212,-3.1906,-3.1809,-3.1788,-3.1912,-3.2087,-3.2435,-3.3216,-3.3363,-3.3677,-3.4325,-3.4591,-3.4694,-3.4783,-3.487,-3.4898,-3.4841,-3.4831,-3.4812,-3.4831,-3.4812,-3.4841,-3.4992,-3.4309,-3.3396,-3.1781,-3.1379,-3.1339,-3.1504,-3.2138,-3.2893,-4.5566,-4.5351,-4.4921,-4.3748,-4.2089,-4.1853,-4.2262,-4.2984,-4.2143,-4.179,-4.1726,-4.0849,-4.021,-3.9716,-3.8778,-3.8433,-3.8535,-3.8121,-3.836,-3.909,-3.8514,-3.84,-3.8685,-3.7437,-3.6697,-3.6401,-3.5802,-3.55,-3.5481,-3.5242,-3.4635,-3.3745,-3.3705,-3.2797,-3.1112,-3.1878,-3.2355,-3.2426,-3.2756,-3.2916,-3.2888,-3.2749,-3.2379,-3.1719,-3.1781,-3.1485,-3.0839,-3.08,-3.0696,-3.0505,-3.0496,-3.0089,-2.924,-2.9777,0.0,0.0,0.0,0.0,0.0,0.0,0.0,0.0,0.0,-2.8088,-2.8302,0.0,-2.9298,0.0,-3.0402,-3.129,-3.2107,-3.2375,0.0,0.0,-3.3765,-3.4067,-3.474,-3.4836,-3.4789,-3.4657,-3.4649,-3.4814,-3.5303,-3.4755,-3.4519,-3.504,-3.3886,-3.3195,-3.3792,-3.3968,-3.4124,-3.4334,-3.4451,-3.4604,-3.4813,-3.4946,-3.5011,-3.5039,-3.5029,-3.5057,-3.5048,-3.5029,-3.5029,-3.502,-3.502,-3.5029,-3.5056,-3.4904,-3.4445,-3.3443,-3.2733,-3.2295,-3.2382,-3.3031,-3.3672,-4.6289,-4.6289,-4.6289,-4.5449,-4.4141,-4.4141,-4.4414,-4.4765,-4.3945,-4.3554,-4.3494,-4.2648,-4.2213,-4.2078,-4.1579,-4.1062,-4.0545,-4.0105,-3.9927,-3.9904,-3.9476,-3.9301,-3.9268,-3.8344,-3.7702,-3.7257,-3.6423,-3.6038,-3.6038,-3.6019,-3.5748,-3.523,-3.5602,-3.4879,-3.3138,-3.277,-3.2618,-3.2661,-3.2753,-3.31,-3.3664,-3.3379,-3.2768,-3.1903,-3.1952,-3.1415,-3.0129,-3.0119,-3.0143,-3.0161,-3.0178,-3.0331,-3.066,-3.1069,-3.1308,0.0,0.0,0.0,0.0,0.0,0.0,0.0,0.0,0.0,0.0,0.0,-3.1706,-3.1676,-3.2314,-3.2929,-3.3372,-3.3755,-3.419,-3.4672,-3.473,-3.4948,-3.5442,-3.55,-3.546,-3.5364,-3.5687,-3.6063,-3.6392,-3.5987,-3.5836,-3.6341,-3.5465,-3.4785,-3.4794,-3.487,-3.4889,-3.4917,-3.4973,-3.5028,-3.5117,-3.5145,-3.5143,-3.5179,-3.5162,-3.5145,-3.5147,-3.5147,-3.5147,-3.5147,-3.5147,-3.5155,-3.5153,-3.5134,-3.4971,-3.4587,-3.4102,-3.3691,-3.3349,-3.3627,-3.4039,-4.6289,-4.6289,-4.6289,-4.6289,-4.6289,-4.6289,-4.6289,-4.625,-4.5508,-4.5156,-4.5097,-4.4354,-4.3936,-4.3818,-4.3641,-4.3066,-4.2242,-4.2107,-4.1603,-4.0788,-4.0884,-4.04,-3.9465,-3.9465,-3.8996,-3.8142,-3.7288,-3.6865,-3.6846,-3.6865,-3.6808,-3.6716,-3.7447,-3.696,-3.5289,-3.3699,-3.2822,-3.2613,-3.2875,-3.3451,-3.4385,-3.3613,-3.2769,-3.189,-3.1863,-3.1107,-2.9474,-2.9423,-2.9486,-2.9579,-2.9669,-3.0447,-3.2012,-3.2298,-3.2771,0.0,-3.367,0.0,0.0,0.0,0.0,0.0,0.0,0.0,0.0,-3.3514,-3.3516,-3.3437,-3.4008,-3.4372,-3.4372,-3.5065,-3.55,-3.55,-3.55,-3.55,-3.55,-3.5577,-3.5621,-3.5566,-3.6342,-3.6857,-3.6929,-3.6779,-3.6703,-3.6913,-3.661,-3.6176,-3.566,-3.5429,-3.5316,-3.516,-3.513,-3.5182,-3.5258,-3.525,-3.5242,-3.5277,-3.5253,-3.5201,-3.5198,-3.5189,-3.5189,-3.5189,-3.5189,-3.5179,-3.5182,-3.5182,-3.5182,-3.5125,-3.5087,-3.4857,-3.4312,-3.4178,-3.4388,-4.6289,-4.6289,-4.6289,-4.6289,-4.6289,-4.6288,-4.6289,-4.6289,-4.6112,-4.603,-4.5957,-4.5735,-4.5616,-4.5463,-4.4707,-4.4241,-4.3984,-4.3289,-4.2495,-4.168,-4.2374,-4.187,-4.0407,-4.0376,-3.9899,-3.9034,-3.818,-3.7757,-3.7738,-3.7738,-3.7348,-3.6554,-3.6707,-3.6219,-3.5176,0.0,0.0,0.0,-3.3998,-3.4813,-3.4986,-3.4189,-3.3372,-3.2539,-3.2053,0.0,-3.0397,-3.0342,-3.0386,-3.0464,-3.1122,0.0,0.0,0.0,0.0,0.0,0.0,0.0,0.0,0.0,0.0,0.0,-3.5254,-3.4925,-3.4419,-3.4936,-3.5279,-3.5223,-3.5272,-3.5309,-3.5258,-3.5412,-3.55,-3.55,-3.55,-3.55,-3.5519,-3.6077,-3.6481,-3.6474,-3.7224,-3.8012,-3.8554,-3.817,-3.7997,-3.847,-3.7547,-3.6952,-3.736,-3.6707,-3.6044,-3.545,-3.5293,-3.5342,-3.5357,-3.5376,-3.5339,-3.5308,-3.5285,-3.5261,-3.522,-3.5193,-3.5193,-3.5193,-3.5193,-3.5193,-3.5182,-3.5182,-3.5182,-3.5182,-3.5182,-3.5144,-3.4999,-3.4972,-3.5018,-4.6289,0.0,-4.6289,-4.6289,0.0,-4.6288,-4.6288,-4.6289,-4.6288,-4.6285,-4.6237,-4.6139,-4.608,-4.6031,-4.5483,-4.4976,-4.4534,-4.407,-4.3399,-4.2572,-4.2997,-4.2744,-4.187,-4.1431,-4.1012,-4.0539,-3.9253,-3.8642,-3.8642,-3.8642,-3.837,-3.7894,-3.8278,-3.8043,-3.719,-3.6741,-3.5672,-3.3941,-3.481,-3.5281,-3.5335,-3.493,-3.4321,-3.3429,-3.3183,0.0,0.0,0.0,0.0,0.0,0.0,0.0,0.0,0.0,0.0,-3.5314,-3.5743,-3.5955,-3.5948,-3.5916,-3.5883,-3.5849,-3.6222,-3.6102,-3.5258,-3.5542,-3.5742,-3.5713,-3.5631,-3.5591,-3.5554,-3.5861,-3.6096,-3.6096,-3.6481,-3.6738,-3.6769,-3.7103,-3.7334,-3.743,-3.8104,-3.8815,-3.9196,-3.89,-3.8766,-3.915,-3.8535,-3.792,-3.7865,-3.686,-3.5825,-3.5415,-3.5372,-3.5412,-3.5427,-3.5439,-3.5398,-3.5354,-3.5316,-3.5285,-3.5242,-3.5218,-3.5182,-3.5182,-3.5182,-3.5182,-3.5182,-3.5182,-3.5182,-3.5182,-3.5182,-3.5182,-3.5182,-3.5182,-3.5182,-4.6289,-4.6289,-4.6289,-4.6289,-4.6289,-4.6288,-4.6306,-4.6305,0.0,0.0,0.0,-4.6134,-4.6088,-4.6087,-4.5955,-4.5505,-4.4833,-4.4833,-4.4316,-4.3457,-4.3593,-4.3501,-4.3188,-4.2622,-4.2202,-4.184,-4.0435,-3.9669,-3.9515,-3.9508,-3.9508,-3.9573,-4.0189,-4.0169,-3.9496,-3.8796,-3.7624,-3.6071,-3.5829,-3.5711,-3.5657,-3.5554,-3.5027,-3.4067,-3.4098,-3.3441,-3.199,-3.2135,-3.2322,-3.2458,-3.2716,-3.3557,-3.4959,-3.5253,-3.5674,-3.6376,-3.6434,-3.6404,-3.6359,-3.6336,-3.6307,-3.6234,-3.6823,-3.6867,-3.6069,-3.6091,-3.6149,-3.6148,-3.6064,-3.6029,-3.6048,-3.6548,-3.6949,-3.6942,-3.7558,-3.7988,-3.7988,-3.8161,-3.8238,-3.8315,-3.8988,-3.95,-3.9461,-3.9465,-3.9437,-3.9399,-3.9226,-3.8888,-3.8016,-3.6894,-3.5919,-3.5508,-3.5585,-3.565,-3.5491,-3.5412,-3.5391,-3.5376,-3.5343,-3.5312,-3.5296,-3.5253,-3.519,-3.5182,-3.5182,-3.5182,-3.5182,-3.5182,-3.5182,-3.5182,-3.5182,-3.5182,-3.5182,-3.5182,-3.5182,-4.6308,-4.6289,-4.6289,-4.6289,-4.6289,-4.6305,-4.63,-4.6295,-4.6243,-4.621,-4.6216,-4.6067,-4.6022,-4.5993,-4.588,-4.5756,-4.5633,-4.5633,-4.52,-4.4458,-4.5116,-4.4638,-4.3269,-4.3844,-4.3343,-4.1956,-4.1582,-4.1066,-4.04,-4.0342,-4.0323,-4.0323,-4.0439,-4.0439,-4.0323,-4.0208,-3.9681,-3.8735,-3.7841,-3.7001,-3.6283,-3.5496,-3.4669,-3.3875,-3.3367,-3.2974,-3.2841,-3.3566,-3.4007,-3.4171,-3.5584,-3.6532,-3.6826,-3.752,-3.8014,-3.8131,-3.8151,-3.8142,-3.8129,-3.8026,-3.7927,-3.7885,-3.793,-3.7618,-3.6925,-3.7464,-3.7856,-3.7851,-3.7649,-3.766,-3.766,-3.774,-3.7815,-3.7815,-3.793,-3.8007,-3.8104,-3.87,-3.9104,-3.9123,-3.9842,-4.0296,-4.0223,-4.023,-4.0225,-4.0186,-3.9671,-3.8868,-3.8197,-3.7786,-3.7031,-3.5974,-3.6087,-3.615,-3.5619,-3.5364,-3.535,-3.5308,-3.5327,-3.5293,-3.5242,-3.5226,-3.5198,-3.5209,-3.519,-3.5209,-3.519,-3.5182,-3.519,-3.5198,-3.5198,-3.519,-3.5198,-3.519,-3.519,-4.7715,-4.7656,-4.7207,-4.7012,-4.6973,-4.652,-4.6299,-4.6291,-4.623,-4.6206,-4.6228,-4.6111,-4.6061,-4.6052,-4.5867,-4.5807,-4.5807,-4.5807,-4.5594,-4.5278,-4.5633,-4.5367,-4.4657,-4.4542,-4.4079,-4.3304,-4.2752,-4.2047,-4.1258,-4.12,-4.0977,-4.0535,-4.0496,-4.0496,-4.0496,-4.0496,-4.0304,-3.9958,-3.9023,-3.8139,-3.7287,-3.6873,-3.6504,-3.6154,-3.5861,-3.577,-3.5882,-3.6251,-3.6513,-3.6664,-3.7425,-3.7873,-3.791,-3.8291,-3.851,-3.851,-3.8466,-3.8438,-3.8452,-3.8287,-3.8181,-3.8163,-3.8569,-3.8672,-3.833,-3.8215,-3.8138,-3.8157,-3.8041,-3.8,-3.8019,-3.8414,-3.8719,-3.8707,-3.9092,-3.9335,-3.94,-3.9688,-3.995,-3.9965,-4.0265,-4.046,-4.0392,-4.0386,-4.0388,-4.0349,-4.0002,-3.9517,-3.8757,-3.9058,-3.8626,-3.6661,-3.6122,-3.5879,-3.5533,-3.5456,-3.5442,-3.5415,-3.5405,-3.5388,-3.5331,-3.5289,-3.5254,-3.5254,-3.5254,-3.5254,-3.5254,-3.5254,-3.5254,-3.5254,-3.5254,-3.5254,-3.5254,-3.5239,-3.5234,-4.8887,-4.8808,-4.8183,-4.7793,-4.7538,-4.6871,-4.6494,-4.6311,-4.623,-4.6251,-4.628,-4.615,-4.6084,-4.608,-4.5899,-4.5807,-4.5807,-4.5807,-4.5807,-4.5807,-4.5807,-4.5807,-4.5735,-4.507,-4.4685,-4.4446,-4.3731,-4.2931,-4.2181,-4.2085,-4.1758,-4.1131,-4.0893,-4.0785,-4.0804,-4.0612,-4.0496,-4.0458,-3.9881,-3.9161,-3.8334,-3.8346,-3.8278,-3.8092,-3.8112,-3.8179,-3.8258,-3.8467,-3.8626,-3.8772,-3.8984,-3.908,-3.9095,-3.9084,-3.9087,-3.9084,-3.9026,-3.8994,-3.8937,-3.8786,-3.864,-3.8646,-3.9082,-3.9364,-3.9306,-3.8586,-3.8169,-3.8323,-3.8353,-3.8255,-3.8159,-3.878,-3.9304,-3.9342,-4.0035,-4.04,-4.0477,-4.0496,-4.0508,-4.0507,-4.0499,-4.0455,-4.0377,-4.0342,-4.0362,-4.0342,-4.0405,-4.0159,-3.9714,-4.0046,-3.9326,-3.7903,-3.66,-3.6093,-3.5869,-3.5631,-3.5579,-3.5502,-3.5483,-3.5462,-3.5415,-3.5367,-3.5326,-3.5319,-3.5319,-3.5319,-3.5319,-3.5323,-3.5323,-3.5315,-3.5327,-3.53,-3.53,-3.5304,-3.5285,-4.8926,-4.8887,-4.8827,-4.8317,-4.763,-4.7532,-4.7041,-4.639,-4.6303,-4.6298,-4.6275,-4.6095,-4.6042,-4.6071,-4.588,-4.5807,-4.5807,-4.5807,-4.5807,-4.5807,-4.5807,-4.5807,-4.58,-4.565,-4.5206,-4.4573,-4.4281,-4.3778,-4.3008,-4.2951,-4.2912,-4.2777,-4.2066,-4.1681,-4.1604,-4.09,-4.0516,-4.0496,-4.0419,-3.9996,-3.9246,-3.9196,-3.883,-3.8015,-3.8048,-3.8064,-3.8247,-3.8936,-3.9437,-3.9625,-4.0365,-4.083,-4.081,-4.0833,-4.0854,-4.0833,-4.083,-4.0766,-4.0567,-4.0449,-4.0277,-4.025,-3.9607,-3.9319,-3.9292,-3.8522,-3.8363,-3.8917,-3.9153,-3.8734,-3.8169,-3.8803,-3.9323,-3.9438,-4.0054,-4.0496,-4.0496,-4.0496,-4.0496,-4.0489,-4.05,-4.05,-4.0468,-4.0455,-4.0449,-4.0379,-4.0415,-4.0392,-4.0244,-3.9904,-3.9663,-3.9064,-3.8389,-3.7553,-3.6858,-3.6003,-3.5853,-3.5681,-3.5554,-3.5612,-3.5644,-3.5515,-3.5385,-3.5405,-3.5391,-3.5391,-3.5397,-3.5395,-3.5386,-3.5393,-3.5372,-3.5315,-3.5315,-3.5308,-3.5285,-5.0371,-5.0312,-4.9882,-4.9158,-4.8414,-4.833,-4.784,-4.7099,-4.7087,-4.6788,-4.6314,-4.617,-4.6099,-4.6089,-4.5917,-4.5827,-4.5807,-4.5807,-4.5807,-4.5807,-4.5807,-4.5807,-4.58,-4.5727,-4.5515,-4.5218,-4.5117,-4.4624,-4.3855,-4.3335,-4.3085,-4.3085,-4.272,-4.259,-4.2541,-4.1771,-4.1327,-4.1323,-4.0865,-4.0433,-4.0121,-4.0019,-3.9842,-3.9534,-3.9521,-3.9558,-3.9664,-4.007,-4.0335,-4.0466,-4.0831,-4.1044,-4.1109,-4.1103,-4.1104,-4.1109,-4.1033,-4.0902,-4.0694,-4.0622,-4.0559,-4.0496,-3.9765,-3.9477,-3.99,-3.8777,-3.8361,-3.9068,-3.883,-3.8546,-3.8719,-3.9092,-3.9477,-3.9919,-4.0323,-4.0496,-4.0496,-4.0496,-4.0508,-4.0503,-4.0495,-4.0479,-4.0455,-4.0449,-4.0432,-4.0415,-4.0452,-4.0485,-4.0471,-4.0235,-4.0142,-4.0056,-3.9514,-3.867,-3.7862,-3.7477,-3.7186,-3.7073,-3.6718,-3.6406,-3.63,-3.5807,-3.5538,-3.5552,-3.5578,-3.5566,-3.5527,-3.5515,-3.5509,-3.5502,-3.5463,-3.5423,-3.5397,-3.5381,-3.5338,-5.1387,-5.1308,-5.0761,-5.0037,-4.9256,-4.919,-4.8699,-4.7999,-4.7949,-4.7453,-4.6688,-4.6579,-4.6378,-4.6117,-4.5972,-4.5912,-4.5867,-4.5821,-4.5807,-4.5807,-4.5807,-4.5807,-4.578,-4.5727,-4.5688,-4.5673,-4.5618,-4.5287,-4.4643,-4.4105,-4.3778,-4.3786,-4.3572,-4.3485,-4.3423,-4.2671,-4.2249,-4.2221,-4.1461,-4.1029,-4.0971,-4.0716,-4.0564,-4.0545,-4.0595,-4.0668,-4.0713,-4.0779,-4.0859,-4.0949,-4.099,-4.1045,-4.1091,-4.1111,-4.109,-4.107,-4.0953,-4.0833,-4.0662,-4.0635,-4.0586,-4.0477,-3.9761,-3.9534,-3.9785,-3.8842,-3.8334,-3.8765,-3.8373,-3.8315,-3.8796,-3.915,-3.9573,-4.0092,-4.0323,-4.0496,-4.0496,-4.0496,-4.05,-4.0487,-4.0495,-4.0491,-4.0438,-4.0438,-4.0438,-4.0438,-4.0463,-4.0507,-4.0495,-4.0542,-4.0609,-4.0701,-4.0248,-3.9631,-3.8845,-3.8343,-3.8434,-3.8251,-3.768,-3.7366,-3.7313,-3.6706,-3.6133,-3.6419,-3.6112,-3.58,-3.566,-3.5618,-3.5641,-3.5604,-3.5566,-3.5522,-3.5477,-3.5437,-3.54,-5.1387,-5.1387,-5.1347,-5.0857,-5.0135,-5.0072,-4.9601,-4.8839,-4.8853,-4.8358,-4.7586,-4.7467,-4.6963,-4.6228,-4.6197,-4.603,-4.5999,-4.5984,-4.5975,-4.5969,-4.593,-4.5845,-4.58,-4.5727,-4.5708,-4.5708,-4.5646,-4.5565,-4.5468,-4.546,-4.5518,-4.5411,-4.4688,-4.4349,-4.4256,-4.3562,-4.3181,-4.3129,-4.2351,-4.1879,-4.1889,-4.115,-4.0732,-4.07,-4.0694,-4.07,-4.0725,-4.0759,-4.0845,-4.0894,-4.0974,-4.1028,-4.1091,-4.1113,-4.1053,-4.1011,-4.0939,-4.0883,-4.079,-4.0675,-4.0595,-4.0484,-3.9791,-3.9361,-3.9523,-3.863,-3.8161,-3.8161,-3.8238,-3.8161,-3.8373,-3.8977,-3.9342,-3.9534,-4.0112,-4.0458,-4.0496,-4.0496,-4.0496,-4.0489,-4.0508,-4.05,-4.05,-4.0489,-4.0481,-4.0473,-4.0489,-4.0489,-4.0516,-4.0557,-4.0641,-4.0751,-4.0721,-4.0519,-3.9664,-3.9256,-3.8758,-3.8634,-3.8739,-3.8342,-3.8338,-3.8209,-3.7679,-3.7249,-3.7041,-3.6634,-3.5994,-3.5713,-3.5734,-3.5706,-3.5628,-3.5584,-3.5527,-3.5502,-3.554,-5.1386,-5.1386,-5.1383,-5.1225,-5.0971,-5.0926,-5.0438,-4.9698,-4.9657,-4.9187,-4.8521,-4.84,-4.8193,-4.7821,-4.7752,-4.7386,-4.6909,-4.7337,-4.7561,-4.752,-4.7495,-4.7177,-4.6653,-4.6529,-4.6193,-4.5808,-4.5692,-4.5679,-4.5671,-4.5673,-4.5673,-4.564,-4.5403,-4.5271,-4.5201,-4.4557,-4.4181,-4.4125,-4.3338,-4.2685,-4.2232,-4.1873,-4.1465,-4.0939,-4.0849,-4.0793,-4.0779,-4.0858,-4.0953,-4.0957,-4.1013,-4.1064,-4.1091,-4.1059,-4.1029,-4.1,-4.0935,-4.0883,-4.0793,-4.0767,-4.0706,-4.0604,-3.9862,-3.9627,-3.9774,-3.889,-3.8411,-3.9219,-3.9065,-3.9027,-3.9431,-3.9457,-3.9515,-4.0015,-4.0323,-4.0496,-4.0496,-4.0496,-4.0496,-4.0496,-4.0496,-4.0496,-4.0496,-4.0496,-4.0496,-4.0496,-4.0496,-4.0496,-4.0512,-4.0545,-4.0641,-4.0725,-4.0826,-4.082,-4.0602,-4.0345,-4.0098,-3.9938,-3.9815,-3.9395,-3.9252,-3.8793,-3.8245,-3.8062,-3.7902,-3.7726,-3.7141,-3.6692,-3.6546,-3.5867,-3.5773,-3.5792,-3.5581,-3.5662,-3.5855,-5.1562,-5.1816,-5.1813,-5.1831,-5.1811,-5.1827,-5.1339,-5.0578,-5.0502,-5.0053,-4.9407,-4.9271,-4.911,-4.8904,-4.9044,-4.8827,-4.8256,-4.8505,-4.8565,-4.8527,-4.8485,-4.8147,-4.7643,-4.7475,-4.6996,-4.6297,-4.5902,-4.5749,-4.5704,-4.5692,-4.5692,-4.568,-4.5712,-4.5793,-4.5796,-4.538,-4.5126,-4.5016,-4.4325,-4.3618,-4.3093,-4.2817,-4.2428,-4.1928,-4.1778,-4.1449,-4.0927,-4.0941,-4.1016,-4.102,-4.1075,-4.1208,-4.1457,-4.1698,-4.1816,-4.1805,-4.177,-4.1718,-4.1678,-4.1651,-4.1507,-4.1156,-4.061,-4.0402,-4.0511,-3.9483,-3.9515,-4.0092,-4.0054,-3.9958,-4.0246,-3.9996,-3.9919,-4.04,-4.0496,-4.0496,-4.0496,-4.0496,-4.0496,-4.0496,-4.0496,-4.0496,-4.0496,-4.0496,-4.0496,-4.0496,-4.0496,-4.0496,-4.0504,-4.0564,-4.0635,-4.0687,-4.0815,-4.0913,-4.0831,-4.0719,-4.0708,-4.0611,-4.0533,-4.0218,-3.9961,-3.9425,-3.9068,-3.8905,-3.8758,-3.8665,-3.835,-3.7845,-3.7162,-3.6352,-3.6159,-3.6234,-3.6052,-3.5896,-3.6125,-5.1875,-5.25,-5.2655,-5.2556,-5.2576,-5.2576,-5.2164,-5.1576,-5.1443,-5.0973,-5.0326,-5.0148,-4.9735,-4.9238,-4.9804,-5.0069,-4.9864,-4.9243,-4.8887,-4.887,-4.8807,-4.8745,-4.8582,-4.851,-4.8021,-4.7195,-4.6389,-4.5932,-4.5841,-4.5873,-4.5831,-4.5739,-4.5786,-4.5867,-4.5904,-4.5894,-4.5998,-4.5874,-4.5155,-4.4744,-4.4746,-4.395,-4.3475,-4.3431,-4.3403,-4.2701,-4.1221,-4.1158,-4.1269,-4.1256,-4.1286,-4.1537,-4.2298,-4.2964,-4.3463,-4.3309,-4.3393,-4.3418,-4.3374,-4.3192,-4.2632,-4.2067,-4.1848,-4.1259,-4.0673,-4.0417,-4.0385,-4.0604,-4.0512,-4.0504,-4.0562,-4.0458,-4.04,-4.0496,-4.0496,-4.0496,-4.0496,-4.0496,-4.0496,-4.0496,-4.0496,-4.0496,-4.0496,-4.0496,-4.0496,-4.0496,-4.0496,-4.0496,-4.0504,-4.0564,-4.0635,-4.0707,-4.0804,-4.0898,-4.0954,-4.098,-4.1025,-4.1023,-4.0987,-4.0831,-4.0734,-4.0377,-4.0078,-3.988,-3.9714,-3.9583,-3.8929,-3.8435,-3.8026,-3.7387,-3.7138,-3.6833,-3.673,-3.6621,-3.6513,-5.1562,-5.1777,-5.1816,-5.2166,-5.2674,-5.2713,-5.283,-5.3103,-5.2578,-5.2129,-5.1816,-5.1248,-5.0836,-5.0678,-5.0909,-5.0981,-5.0972,-5.0662,-5.05,-5.0419,-5.0377,-5.0003,-4.9536,-4.9418,-4.8966,-4.8247,-4.7908,-4.7408,-4.6874,-4.6738,-4.6493,-4.6028,-4.5935,-4.6002,-4.6108,-4.6115,-4.6169,-4.6167,-4.5901,-4.551,-4.5016,-4.4635,-4.4237,-4.3731,-4.3629,-4.3308,-4.291,-4.2855,-4.2844,-4.2785,-4.288,-4.2997,-4.3208,-4.3445,-4.3572,-4.3579,-4.3575,-4.3571,-4.3484,-4.301,-4.2602,-4.2141,-4.1607,-4.1091,-4.0782,-4.0688,-4.0938,-4.1298,-4.0981,-4.0752,-4.1207,-4.0854,-4.0535,-4.0496,-4.0496,-4.0496,-4.0496,-4.0496,-4.0496,-4.0496,-4.0496,-4.0496,-4.0496,-4.0496,-4.0496,-4.0496,-4.0496,-4.0496,-4.0512,-4.0564,-4.0615,-4.0687,-4.0784,-4.0873,-4.0954,-4.0992,-4.1015,-4.1055,-4.1085,-4.1107,-4.1107,-4.1068,-4.0851,-4.0711,-4.0568,-4.025,-3.9578,-3.9155,-3.8821,-3.8377,-3.8022,-3.7767,-3.7574,-3.7463,-3.7383,-5.1777,-5.2344,-5.2363,-5.287,-5.3573,-5.3339,-5.328,-5.3378,-5.2597,-5.2226,-5.207,-5.164,-5.1386,-5.1386,-5.1384,-5.1399,-5.1394,-5.1391,-5.1375,-5.1344,-5.131,-5.0926,-5.0371,-5.0023,-4.9696,-4.9175,-4.8827,-4.839,-4.7849,-4.7724,-4.7311,-4.662,-4.6498,-4.6362,-4.6231,-4.6213,-4.6212,-4.6206,-4.6187,-4.5965,-4.5568,-4.5416,-4.5141,-4.4725,-4.4604,-4.4579,-4.4619,-4.4626,-4.432,-4.3863,-4.395,-4.412,-4.4104,-4.4371,-4.4568,-4.4581,-4.4569,-4.4569,-4.4459,-4.4126,-4.3475,-4.3131,-4.2606,-4.2111,-4.1809,-4.1511,-4.1487,-4.177,-4.1177,-4.0854,-4.1193,-4.0938,-4.0546,-4.0496,-4.0496,-4.0496,-4.0496,-4.0496,-4.0496,-4.0496,-4.0496,-4.0496,-4.0496,-4.0496,-4.0496,-4.0496,-4.0496,-4.0523,-4.0546,-4.0591,-4.0648,-4.0713,-4.0779,-4.0868,-4.0954,-4.0984,-4.0984,-4.1025,-4.1062,-4.1085,-4.1107,-4.1107,-4.0971,-4.0968,-4.0867,-4.0809,-4.0253,-4.0204,-3.9953,-3.9435,-3.8844,-3.8556,-3.8341,-3.8397,-3.8268,-5.2519,-5.3926,-5.3965,-5.4355,-5.5019,-5.4375,-5.373,-5.2929,-5.209,-5.1758,-5.1621,-5.1484,-5.1387,-5.1387,-5.1386,-5.1402,-5.1398,-5.1394,-5.1385,-5.1377,-5.139,-5.1282,-5.1132,-5.0569,-5.0251,-5.0059,-4.9439,-4.897,-4.876,-4.8696,-4.8229,-4.7484,-4.7378,-4.7018,-4.6557,-4.6315,-4.6326,-4.6233,-4.6211,-4.6204,-4.62,-4.6155,-4.6147,-4.613,-4.6043,-4.5997,-4.5958,-4.5905,-4.5354,-4.4189,-4.4646,-4.4988,-4.5102,-4.5777,-4.6013,-4.5955,-4.615,-4.6006,-4.6024,-4.5564,-4.5278,-4.4588,-4.4268,-4.4314,-4.3239,-4.2366,-4.2001,-4.2169,-4.1434,-4.0875,-4.0887,-4.0814,-4.0728,-4.0546,-4.0512,-4.0496,-4.0496,-4.0496,-4.0496,-4.0496,-4.0496,-4.0496,-4.0496,-4.0504,-4.0504,-4.0496,-4.0504,-4.0546,-4.058,-4.0631,-4.0662,-4.0725,-4.0809,-4.0873,-4.0982,-4.0996,-4.0991,-4.1002,-4.1039,-4.1085,-4.1107,-4.1107,-4.1107,-4.1107,-4.1107,-4.1068,-4.1007,-4.0799,-4.06,-4.0087,-3.9633,-3.9291,-3.9198,-3.9271,-3.9146,-5.3574,-5.3984,-5.3984,-5.4512,-5.5234,-5.5019,-5.4824,-5.4512,-5.3633,-5.2793,-5.2344,-5.166,-5.1386,-5.1387,-5.1386,-5.1385,-5.1402,-5.1399,-5.1393,-5.1385,-5.1398,-5.1392,-5.1386,-5.1194,-5.1032,-5.0959,-5.0628,-5.0293,-4.9701,-4.9648,-4.9204,-4.8445,-4.8334,-4.796,-4.7333,-4.7145,-4.6876,-4.637,-4.6273,-4.6275,-4.6298,-4.6275,-4.6271,-4.6294,-4.6275,-4.6269,-4.626,-4.6237,-4.6083,-4.5644,-4.5699,-4.5852,-4.5793,-4.5985,-4.6079,-4.6134,-4.613,-4.6169,-4.6025,-4.5554,-4.5095,-4.4849,-4.428,-4.3804,-4.3568,-4.2685,-4.2529,-4.2733,-4.2288,-4.1656,-4.1652,-4.159,-4.1319,-4.0752,-4.0579,-4.0512,-4.0504,-4.0496,-4.0496,-4.0496,-4.0496,-4.0504,-4.0519,-4.0542,-4.0557,-4.0534,-4.053,-4.0579,-4.0631,-4.0666,-4.072,-4.0781,-4.0837,-4.0913,-4.0963,-4.098,-4.0999,-4.1006,-4.1039,-4.1088,-4.1107,-4.1107,-4.1107,-4.1107,-4.1107,-4.1088,-4.1088,-4.1007,-4.0773,-4.0555,-4.0468,-4.0201,-4.0158,-4.0163,-4.0066,-5.4219,-5.4551,-5.4551,-5.5039,-5.5742,-5.5449,-5.5293,-5.5039,-5.3965,-5.3203,-5.2578,-5.1777,-5.1386,-5.1387,-5.1386,-5.1386,-5.1385,-5.1401,-5.1396,-5.1389,-5.14,-5.1394,-5.139,-5.1399,-5.1396,-5.1381,-5.1366,-5.1046,-5.0653,-5.0573,-5.0092,-4.9393,-4.8984,-4.8404,-4.7563,-4.7178,-4.6846,-4.6378,-4.6302,-4.6302,-4.6302,-4.6302,-4.63,-4.63,-4.63,-4.6296,-4.6284,-4.625,-4.6234,-4.6118,-4.5871,-4.5654,-4.5615,-4.528,-4.5299,-4.5556,-4.5345,-4.5212,-4.5426,-4.4842,-4.4371,-4.4279,-4.3824,-4.367,-4.3459,-4.2782,-4.2555,-4.2736,-4.2141,-4.1709,-4.1595,-4.1534,-4.1241,-4.0784,-4.0622,-4.0574,-4.0574,-4.0581,-4.0574,-4.0566,-4.0564,-4.0564,-4.0586,-4.0588,-4.0588,-4.0588,-4.0615,-4.0648,-4.0681,-4.072,-4.0763,-4.0826,-4.0878,-4.093,-4.0984,-4.0995,-4.1029,-4.1036,-4.1059,-4.1107,-4.1107,-4.1107,-4.1107,-4.1107,-4.1107,-4.1107,-4.1107,-4.1107,-4.1029,-4.0929,-4.1039,-4.0997,-4.0818,-4.0694,-4.0616,-5.4726,-5.5449,-5.5449,-5.5879,-5.6387,-5.5781,-5.543,-5.5,-5.3691,-5.2891,-5.2519,-5.1777,-5.1406,-5.1387,-5.1387,-5.1386,-5.1385,-5.1401,-5.1395,-5.1387,-5.1398,-5.1394,-5.1394,-5.1392,-5.139,-5.1392,-5.1384,-5.1364,-5.1225,-5.1261,-5.0935,-5.0269,-4.9518,-4.8621,-4.7975,-4.712,-4.6554,-4.6339,-4.6302,-4.6302,-4.6302,-4.6302,-4.6302,-4.6302,-4.6302,-4.6296,-4.629,-4.6284,-4.6253,-4.6212,-4.5452,-4.5248,-4.505,-4.4286,-4.4348,-4.4803,-4.4501,-4.4195,-4.4643,-4.4237,-4.3671,-4.3724,-4.3682,-4.3622,-4.3447,-4.2813,-4.2334,-4.2432,-4.1607,-4.1403,-4.1276,-4.1033,-4.087,-4.0762,-4.0729,-4.0736,-4.073,-4.0732,-4.0713,-4.0713,-4.0636,-4.0642,-4.0662,-4.0681,-4.0655,-4.0681,-4.0713,-4.0738,-4.075,-4.0784,-4.0823,-4.0874,-4.0911,-4.0945,-4.0988,-4.1009,-4.1039,-4.1065,-4.1085,-4.1107,-4.1107,-4.1107,-4.1107,-4.1107,-4.1107,-4.1107,-4.1107,-4.1107,-4.1107,-4.1107,-4.1085,-4.1085,-4.1068,-4.0964,-4.0903,-5.6152,-5.6328,-5.6308,-5.6426,-5.6562,-5.6387,-5.5918,-5.5234,-5.4199,-5.3379,-5.2637,-5.1797,-5.1445,-5.1387,-5.1387,-5.1387,-5.1387,-5.1402,-5.1393,-5.1398,-5.1396,-5.1394,-5.1394,-5.1394,-5.1394,-5.1394,-5.1392,-5.1392,-5.139,-5.1367,-5.1308,-5.1058,-5.0608,-5.0042,-4.8679,-4.8213,-4.753,-4.6593,-4.6339,-4.6339,-4.6302,-4.6302,-4.6302,-4.6302,-4.6302,-4.63,-4.6296,-4.629,-4.6303,-4.6214,-4.602,-4.5787,-4.5504,-4.4865,-4.4793,-4.4991,-4.432,-4.3958,-4.4523,-4.4024,-4.3636,-4.3512,-4.3431,-4.3668,-4.3616,-4.2763,-4.2325,-4.2283,-4.2126,-4.1832,-4.1762,-4.1299,-4.1011,-4.0921,-4.0898,-4.0917,-4.0898,-4.0814,-4.073,-4.0706,-4.07,-4.0681,-4.0725,-4.0761,-4.0761,-4.0781,-4.0804,-4.0832,-4.0839,-4.084,-4.0869,-4.0924,-4.0968,-4.0995,-4.1022,-4.1036,-4.1062,-4.1088,-4.1107,-4.1107,-4.1107,-4.1107,-4.1107,-4.1107,-4.1107,-4.1107,-4.1107,-4.1107,-4.1107,-4.1107,-4.1107,-4.1107,-4.1107,-4.1107,-4.1088,-5.6621,-5.6621,-5.6621,-5.6621,-5.6621,-5.6601,-5.6348,-5.5801,-5.498,-5.4121,-5.3262,-5.2402,-5.1797,-5.1426,-5.1387,-5.1387,-5.1387,-5.1402,-5.1391,-5.1398,-5.1394,-5.1394,-5.1394,-5.1394,-5.1394,-5.1394,-5.1394,-5.1394,-5.1394,-5.1394,-5.1392,-5.1336,-5.1043,-5.028,-4.9442,-4.9032,-4.8115,-4.7198,-4.6905,-4.6749,-4.6378,-4.6302,-4.6302,-4.6302,-4.6302,-4.6302,-4.63,-4.6296,-4.629,-4.6303,-4.6253,-4.5827,-4.5016,-4.4239,-4.4047,-4.4053,-4.328,-4.2936,-4.329,-4.3006,-4.2446,-4.2538,-4.2498,-4.2475,-4.2429,-4.1969,-4.1805,-4.1744,-4.1713,-4.1718,-4.1711,-4.1403,-4.1061,-4.101,-4.0987,-4.0984,-4.0997,-4.0909,-4.0845,-4.0835,-4.081,-4.0824,-4.0849,-4.0849,-4.0859,-4.0883,-4.0893,-4.0917,-4.0926,-4.0924,-4.0941,-4.0984,-4.1022,-4.1036,-4.1059,-4.1081,-4.1085,-4.1107,-4.1107,-4.1107,-4.1107,-4.1107,-4.1107,-4.113,-4.1149,-4.1107,-4.1107,-4.1107,-4.1169,-4.113,-4.113,-4.111,-4.111,-4.111,-4.111,-5.6621,-5.6621,-5.6621,-5.6621,-5.6582,-5.6426,-5.6328,-5.6211,-5.5469,-5.4394,-5.3789,-5.2988,-5.2129,-5.1543,-5.1387,-5.1387,-5.1386,-5.1384,-5.1395,-5.14,-5.1398,-5.1396,-5.1394,-5.1394,-5.1394,-5.1394,-5.1394,-5.1394,-5.1394,-5.1394,-5.1394,-5.1277,-5.0768,-5.0338,-4.9967,-4.9423,-4.8662,-4.7881,-4.7764,-4.7373,-4.6749,-4.6573,-4.6554,-4.6302,-4.6302,-4.6302,-4.6302,-4.63,-4.6296,-4.6288,-4.6288,-4.5423,-4.4168,-4.3107,-4.2583,-4.2661,-4.1968,-4.1894,-4.2364,-4.1844,-4.1283,-4.1109,-4.1161,-4.1175,-4.1211,-4.1263,-4.1239,-4.12,-4.1215,-4.121,-4.1106,-4.1108,-4.1064,-4.1034,-4.1028,-4.1025,-4.1022,-4.1033,-4.0997,-4.0976,-4.0925,-4.0913,-4.0948,-4.0948,-4.098,-4.0988,-4.0996,-4.1003,-4.0988,-4.0995,-4.1022,-4.1025,-4.1059,-4.1062,-4.1085,-4.1094,-4.1117,-4.1328,-4.1289,-4.1406,-4.1464,-4.1848,-4.1926,-4.1286,-4.1208,-4.1308,-4.1451,-4.1574,-4.1532,-4.1292,-4.1139,-4.1106,-4.1103,-4.1117,-4.1117,-5.6621,-5.6621,-5.6621,-5.6621,-5.6504,-5.584,-5.5605,-5.5371,-5.4707,-5.373,-5.2988,-5.2734,-5.2226,-5.1601,-5.1406,-5.1406,-5.1523,-5.1462,-5.1399,-5.1389,-5.1385,-5.1384,-5.1394,-5.1394,-5.1394,-5.1394,-5.1394,-5.1394,-5.1394,-5.1394,-5.1394,-5.1375,-5.1219,-5.0848,-5.0319,-4.9889,-4.9462,-4.874,-4.8603,-4.8193,-4.7569,-4.7354,-4.7022,-4.6554,-4.6456,-4.6358,-4.6302,-4.6302,-4.63,-4.6298,-4.6298,-4.5711,-4.4809,-4.3905,-4.3511,-4.3103,-4.2134,-4.1788,-4.2158,-4.1672,-4.1207,-4.1109,-4.1106,-4.1106,-4.1106,-4.1104,-4.1101,-4.1101,-4.1101,-4.1099,-4.1109,-4.1113,-4.1099,-4.1095,-4.109,-4.1085,-4.1092,-4.1066,-4.1047,-4.1022,-4.101,-4.0997,-4.1009,-4.1002,-4.1006,-4.1009,-4.1013,-4.1039,-4.1062,-4.1065,-4.1085,-4.1088,-4.1107,-4.1107,-4.1107,-4.1123,-4.1187,-4.1632,-4.1785,-4.2081,-4.2308,-4.2903,-4.2841,-4.2153,-4.1944,-4.2161,-4.2206,-4.2192,-4.2195,-4.2173,-4.1707,-4.1203,-4.1315,-4.1449,-4.1198,-5.6621,-5.6621,-5.6621,-5.6621,-5.6523,-5.6152,-5.5703,-5.5273,-5.4844,-5.3926,-5.3008,-5.2656,-5.2226,-5.1699,-5.1933,-5.207,-5.1991,-5.1541,-5.142,-5.1393,-5.1389,-5.1385,-5.1394,-5.1394,-5.1394,-5.1394,-5.1394,-5.1394,-5.1394,-5.1394,-5.1394,-5.1394,-5.1394,-5.116,-5.0887,-5.077,-5.026,-4.9657,-4.944,-4.907,-4.831,-4.8232,-4.7764,-4.7217,-4.6905,-4.6749,-4.6339,-4.6302,-4.6302,-4.63,-4.6302,-4.5812,-4.5166,-4.4657,-4.4165,-4.3699,-4.2902,-4.2318,-4.2415,-4.1947,-4.1654,-4.1168,-4.1148,-4.1109,-4.1109,-4.1108,-4.1148,-4.1109,-4.1109,-4.1108,-4.1101,-4.1106,-4.1108,-4.1108,-4.1104,-4.1104,-4.1106,-4.1104,-4.1092,-4.1054,-4.105,-4.1061,-4.105,-4.1067,-4.1045,-4.1045,-4.1045,-4.1067,-4.1109,-4.1226,-4.1284,-4.1421,-4.1518,-4.1655,-4.1635,-4.1585,-4.1727,-4.2092,-4.2423,-4.2716,-4.3067,-4.3587,-4.3454,-4.2936,-4.2919,-4.3189,-4.3058,-4.3063,-4.3068,-4.3071,-4.2737,-4.2383,-4.1993,-4.1739,-4.1527,-5.6621,-5.6621,-5.6621,-5.6621,-5.6582,-5.6406,-5.5937,-5.539,-5.5273,-5.4277,-5.2851,-5.2832,-5.2402,-5.1777,-5.2012,-5.2441,-5.2596,-5.1933,-5.1754,-5.1749,-5.1725,-5.1642,-5.1419,-5.1394,-5.1394,-5.1394,-5.1394,-5.1394,-5.1394,-5.1394,-5.1394,-5.1394,-5.1394,-5.1394,-5.1336,-5.1238,-5.0867,-5.0612,-5.0338,-4.9928,-4.9267,-4.8857,-4.8525,-4.7879,-4.7684,-4.7237,-4.6729,-4.6378,-4.6321,-4.6302,-4.6243,-4.5987,-4.5402,-4.5265,-4.4933,-4.433,-4.394,-4.3333,-4.2923,-4.2689,-4.2435,-4.1986,-4.1732,-4.1675,-4.1617,-4.1674,-4.1342,-4.1168,-4.1109,-4.1109,-4.1108,-4.1109,-4.1109,-4.1109,-4.1109,-4.1109,-4.1108,-4.1108,-4.1108,-4.1101,-4.1099,-4.1111,-4.1096,-4.1091,-4.1069,-4.1081,-4.1078,-4.1081,-4.1161,-4.1537,-4.1674,-4.1871,-4.2047,-4.2281,-4.2322,-4.2283,-4.2559,-4.3005,-4.3317,-4.3612,-4.3885,-4.4234,-4.4044,-4.4083,-4.4275,-4.447,-4.4222,-4.3953,-4.396,-4.3921,-4.3821,-4.3312,-4.2475,-4.2124,-4.1989,-5.6621,-5.6621,-5.6621,-5.6621,-5.6504,-5.5859,-5.5449,-5.5332,-5.5293,-5.4297,-5.2754,-5.3359,-5.2832,-5.1875,-5.1601,-5.207,-5.25,-5.2676,-5.2558,-5.2535,-5.2434,-5.2058,-5.1543,-5.1398,-5.1394,-5.1394,-5.1394,-5.1394,-5.1394,-5.1394,-5.1394,-5.1394,-5.1394,-5.1394,-5.1394,-5.1394,-5.1355,-5.1238,-5.1199,-5.0789,-4.9989,-4.9306,-4.8935,-4.8545,-4.8055,-4.7567,-4.7215,-4.669,-4.6302,-4.6302,-4.6302,-4.6243,-4.6163,-4.6124,-4.6144,-4.5578,-4.474,-4.3666,-4.3587,-4.3548,-4.3411,-4.3118,-4.3159,-4.3333,-4.3001,-4.2513,-4.1967,-4.1129,-4.1168,-4.1129,-4.1148,-4.1109,-4.1109,-4.1109,-4.1109,-4.1109,-4.1109,-4.1109,-4.1109,-4.1109,-4.1104,-4.1101,-4.1111,-4.1109,-4.1107,-4.11,-4.1113,-4.1154,-4.1274,-4.1649,-4.2039,-4.2236,-4.2687,-4.296,-4.3136,-4.306,-4.345,-4.3934,-4.4111,-4.4426,-4.4777,-4.5089,-4.5555,-4.5614,-4.5672,-4.544,-4.5055,-4.4844,-4.483,-4.4751,-4.4631,-4.3716,-4.2588,-4.2451,-4.2662,-5.5703,-5.6601,-5.6621,-5.6621,-5.6562,-5.6172,-5.5742,-5.5351,-5.5273,-5.4336,-5.2988,-5.3066,-5.2793,-5.2168,-5.2148,-5.2637,-5.3281,-5.3437,-5.3437,-5.326,-5.2983,-5.2509,-5.2112,-5.1654,-5.1394,-5.1394,-5.1394,-5.1394,-5.1394,-5.1394,-5.1394,-5.1394,-5.1394,-5.1394,-5.1394,-5.1394,-5.1394,-5.1375,-5.1355,-5.1219,-5.0848,-5.0438,-5.0028,-4.952,-4.8701,-4.8113,-4.753,-4.6768,-4.6321,-4.6302,-4.6302,-4.6302,-4.6302,-4.6282,-4.6282,-4.6223,-4.5675,-4.4992,-4.4524,-4.4445,-4.4231,-4.384,-4.3744,-4.3627,-4.3608,-4.3372,-4.2767,-4.1947,-4.1849,-4.1674,-4.1285,-4.1109,-4.1109,-4.1148,-4.1382,-4.1304,-4.1285,-4.1129,-4.1109,-4.1109,-4.1147,-4.1241,-4.1296,-4.1277,-4.1255,-4.1175,-4.1386,-4.164,-4.1681,-4.1821,-4.2212,-4.2563,-4.3148,-4.3714,-4.3853,-4.3931,-4.4419,-4.4788,-4.4671,-4.5043,-4.5588,-4.6017,-4.6171,-4.6251,-4.6058,-4.5845,-4.5672,-4.5652,-4.5576,-4.5517,-4.546,-4.4543,-4.3704,-4.3821,-4.3895,-5.457,-5.5937,-5.6191,-5.6406,-5.6582,-5.6621,-5.623,-5.5664,-5.539,-5.4453,-5.3281,-5.2851,-5.2734,-5.2793,-5.293,-5.3496,-5.4297,-5.4316,-5.4316,-5.4022,-5.3492,-5.2961,-5.2447,-5.1874,-5.1398,-5.1394,-5.1394,-5.1394,-5.1394,-5.1394,-5.1394,-5.1394,-5.1394,-5.1394,-5.1394,-5.1394,-5.1394,-5.1394,-5.1394,-5.1355,-5.1297,-5.1316,-5.0945,-5.0282,-4.9423,-4.8505,-4.7861,-4.6807,-4.6321,-4.6302,-4.6302,-4.6302,-4.6302,-4.6302,-4.6302,-4.6282,-4.6046,-4.587,-4.548,-4.5265,-4.4933,-4.4602,-4.4291,-4.4486,-4.4094,-4.3997,-4.3665,-4.2806,-4.2728,-4.2357,-4.1949,-4.1851,-4.1968,-4.2027,-4.1968,-4.1812,-4.1693,-4.1674,-4.1654,-4.1674,-4.1693,-4.1596,-4.1614,-4.1537,-4.1439,-4.1303,-4.1558,-4.1986,-4.2162,-4.222,-4.2707,-4.3193,-4.3817,-4.4364,-4.4481,-4.4756,-4.5285,-4.554,-4.5402,-4.5519,-4.5964,-4.6083,-4.6081,-4.6163,-4.6184,-4.5909,-4.5517,-4.5929,-4.6282,-4.6046,-4.5812,-4.5578,-4.5187,-4.5187,-4.4953,-5.334,-5.4238,-5.5039,-5.582,-5.6562,-5.6621,-5.6523,-5.6211,-5.5625,-5.4844,-5.3887,-5.3105,-5.2695,-5.2851,-5.3379,-5.4121,-5.5117,-5.5195,-5.5176,-5.4883,-5.4335,-5.3609,-5.296,-5.2211,-5.1501,-5.1494,-5.1453,-5.1394,-5.1394,-5.1394,-5.1394,-5.1394,-5.1394,-5.1394,-5.1394,-5.1394,-5.1394,-5.1394,-5.1394,-5.1394,-5.1394,-5.1394,-5.1316,-5.0906,-4.9755,-4.874,-4.8623,-4.7159,-4.6302,-4.6302,-4.6302,-4.6302,-4.6302,-4.6302,-4.6302,-4.6302,-4.6302,-4.6184,-4.6027,-4.5987,-4.6105,-4.6085,-4.589,-4.55,-4.4992,-4.4894,-4.4465,-4.3762,-4.3626,-4.3489,-4.3391,-4.3491,-4.3081,-4.2983,-4.2846,-4.2866,-4.2708,-4.2454,-4.2415,-4.2357,-4.2279,-4.222,-4.2357,-4.2396,-4.1947,-4.1771,-4.1519,-4.1908,-4.2591,-4.2825,-4.343,-4.3975,-4.46,-4.4971,-4.507,-4.5402,-4.5812,-4.595,-4.589,-4.5968,-4.6202,-4.6184,-4.6105,-4.589,-4.5831,-4.5597,-4.546,-4.5734,-4.5987,-4.6204,-4.6144,-4.589,-4.5656,-4.546,-4.5304,-5.2402,-5.3242,-5.3574,-5.4531,-5.582,-5.5801,-5.5801,-5.584,-5.5996,-5.5605,-5.4668,-5.3398,-5.2695,-5.2851,-5.2988,-5.3672,-5.4492,-5.5098,-5.5508,-5.5683,-5.5233,-5.4645,-5.3879,-5.2976,-5.2205,-5.2042,-5.1726,-5.1394,-5.1394,-5.1394,-5.1394,-5.1394,-5.1394,-5.1394,-5.1394,-5.1394,-5.1394,-5.1394,-5.1394,-5.1394,-5.1394,-5.1394,-5.1394,-5.1238,-4.9716,-4.8896,-4.8545,-4.7159,-4.6554,-4.6321,-4.6341,-4.6341,-4.6302,-4.6302,-4.6302,-4.6302,-4.6302,-4.6302,-4.6302,-4.6302,-4.6302,-4.6302,-4.6262,-4.6144,-4.5714,-4.5773,-4.5324,-4.4836,-4.4504,-4.4406,-4.3783,-4.3686,-4.3588,-4.3686,-4.3783,-4.3881,-4.3743,-4.345,-4.3079,-4.2982,-4.2962,-4.2942,-4.3157,-4.337,-4.2806,-4.2279,-4.1986,-4.1947,-4.2767,-4.3274,-4.3782,-4.4348,-4.4914,-4.5382,-4.548,-4.5851,-4.6282,-4.6302,-4.6302,-4.6302,-4.6302,-4.6282,-4.6163,-4.5851,-4.5617,-4.5578,-4.5539,-4.5539,-4.5753,-4.6144,-4.6262,-4.6184,-4.5948,-4.5734,-4.5578,-5.1758,-5.2305,-5.2324,-5.332,-5.4844,-5.5195,-5.5293,-5.541,-5.5898,-5.5723,-5.4863,-5.3808,-5.3301,-5.3223,-5.3476,-5.3574,-5.4199,-5.4648,-5.539,-5.5469,-5.5253,-5.5134,-5.4623,-5.374,-5.2561,-5.2495,-5.1884,-5.1394,-5.1394,-5.1394,-5.1394,-5.1394,-5.1394,-5.1394,-5.1394,-5.1394,-5.1394,-5.1394,-5.1394,-5.1394,-5.1394,-5.1394,-5.1394,-5.1238,-4.9989,-4.9384,-4.8993,-4.8037,-4.7139,-4.6885,-4.6729,-4.6554,-4.6397,-4.6302,-4.6302,-4.6302,-4.6302,-4.6302,-4.6302,-4.6302,-4.6302,-4.6302,-4.6302,-4.6302,-4.6302,-4.6302,-4.5831,-4.5539,-4.5363,-4.5109,-4.4408,-4.4681,-4.4758,-4.4914,-4.4894,-4.4933,-4.4699,-4.4426,-4.3957,-4.3604,-4.3704,-4.3899,-4.3977,-4.419,-4.3977,-4.3391,-4.2962,-4.3001,-4.3528,-4.386,-4.386,-4.4426,-4.5031,-4.546,-4.5831,-4.6085,-4.6282,-4.6302,-4.6302,-4.6302,-4.6302,-4.6302,-4.6048,-4.5597,-4.546,-4.5578,-4.562,-4.5623,-4.5875,-4.6204,-4.6243,-4.6266,-4.6223,-4.5987,-4.5812,-5.1426,-5.1406,-5.1465,-5.2461,-5.4043,-5.4902,-5.5215,-5.5176,-5.5351,-5.5019,-5.4433,-5.4629,-5.4433,-5.4004,-5.4043,-5.3984,-5.3808,-5.3965,-5.4492,-5.4922,-5.4668,-5.4648,-5.449,-5.3823,-5.3074,-5.2581,-5.2183,-5.1845,-5.1511,-5.1629,-5.157,-5.1394,-5.1394,-5.1394,-5.1394,-5.1394,-5.1394,-5.1394,-5.1394,-5.1394,-5.1394,-5.1394,-5.1394,-5.116,-5.0418,-4.9831,-4.9558,-4.8837,-4.8017,-4.7627,-4.7391,-4.7081,-4.6593,-4.638,-4.6321,-4.6302,-4.6302,-4.6302,-4.6302,-4.6302,-4.6302,-4.6302,-4.6302,-4.6302,-4.6302,-4.6282,-4.6282,-4.5948,-4.6046,-4.6124,-4.6087,-4.6085,-4.5929,-4.5851,-4.5792,-4.5714,-4.546,-4.5324,-4.4836,-4.4387,-4.468,-4.4972,-4.4972,-4.4992,-4.4992,-4.4621,-4.4075,-4.4055,-4.427,-4.4406,-4.4289,-4.4641,-4.5246,-4.5578,-4.5929,-4.6124,-4.6282,-4.6282,-4.6302,-4.6302,-4.6303,-4.6305,-4.5932,-4.5404,-4.5351,-4.5534,-4.5631,-4.5708,-4.6002,-4.6257,-4.627,-4.6288,-4.6305,-4.6209,-4.5959,-5.1387,-5.1387,-5.1387,-5.2051,-5.3105,-5.3437,-5.3887,-5.4492,-5.498,-5.5137,-5.4824,-5.4668,-5.3965,-5.3359,-5.2949,-5.3047,-5.3164,-5.3164,-5.3594,-5.4316,-5.416,-5.4609,-5.4666,-5.4352,-5.386,-5.4048,-5.3572,-5.263,-5.2292,-5.2253,-5.1824,-5.157,-5.1511,-5.1394,-5.1394,-5.1394,-5.1394,-5.1394,-5.1394,-5.1394,-5.1394,-5.1394,-5.1394,-5.1355,-5.0573,-5.0202,-5.0143,-4.9364,-4.872,-4.8252,-4.7977,-4.7372,-4.6924,-4.669,-4.6302,-4.6302,-4.6302,-4.6302,-4.6302,-4.6302,-4.6302,-4.6302,-4.6302,-4.6302,-4.6302,-4.6302,-4.6302,-4.6302,-4.6302,-4.6302,-4.6243,-4.6223,-4.6144,-4.6163,-4.6124,-4.6144,-4.6009,-4.5948,-4.5675,-4.5285,-4.5304,-4.5617,-4.5753,-4.5597,-4.5578,-4.5324,-4.4738,-4.4192,-4.4231,-4.4641,-4.4777,-4.5051,-4.546,-4.5753,-4.6027,-4.6184,-4.6282,-4.6282,-4.6302,-4.6302,-4.6303,-4.6291,-4.6178,-4.5848,-4.5638,-4.5485,-4.5759,-4.5994,-4.615,-4.6287,-4.6287,-4.6285,-4.6302,-4.6168,-4.5936,-5.1387,-5.1387,-5.1387,-5.1894,-5.2676,-5.3027,-5.3789,-5.4844,-5.5508,-5.5762,-5.5625,-5.5137,-5.4277,-5.332,-5.2656,-5.1894,-5.2363,-5.2617,-5.3183,-5.3945,-5.4375,-5.5019,-5.5273,-5.4901,-5.4743,-5.499,-5.4476,-5.3611,-5.3159,-5.3134,-5.2683,-5.2097,-5.1824,-5.1687,-5.157,-5.1394,-5.1394,-5.1394,-5.1394,-5.1394,-5.1394,-5.1394,-5.1394,-5.1258,-5.0926,-5.0592,-5.034,-4.9813,-4.9111,-4.874,-4.8172,-4.7508,-4.7139,-4.6729,-4.6302,-4.6302,-4.6302,-4.6302,-4.6302,-4.6302,-4.6302,-4.6302,-4.6302,-4.6302,-4.6302,-4.6302,-4.6302,-4.6302,-4.6302,-4.6302,-4.6302,-4.6302,-4.6302,-4.6302,-4.6302,-4.6302,-4.6282,-4.6204,-4.6145,-4.5792,-4.5735,-4.6087,-4.6302,-4.6243,-4.6105,-4.5755,-4.5345,-4.4855,-4.4445,-4.4914,-4.5324,-4.5539,-4.5714,-4.5968,-4.6144,-4.6223,-4.6302,-4.6302,-4.6305,-4.629,-4.6295,-4.6301,-4.6304,-4.6286,-4.6034,-4.5918,-4.6113,-4.6288,-4.6287,-4.6285,-4.6282,-4.6286,-4.6289,-4.6152,-4.5974,-5.1387,-5.1387,-5.1387,-5.1933,-5.2812,-5.3691,-5.4941,-5.6445,-5.6543,-5.6504,-5.6465,-5.6289,-5.5273,-5.4121,-5.3867,-5.3125,-5.2226,-5.2617,-5.3242,-5.3984,-5.4531,-5.543,-5.5781,-5.5546,-5.5369,-5.5074,-5.4758,-5.4517,-5.4083,-5.3787,-5.3333,-5.2899,-5.2745,-5.2433,-5.2062,-5.1748,-5.1629,-5.1472,-5.1394,-5.1394,-5.1394,-5.1394,-5.1394,-5.1316,-5.1219,-5.116,-5.0965,-5.0535,-4.9833,-4.915,-4.831,-4.7432,-4.6788,-4.6378,-4.6339,-4.6302,-4.6302,-4.6302,-4.6302,-4.6302,-4.6302,-4.6302,-4.6302,-4.6302,-4.6302,-4.6302,-4.6302,-4.6302,-4.6302,-4.6302,-4.6302,-4.6302,-4.6302,-4.6302,-4.6302,-4.6302,-4.6302,-4.6282,-4.6282,-4.6167,-4.6149,-4.6306,-4.6306,-4.6305,-4.6303,-4.6147,-4.5854,-4.5814,-4.5521,-4.5618,-4.5948,-4.5968,-4.6124,-4.6204,-4.6302,-4.6305,-4.6288,-4.629,-4.6299,-4.6302,-4.6305,-4.6288,-4.6289,-4.6288,-4.6289,-4.6287,-4.6276,-4.627,-4.6272,-4.6264,-4.6251,-4.6245,-4.6257,-4.6258,-4.6061,-5.1387,-5.1387,-5.1387,-5.2266,-5.3652,-5.4551,-5.5254,-5.5723,-5.6289,-5.6308,-5.5683,-5.5683,-5.5156,-5.4043,-5.3965,-5.3633,-5.3496,-5.3496,-5.3691,-5.416,-5.4609,-5.5039,-5.5371,-5.5566,-5.5683,-5.5936,-5.5836,-5.5364,-5.4873,-5.4479,-5.4065,-5.3652,-5.3611,-5.3377,-5.3043,-5.2628,-5.2101,-5.165,-5.1552,-5.1394,-5.1394,-5.1394,-5.1394,-5.1394,-5.1394,-5.1394,-5.1238,-5.0984,-5.0496,-5.0418,-4.9714,-4.8953,-4.8174,-4.7549,-4.71,-4.636,-4.6302,-4.6302,-4.6302,-4.6302,-4.6302,-4.6302,-4.6302,-4.6302,-4.6302,-4.6302,-4.6302,-4.6303,-4.6305,-4.6305,-4.6305,-4.6305,-4.6305,-4.6305,-4.6305,-4.6305,-4.6305,-4.6305,-4.6306,-4.629,-4.6291,-4.6294,-4.6294,-4.629,-4.6288,-4.6288,-4.6306,-4.6303,-4.6303,-4.6305,-4.6305,-4.6305,-4.629,-4.6293,-4.6291,-4.6293,-4.6295,-4.63,-4.6305,-4.6289,-4.6289,-4.6268,-4.6262,-4.6256,-4.6249,-4.6232,-4.6223,-4.6226,-4.624,-4.6223,-4.6228,-4.6209,-4.6204,-4.6206,-4.6087,-5.0625,-5.0918,-5.0918,-5.1914,-5.3516,-5.4785,-5.5293,-5.541,-5.5859,-5.5898,-5.582,-5.5859,-5.5332,-5.4648,-5.4531,-5.4316,-5.3984,-5.4316,-5.4551,-5.4629,-5.4805,-5.5449,-5.5742,-5.582,-5.6094,-5.6483,-5.6561,-5.6188,-5.5718,-5.5364,-5.497,-5.4518,-5.4499,-5.4284,-5.3912,-5.3402,-5.3029,-5.242,-5.1927,-5.1533,-5.1414,-5.1414,-5.1394,-5.1394,-5.1394,-5.1394,-5.1258,-5.1023,-5.0633,-5.0614,-4.987,-4.9128,-4.8603,-4.8252,-4.7686,-4.7061,-4.6885,-4.6632,-4.6419,-4.6305,-4.6305,-4.6306,-4.629,-4.6291,-4.629,-4.629,-4.6288,-4.6287,-4.629,-4.6291,-4.6291,-4.6291,-4.6291,-4.6291,-4.6291,-4.6291,-4.6291,-4.6291,-4.6294,-4.6296,-4.6299,-4.6301,-4.63,-4.6296,-4.6293,-4.629,-4.629,-4.6288,-4.6291,-4.6294,-4.6294,-4.6294,-4.6299,-4.6302,-4.6301,-4.6301,-4.6305,-4.6288,-4.6289,-4.6288,-4.6265,-4.6235,-4.6218,-4.6216,-4.6212,-4.6193,-4.618,-4.6203,-4.6213,-4.6192,-4.6177,-4.615,-4.6144,-4.6151,-4.5946,-4.9375,-5.0117,-5.0254,-5.125,-5.2734,-5.4297,-5.5039,-5.5195,-5.5195,-5.5723,-5.6387,-5.6582,-5.6094,-5.5469,-5.539,-5.5058,-5.4922,-5.5156,-5.541,-5.539,-5.5898,-5.6308,-5.6367,-5.6582,-5.6465,-5.6562,-5.6581,-5.6522,-5.6579,-5.6226,-5.5796,-5.5423,-5.5403,-5.5168,-5.4661,-5.4268,-5.3896,-5.3366,-5.2441,-5.171,-5.1593,-5.1513,-5.1394,-5.1394,-5.1394,-5.1355,-5.1004,-5.0301,-4.9364,-4.9401,-4.9128,-4.8562,-4.8369,-4.8701,-4.8213,-4.7783,-4.743,-4.7141,-4.6695,-4.6447,-4.6316,-4.6299,-4.6301,-4.6285,-4.6266,-4.6297,-4.6295,-4.6294,-4.6296,-4.6297,-4.6297,-4.6297,-4.6297,-4.6297,-4.6297,-4.6297,-4.6297,-4.6299,-4.6301,-4.6303,-4.6305,-4.6306,-4.6288,-4.6287,-4.6287,-4.6281,-4.6299,-4.6299,-4.6283,-4.6286,-4.6324,-4.6324,-4.6305,-4.6288,-4.6288,-4.6289,-4.6289,-4.6288,-4.6284,-4.6273,-4.6239,-4.6199,-4.6173,-4.6164,-4.6154,-4.6158,-4.6154,-4.615,-4.6142,-4.6142,-4.6102,-4.6099,-4.608,-4.6074,-4.5987,-4.8942,-4.9274,-5.0566,-5.1387,-5.1836,-5.2851,-5.373,-5.4297,-5.4316,-5.5156,-5.6387,-5.6562,-5.6504,-5.623,-5.6172,-5.5957,-5.6015,-5.5879,-5.623,-5.6211,-5.6543,-5.6601,-5.6621,-5.6621,-5.6621,-5.6621,-5.6621,-5.662,-5.662,-5.6561,-5.6541,-5.6286,-5.6207,-5.5915,-5.57,-5.5327,-5.4759,-5.429,-5.3153,-5.2423,-5.2363,-5.1751,-5.1394,-5.1394,-5.1394,-5.1394,-5.118,-5.1043,-5.0809,-5.0848,-5.0065,-4.9089,-4.7996,-4.8545,-4.8369,-4.7781,-4.7687,-4.746,-4.7016,-4.6594,-4.6384,-4.6328,-4.6308,-4.6249,-4.623,-4.6267,-4.6301,-4.6301,-4.6283,-4.6284,-4.6284,-4.6284,-4.6284,-4.6284,-4.6284,-4.6284,-4.6284,-4.6286,-4.6287,-4.6288,-4.6288,-4.6289,-4.6289,-4.6289,-4.6269,-4.6269,-4.6289,-4.6289,-4.6249,-4.6247,-4.6404,-4.6405,-4.6308,-4.6289,-4.6288,-4.6284,-4.6259,-4.6252,-4.6239,-4.6219,-4.6212,-4.6164,-4.6111,-4.6102,-4.6095,-4.6104,-4.6084,-4.6037,-4.6037,-4.6047,-4.6032,-4.6021,-4.6,-4.5986,-4.5975,-4.7877,-4.8426,-5.0094,-5.1053,-5.1522,-5.2344,-5.2988,-5.3437,-5.3828,-5.4531,-5.5527,-5.6191,-5.6601,-5.6601,-5.6621,-5.6621,-5.6621,-5.6601,-5.6523,-5.6582,-5.6621,-5.6601,-5.6621,-5.6621,-5.6621,-5.6621,-5.6621,-5.6621,-5.6621,-5.6601,-5.6601,-5.6601,-5.6601,-5.6543,-5.6504,-5.6015,-5.5566,-5.5154,-5.3861,-5.3311,-5.3054,-5.2166,-5.1472,-5.1394,-5.1394,-5.1394,-5.1219,-5.116,-5.1086,-5.1206,-5.0819,-5.0466,-4.9786,-4.9946,-4.9341,-4.8561,-4.8115,-4.7806,-4.7224,-4.6738,-4.6523,-4.6598,-4.6301,-4.6238,-4.6725,-4.6754,-4.6268,-4.6248,-4.6247,-4.6247,-4.6247,-4.6247,-4.6247,-4.6247,-4.6247,-4.6247,-4.6247,-4.6246,-4.6245,-4.6245,-4.6244,-4.6243,-4.624,-4.6243,-4.6224,-4.6225,-4.6245,-4.6261,-4.6215,-4.6378,-4.65,-4.6562,-4.6509,-4.6332,-4.6243,-4.6232,-4.6221,-4.6209,-4.6198,-4.6177,-4.615,-4.6102,-4.6056,-4.6047,-4.6037,-4.6017,-4.6007,-4.5991,-4.598,-4.6016,-4.5994,-4.5941,-4.5917,-4.5925,-4.5899,-4.6846,-4.7845,-4.9323,-5.0519,-5.1436,-5.2185,-5.2598,-5.2832,-5.3476,-5.3887,-5.4277,-5.5605,-5.623,-5.6426,-5.6601,-5.6601,-5.6621,-5.6621,-5.6621,-5.6621,-5.6621,-5.6621,-5.6621,-5.6621,-5.6621,-5.6621,-5.6621,-5.6621,-5.6621,-5.6621,-5.6601,-5.6582,-5.6484,-5.6406,-5.6426,-5.6367,-5.5996,-5.5449,-5.4608,-5.404,-5.3273,-5.2324,-5.1654,-5.1396,-5.1394,-5.1394,-5.1123,-5.0949,-5.0855,-5.1018,-5.1257,-5.077,-5.0714,-5.0581,-5.0133,-4.9392,-4.8984,-4.8359,-4.7499,-4.6908,-4.7021,-4.7035,-4.6555,-4.6509,-4.6997,-4.6821,-4.6339,-4.6204,-4.62,-4.6225,-4.6225,-4.6206,-4.6206,-4.6223,-4.6223,-4.6223,-4.6223,-4.6204,-4.6204,-4.6204,-4.6204,-4.6202,-4.6202,-4.6207,-4.6209,-4.6212,-4.6228,-4.6204,-4.6292,-4.6623,-4.685,-4.6877,-4.6875,-4.6651,-4.644,-4.6186,-4.618,-4.6164,-4.6153,-4.6127,-4.6102,-4.6047,-4.6017,-4.6007,-4.6002,-4.5991,-4.598,-4.5969,-4.5978,-4.5972,-4.5943,-4.5918,-4.5906,-4.5887,-4.5867,-4.7125,-4.8585,-4.894,-4.9936,-5.1283,-5.1581,-5.2017,-5.2651,-5.2846,-5.3318,-5.3848,-5.4219,-5.4824,-5.5566,-5.6348,-5.6543,-5.6406,-5.6504,-5.6601,-5.6621,-5.6582,-5.6601,-5.6582,-5.6523,-5.6601,-5.6621,-5.6621,-5.6621,-5.6621,-5.6621,-5.6601,-5.6601,-5.584,-5.5664,-5.5586,-5.5586,-5.5527,-5.5137,-5.5019,-5.449,-5.3043,-5.2177,-5.1579,-5.1398,-5.1394,-5.14,-5.1325,-5.125,-5.1274,-5.1337,-5.1341,-5.0756,-5.0603,-5.08,-5.0566,-5.0038,-4.9662,-4.9326,-4.852,-4.7687,-4.7739,-4.7674,-4.715,-4.649,-4.6699,-4.6554,-4.6251,-4.6195,-4.6201,-4.6269,-4.6271,-4.6212,-4.6193,-4.6249,-4.6267,-4.6306,-4.6306,-4.6249,-4.6191,-4.6191,-4.6193,-4.6184,-4.6192,-4.6175,-4.6192,-4.6231,-4.634,-4.6351,-4.6495,-4.6826,-4.7256,-4.7315,-4.7371,-4.7256,-4.7163,-4.6329,-4.6146,-4.6127,-4.6106,-4.6089,-4.6047,-4.6022,-4.6002,-4.5991,-4.6,-4.5989,-4.5978,-4.5941,-4.5929,-4.5937,-4.5925,-4.5906,-4.5874,-4.586,-4.5847]},{"header":{"parameterUnit":"m.s-1","parameterCategory":1,"la1":31.0,"la2":29.5877,"lo1":-88.7671,"lo2":-86.6584,"dy":0.0162,"dx":0.0185,"nx":115,"ny":88,"refTime":"2023-11-06T06:00:00:Z","depth":0,"parameterNumber":3,"parameterNumberName":"V-component_of_WINDS"},"data":[0.0,0.0,0.0,0.0,0.0,0.0,0.0,0.0,0.0,0.0,0.0,0.0,0.0,0.0,0.0,0.0,0.0,0.0,0.0,0.0,0.0,0.0,0.0,0.0,0.0,0.0,0.0,0.0,0.0,0.0,0.0,0.0,0.0,0.0,0.0,0.0,0.0,0.0,0.0,0.0,0.0,0.0,0.0,0.0,0.0,0.0,0.0,0.0,0.0,0.0,0.0,0.0,0.0,0.0,0.0,0.0,0.0,0.0,0.0,0.0,0.0,0.0,0.0,0.0,0.0,0.0,0.0,0.0,0.0,0.0,0.0,0.0,0.0,0.0,0.0,0.0,0.0,0.0,0.0,0.0,0.0,0.0,0.0,0.0,0.0,0.0,0.0,0.0,0.0,0.0,0.0,0.0,0.0,0.0,0.0,0.0,0.0,0.0,0.0,0.0,0.0,0.0,0.0,0.0,0.0,0.0,0.0,0.0,0.0,0.0,0.0,0.0,0.0,0.0,0.0,0.0,0.0,0.0,0.0,0.0,0.0,0.0,0.0,0.0,0.0,0.0,0.0,0.0,0.0,0.0,0.0,0.0,0.0,0.0,0.0,0.0,0.0,0.0,0.0,0.0,0.0,0.0,0.0,0.0,0.0,0.0,0.0,0.0,0.0,0.0,0.0,0.0,0.0,0.0,0.0,0.0,0.0,0.0,0.0,0.0,0.0,0.0,0.0,0.0,0.0,0.0,0.0,0.0,0.0,0.0,0.0,0.0,0.0,0.0,0.0,0.0,0.0,0.0,0.0,0.0,0.0,0.0,0.0,0.0,0.0,0.0,0.0,0.0,0.0,0.0,0.0,0.0,0.0,0.0,0.0,0.0,0.0,0.0,0.0,0.0,0.0,0.0,0.0,0.0,0.0,0.0,0.0,0.0,0.0,0.0,0.0,0.0,0.0,0.0,0.0,0.0,0.0,0.0,0.0,0.0,0.0,0.0,0.0,0.0,0.0,0.0,0.0,0.0,0.0,0.0,0.0,0.0,0.0,0.0,0.0,0.0,0.0,0.0,0.0,0.0,0.0,0.0,0.0,0.0,0.0,0.0,0.0,0.0,0.0,0.0,0.0,0.0,0.0,0.0,0.0,0.0,0.0,0.0,0.0,0.0,0.0,0.0,0.0,0.0,0.0,0.0,0.0,0.0,0.0,0.0,0.0,0.0,0.0,0.0,0.0,0.0,0.0,0.0,0.0,0.0,0.0,0.0,0.0,0.0,0.0,0.0,0.0,0.0,0.0,0.0,0.0,0.0,0.0,0.0,0.0,0.0,0.0,0.0,0.0,0.0,0.0,0.0,0.0,0.0,0.0,0.0,0.0,0.0,0.0,0.0,0.0,0.0,0.0,0.0,0.0,0.0,0.0,0.0,0.0,0.0,0.0,0.0,0.0,0.0,0.0,0.0,0.0,0.0,0.0,0.0,0.0,0.0,0.0,0.0,0.0,0.0,0.0,0.0,0.0,0.0,0.0,0.0,0.0,0.0,0.0,0.0,0.0,0.0,0.0,0.0,0.0,0.0,0.0,0.0,0.0,0.0,0.0,0.0,0.0,0.0,0.0,0.0,0.0,0.0,0.0,0.0,0.0,0.0,0.0,0.0,0.0,0.0,0.0,0.0,0.0,0.0,0.0,0.0,0.0,0.0,0.0,0.0,0.0,0.0,0.0,0.0,0.0,0.0,0.0,0.0,0.0,0.0,0.0,0.0,0.0,0.0,0.0,0.0,0.0,0.0,0.0,0.0,0.0,0.0,0.0,0.0,0.0,0.0,0.0,0.0,0.0,0.0,0.0,0.0,0.0,0.0,0.0,0.0,0.0,0.0,0.0,0.0,0.0,0.0,0.0,0.0,0.0,0.0,0.0,0.0,0.0,0.0,0.0,0.0,0.0,0.0,0.0,0.0,0.0,0.0,0.0,0.0,0.0,0.0,0.0,0.0,0.0,0.0,0.0,0.0,0.0,0.0,0.0,0.0,0.0,0.0,0.0,0.0,0.0,0.0,0.0,0.0,0.0,0.0,0.0,0.0,0.0,0.0,0.0,0.0,0.0,0.0,0.0,0.0,0.0,0.0,0.0,0.0,0.0,0.0,0.0,0.0,0.0,0.0,0.0,0.0,0.0,0.0,0.0,0.0,0.0,0.0,0.0,0.0,0.0,0.0,0.0,0.0,0.0,0.0,0.0,0.0,0.0,0.0,0.0,0.0,0.0,0.0,0.0,0.0,0.0,0.0,0.0,0.0,0.0,0.0,0.0,0.0,0.0,0.0,0.0,0.0,0.0,0.0,0.0,0.0,0.0,0.0,0.0,0.0,0.0,0.0,0.0,0.0,0.0,0.0,0.0,0.0,0.0,0.0,0.0,0.0,0.0,0.0,0.0,0.0,0.0,0.0,0.0,0.0,0.0,0.0,0.0,0.0,0.0,0.0,0.0,0.0,0.0,0.0,0.0,0.0,0.0,0.0,0.0,0.0,0.0,0.0,0.0,0.0,0.0,0.0,0.0,0.0,0.0,0.0,0.0,0.0,0.0,0.0,0.0,0.0,0.0,0.0,0.0,0.0,0.0,0.0,0.0,0.0,0.0,0.0,0.0,0.0,0.0,0.0,0.0,0.0,0.0,0.0,0.0,0.0,0.0,0.0,0.0,0.0,0.0,0.0,0.0,0.0,0.0,0.0,0.0,0.0,0.0,0.0,0.0,0.0,0.0,0.0,0.0,0.0,0.0,0.0,0.0,0.0,0.0,0.0,0.0,0.0,0.0,0.0,0.0,0.0,0.0,0.0,0.0,0.0,0.0,0.0,0.0,0.0,0.0,0.0,0.0,0.0,0.0,0.0,0.0,0.0,0.0,0.0,0.0,0.0,0.0,0.0,0.0,0.0,0.0,0.0,0.0,0.0,0.0,0.0,0.0,0.0,0.0,0.0,0.0,0.0,0.0,0.0,0.0,0.0,0.0,0.0,0.0,0.0,0.0,0.0,0.0,0.0,0.0,0.0,0.0,0.0,0.0,0.0,0.0,0.0,0.0,0.0,0.0,0.0,0.0,0.0,0.0,0.0,0.0,0.0,0.0,0.0,0.0,0.0,0.0,0.0,0.0,0.0,0.0,0.0,0.0,0.0,0.0,0.0,0.0,0.0,0.0,0.0,0.0,0.0,0.0,0.0,0.0,0.0,0.0,0.0,0.0,0.0,0.0,0.0,0.0,0.0,0.0,0.0,0.0,0.0,0.0,0.0,0.0,0.0,0.0,0.0,0.0,0.0,0.0,0.0,0.0,0.0,0.0,0.0,0.0,0.0,0.0,0.0,0.0,0.0,0.0,0.0,0.0,0.0,0.0,0.0,0.0,0.0,0.0,0.0,0.0,0.0,0.0,0.0,0.0,0.0,0.0,0.0,0.0,0.0,0.0,0.0,0.0,0.0,0.0,0.0,0.0,0.0,0.0,0.0,0.0,0.0,0.0,0.0,0.0,0.0,0.0,0.0,0.0,0.0,0.0,0.0,0.0,0.0,0.0,0.0,0.0,0.0,0.0,0.0,0.0,0.0,0.0,0.0,0.0,0.0,0.0,0.0,0.0,0.0,0.0,0.0,0.0,0.0,0.0,0.0,0.0,0.0,0.0,0.0,0.0,0.0,0.0,0.0,0.0,0.0,0.0,0.0,0.0,0.0,0.0,0.0,0.0,0.0,0.0,0.0,0.0,0.0,0.0,0.0,0.0,0.0,0.0,0.0,0.0,0.0,0.0,0.0,0.0,0.0,0.0,0.0,0.0,0.0,0.0,0.0,0.0,0.0,0.0,0.0,0.0,0.0,0.0,0.0,0.0,0.0,0.0,0.0,0.0,0.0,0.0,0.0,0.0,0.0,0.0,0.0,0.0,0.0,0.0,0.0,0.0,0.0,0.0,0.0,0.0,0.0,0.0,0.0,0.0,0.0,0.0,0.0,0.0,0.0,0.0,0.0,0.0,0.0,0.0,0.0,0.0,0.0,0.0,0.0,0.0,0.0,0.0,0.0,0.0,0.0,0.0,0.0,0.0,0.0,0.0,0.0,0.0,0.0,0.0,0.0,0.0,0.0,0.0,0.0,0.0,0.0,0.0,0.0,0.0,0.0,0.0,0.0,0.0,0.0,0.0,0.0,0.0,0.0,0.0,0.0,0.0,0.0,0.0,0.0,0.0,0.0,0.0,0.0,0.0,0.0,0.0,0.0,0.0,0.0,0.0,0.0,0.0,0.0,0.0,0.0,-0.3858,0.0,0.0,0.0,0.0,0.0,0.0,0.0,0.0,0.0,0.0,0.0,0.0,0.0,0.0,0.0,0.0,0.0,0.0,0.0,0.0,0.0,0.0,0.0,0.0,0.0,0.0,0.0,0.0,0.0,0.0,0.0,0.0,0.0,0.0,0.0,0.0,0.0,0.0,0.0,0.0,0.0,0.0,0.0,0.0,0.0,0.0,0.0,0.0,0.0,0.0,0.0,0.0,0.0,0.0,0.0,0.0,0.0,0.0,0.0,0.0,0.0,0.0,0.0,0.0,0.0,0.0,0.0,0.0,0.0,0.0,0.0,0.0,0.0,0.0,0.0,0.0,0.0,0.0,0.0,0.0,0.0,0.0,0.0,0.0,0.0,0.0,0.0,0.0,0.0,0.0,0.0,0.0,0.0,0.0,0.0,0.0,0.0,0.0,0.0,0.0,0.0,0.0,0.0,0.0,0.0,0.0,0.0,0.0,0.0,0.0,-0.425,-0.3814,-0.3814,-0.3836,-0.3906,0.0,0.0,0.0,0.0,0.0,0.0,0.0,0.0,0.0,0.0,0.0,0.0,0.0,0.0,0.0,0.0,0.0,0.0,0.0,0.0,0.0,0.0,0.0,0.0,0.0,0.0,0.0,0.0,0.0,0.0,0.0,0.0,0.0,0.0,0.0,0.0,0.0,0.0,0.0,0.0,0.0,0.0,0.0,0.0,0.0,0.0,0.0,0.0,0.0,0.0,0.0,0.0,0.0,0.0,0.0,0.0,0.0,0.0,0.0,0.0,0.0,0.0,0.0,0.0,0.0,0.0,0.0,0.0,0.0,0.0,0.0,0.0,0.0,0.0,0.0,0.0,0.0,0.0,0.0,0.0,0.0,0.0,0.0,0.0,0.0,0.0,0.0,0.0,0.0,0.0,0.0,0.0,0.0,0.0,0.0,0.0,0.0,0.0,0.0,0.0,0.0,0.0,0.0,0.0,0.0,0.0,0.0,0.0,0.0,0.0,0.0,0.0,-0.3887,-0.3958,-0.398,0.0,0.0,0.0,0.0,0.0,0.0,0.0,0.0,0.0,0.0,0.0,0.0,0.0,0.0,0.0,0.0,0.0,0.0,0.0,0.0,0.0,0.0,0.0,0.0,0.0,0.0,0.0,0.0,0.0,0.0,0.0,0.0,0.0,0.0,0.0,0.0,0.0,0.0,0.0,0.0,0.0,0.0,0.0,0.0,0.0,0.0,0.0,0.0,0.0,0.0,0.0,0.0,0.0,0.0,0.0,0.0,0.0,0.0,0.0,0.0,0.0,0.0,0.0,0.0,0.0,0.0,0.0,0.0,0.0,0.0,0.0,0.0,0.0,0.0,0.0,0.0,0.0,0.0,0.0,0.0,0.0,0.0,0.0,0.0,0.0,0.0,0.0,0.0,0.0,0.0,0.0,0.0,0.0,0.0,0.0,0.0,0.0,0.0,0.0,0.0,0.0,0.0,0.0,0.0,0.0,0.0,0.0,0.0,0.0,0.0,-0.4479,-0.4257,-0.4152,0.0,-0.426,0.0,0.0,0.0,0.0,0.0,0.0,0.0,0.0,0.0,0.0,0.0,0.0,0.0,0.0,0.0,0.0,0.0,0.0,0.0,0.0,0.0,0.0,0.0,0.0,0.0,0.0,0.0,0.0,0.0,0.0,0.0,0.0,0.0,0.0,0.0,0.0,0.0,0.0,0.0,0.0,0.0,0.0,0.0,0.0,0.0,0.0,0.0,0.0,0.0,0.0,0.0,0.0,0.0,0.0,0.0,0.0,0.0,0.0,0.0,0.0,0.0,0.0,0.0,0.0,0.0,0.0,0.0,0.0,0.0,0.0,0.0,0.0,0.0,0.0,0.0,0.0,0.0,0.0,0.0,0.0,0.0,0.0,0.0,0.0,0.0,0.0,0.0,0.0,0.0,0.0,0.0,0.0,0.0,0.0,0.0,0.0,0.0,0.0,0.0,0.0,0.0,0.0,0.0,0.0,0.0,0.0,0.0,0.0,0.0,0.0,-0.4764,-0.4217,-0.4127,-0.4104,0.0,0.0,0.0,0.0,0.0,0.0,0.0,0.0,0.0,0.0,0.0,0.0,0.0,0.0,0.0,0.0,0.0,0.0,0.0,0.0,0.0,0.0,0.0,0.0,0.0,0.0,0.0,0.0,0.0,0.0,0.0,0.0,0.0,0.0,0.0,0.0,0.0,0.0,0.0,0.0,0.0,0.0,0.0,0.0,0.0,0.0,0.0,0.0,0.0,0.0,0.0,0.0,0.0,0.0,0.0,0.0,0.0,0.0,0.0,0.0,0.0,0.0,0.0,0.0,0.0,0.0,0.0,0.0,0.0,0.0,0.0,0.0,0.0,0.0,0.0,0.0,0.0,0.0,0.0,0.0,0.0,0.0,0.0,0.0,0.0,0.0,0.0,0.0,0.0,0.0,0.0,0.0,0.0,0.0,0.0,0.0,0.0,0.0,0.0,0.0,0.0,0.0,0.0,0.0,0.0,0.0,0.0,0.0,0.0,0.0,-0.5304,-0.5059,-0.4404,-0.429,-0.4221,-0.4123,0.0,0.0,0.0,0.0,0.0,0.0,0.0,0.0,0.0,0.0,0.0,0.0,0.0,0.0,0.0,0.0,0.0,0.0,0.0,0.0,0.0,0.0,0.0,0.0,0.0,0.0,0.0,0.0,0.0,0.0,0.0,0.0,0.0,0.0,0.0,0.0,0.0,0.0,0.0,0.0,0.0,0.0,0.0,0.0,0.0,0.0,0.0,0.0,0.0,0.0,0.0,0.0,0.0,0.0,0.0,0.0,0.0,0.0,0.0,0.0,0.0,0.0,0.0,0.0,0.0,0.0,0.0,0.0,0.0,0.0,0.0,0.0,0.0,0.0,0.0,0.0,0.0,0.0,0.0,0.0,0.0,0.0,0.0,0.0,0.0,0.0,0.0,0.0,0.0,0.0,0.0,0.0,0.0,0.0,0.0,0.0,0.0,0.0,0.0,0.0,0.0,0.0,0.0,0.0,0.0,0.0,0.0,0.0,-0.5489,-0.5542,-0.5377,-0.4955,-0.4772,-0.461,0.0,0.0,0.0,0.0,0.0,0.0,0.0,0.0,0.0,0.0,0.0,0.0,0.0,0.0,0.0,0.0,0.0,0.0,0.0,0.0,0.0,0.0,0.0,0.0,0.0,0.0,0.0,0.0,0.0,0.0,0.0,0.0,0.0,0.0,0.0,0.0,0.0,0.0,0.0,0.0,0.0,0.0,0.0,0.0,0.0,0.0,0.0,0.0,0.0,0.0,0.0,0.0,0.0,0.0,0.0,0.0,0.0,0.0,0.0,0.0,0.0,0.0,0.0,0.0,0.0,0.0,0.0,0.0,0.0,0.0,0.0,0.0,0.0,0.0,0.0,0.0,0.0,0.0,0.0,0.0,0.0,0.0,0.0,0.0,0.0,0.0,0.0,0.0,0.0,0.0,0.0,0.0,0.0,0.0,0.0,0.0,0.0,0.0,0.0,0.0,0.0,0.0,0.0,0.0,0.0,0.0,0.0,0.0,0.0,-0.5628,-0.5369,-0.5099,-0.489,-0.4681,-0.4474,0.0,0.0,0.0,0.0,0.0,0.0,0.0,0.0,0.0,0.0,0.0,0.0,0.0,0.0,0.0,0.0,0.0,0.0,0.0,0.0,0.0,0.0,0.0,0.0,0.0,0.0,0.0,0.0,0.0,0.0,0.0,0.0,0.0,0.0,0.0,0.0,0.0,0.0,0.0,0.0,0.0,0.0,0.0,0.0,0.0,0.0,0.0,0.0,0.0,0.0,0.0,0.0,0.0,0.0,0.0,0.0,0.0,0.0,0.0,0.0,0.0,0.0,0.0,0.0,0.0,0.0,0.0,0.0,0.0,0.0,0.0,0.0,0.0,0.0,0.0,0.0,0.0,0.0,0.0,0.0,0.0,0.0,0.0,0.0,0.0,0.0,0.0,0.0,0.0,0.0,0.0,0.0,0.0,0.0,0.0,0.0,0.0,0.0,0.0,0.0,0.0,0.0,0.0,0.0,0.0,0.0,0.0,0.0,0.0,-0.5793,0.0,-0.5006,-0.4948,-0.4762,-0.455,0.0,0.0,0.0,0.0,0.0,0.0,0.0,0.0,0.0,0.0,0.0,0.0,0.0,0.0,0.0,0.0,0.0,0.0,0.0,0.0,0.0,0.0,0.0,0.0,0.0,0.0,0.0,0.0,0.0,0.0,0.0,0.0,0.0,0.0,0.0,0.0,0.0,0.0,0.0,0.0,0.0,0.0,0.0,0.0,0.0,0.0,0.0,0.0,0.0,0.0,0.0,0.0,0.0,0.0,0.0,0.0,0.0,0.0,0.0,0.0,0.0,0.0,0.0,0.0,0.0,0.0,0.0,0.0,0.0,0.0,0.0,0.0,0.0,0.0,0.0,0.0,0.0,0.0,0.0,0.0,0.0,0.0,0.0,0.0,0.0,0.0,0.0,0.0,0.0,0.0,0.0,0.0,0.0,0.0,0.0,0.0,0.0,0.0,0.0,0.0,0.0,0.0,0.0,0.0,0.0,0.0,0.0,0.0,-0.6111,-0.5974,-0.5426,-0.5181,-0.5283,-0.5081,-0.4924,0.0,0.0,0.0,0.0,0.0,0.0,0.0,0.0,0.0,0.0,0.0,0.0,0.0,0.0,0.0,0.0,0.0,0.0,0.0,0.0,0.0,0.0,0.0,0.0,0.0,0.0,0.0,0.0,0.0,0.0,0.0,0.0,0.0,0.0,0.0,0.0,0.0,0.0,0.0,0.0,0.0,0.0,0.0,0.0,0.0,0.0,0.0,0.0,0.0,0.0,0.0,0.0,0.0,0.0,0.0,0.0,0.0,0.0,0.0,0.0,0.0,0.0,0.0,0.0,0.0,0.0,0.0,0.0,0.0,0.0,0.0,0.0,0.0,0.0,0.0,0.0,0.0,0.0,0.0,0.0,0.0,0.0,0.0,0.0,0.0,0.0,0.0,0.0,0.0,0.0,0.0,0.0,0.0,0.0,0.0,0.0,0.0,0.0,0.0,0.0,0.0,0.0,0.0,0.0,0.0,0.0,0.0,0.0,0.0,-0.5793,-0.5699,-0.55,-0.5181,-0.5044,-0.494,0.0,0.0,0.0,0.0,0.0,0.0,0.0,0.0,0.0,0.0,0.0,0.0,0.0,0.0,0.0,0.0,0.0,0.0,0.0,0.0,0.0,0.0,0.0,0.0,0.0,0.0,0.0,0.0,0.0,0.0,0.0,0.0,0.0,0.0,0.0,0.0,0.0,0.0,0.0,0.0,0.0,0.0,0.0,0.0,0.0,0.0,0.0,0.0,0.0,0.0,0.0,0.0,0.0,0.0,0.0,0.0,0.0,0.0,0.0,0.0,0.0,0.0,0.0,0.0,0.0,0.0,0.0,0.0,0.0,0.0,0.0,0.0,0.0,0.0,0.0,0.0,0.0,0.0,0.0,0.0,0.0,0.0,0.0,0.0,0.0,0.0,0.0,0.0,0.0,0.0,0.0,0.0,0.0,0.0,0.0,0.0,0.0,0.0,0.0,0.0,0.0,0.0,0.0,0.0,0.0,0.0,0.0,0.0,0.0,-0.5253,-0.5274,-0.5119,-0.4741,-0.468,-0.4776,-0.4983,0.0,0.0,0.0,0.0,0.0,0.0,0.0,0.0,0.0,0.0,0.0,0.0,0.0,0.0,0.0,0.0,0.0,0.0,0.0,0.0,0.0,0.0,0.0,0.0,0.0,0.0,0.0,0.0,0.0,0.0,0.0,0.0,0.0,0.0,0.0,0.0,0.0,0.0,0.0,0.0,0.0,0.0,0.0,0.0,0.0,0.0,0.0,0.0,0.0,0.0,0.0,0.0,0.0,0.0,0.0,0.0,0.0,0.0,0.0,0.0,0.0,0.0,0.0,0.0,0.0,0.0,0.0,0.0,0.0,0.0,0.0,0.0,0.0,0.0,0.0,0.0,0.0,0.0,0.0,0.0,0.0,0.0,0.0,0.0,0.0,0.0,0.0,0.0,0.0,0.0,0.0,0.0,0.0,0.0,0.0,0.0,0.0,0.0,0.0,0.0,0.0,0.0,0.0,0.0,0.0,0.0,0.0,0.0,-0.4454,-0.4282,-0.4175,-0.4093,-0.4115,-0.4467,0.0,0.0,0.0,0.0,0.0,0.0,0.0,0.0,0.0,0.0,0.0,0.0,0.0,0.0,0.0,0.0,0.0,0.0,0.0,0.0,0.0,0.0,0.0,0.0,0.0,0.0,0.0,0.0,0.0,0.0,0.0,0.0,0.0,0.0,0.0,0.0,0.0,0.0,0.0,0.0,0.0,0.0,0.0,0.0,0.0,0.0,0.0,0.0,0.0,0.0,0.0,0.0,0.0,0.0,0.0,0.0,0.0,0.0,0.0,0.0,0.0,0.0,0.0,0.0,0.0,0.0,0.0,0.0,0.0,0.0,0.0,0.0,0.0,0.0,0.0,0.0,0.0,0.0,0.0,0.0,0.0,0.0,0.0,0.0,0.0,0.0,0.0,0.0,0.0,0.0,0.0,0.0,0.0,0.0,0.0,0.0,0.0,0.0,0.0,0.0,0.0,0.0,0.0,0.0,0.0,0.0,0.0,0.0,0.0,-0.3702,-0.3206,-0.3203,-0.3635,-0.3999,-0.4308,0.0,0.0,0.0,0.0,0.0,0.0,0.0,0.0,0.0,0.0,0.0,0.0,0.0,0.0,0.0,0.0,0.0,0.0,0.0,0.0,0.0,0.0,0.0,0.0,0.0,0.0,0.0,0.0,0.0,0.0,0.0,0.0,0.0,0.0,0.0,0.0,0.0,0.0,0.0,0.0,0.0,0.0,0.0,0.0,0.0,0.0,0.0,0.0,0.0,0.0,0.0,0.0,0.0,0.0,0.0,0.0,0.0,0.0,0.0,0.0,0.0,0.0,0.0,0.0,0.0,0.0,0.0,0.0,0.0,0.0,0.0,0.0,0.0,0.0,0.0,0.0,0.0,0.0,0.0,0.0,0.0,0.0,0.0,0.0,0.0,0.0,0.0,0.0,0.0,0.0,0.0,0.0,0.0,0.0,0.0,0.0,0.0,0.0,0.0,0.0,0.0,0.0,0.0,0.0,0.0,0.0,0.0,0.0,-0.4054,-0.3556,-0.2467,-0.2101,-0.2479,-0.3519,-0.4129,0.0,0.0,0.0,0.0,0.0,0.0,0.0,0.0,0.0,0.0,0.0,0.0,0.0,0.0,0.0,0.0,0.0,0.0,0.0,0.0,0.0,0.0,0.0,0.0,0.0,0.0,0.0,0.0,0.0,0.0,0.0,0.0,0.0,0.0,0.0,0.0,0.0,0.0,0.0,0.0,0.0,0.0,0.0,0.0,0.0,0.0,0.0,0.0,0.0,0.0,0.0,0.0,0.0,0.0,0.0,0.0,0.0,0.0,0.0,0.0,0.0,0.0,0.0,0.0,0.0,0.0,0.0,0.0,0.0,0.0,0.0,0.0,0.0,0.0,0.0,0.0,0.0,0.0,0.0,0.0,0.0,0.0,0.0,0.0,0.0,0.0,0.0,0.0,0.0,0.0,0.0,0.0,0.0,0.0,0.0,0.0,0.0,0.0,0.0,0.0,0.0,0.0,0.0,0.0,0.0,0.0,0.0,0.0,-0.348,-0.36,-0.1958,-0.1113,-0.114,-0.2828,-0.3881,0.0,0.0,0.0,0.0,0.0,0.0,0.0,0.0,0.0,0.0,0.0,0.0,0.0,0.0,0.0,0.0,0.0,0.0,0.0,0.0,0.0,0.0,0.0,0.0,0.0,0.0,0.0,0.0,0.0,0.0,0.0,0.0,0.0,0.0,0.0,0.0,0.0,0.0,0.0,0.0,0.0,0.0,0.0,0.0,0.0,0.0,0.0,0.0,0.0,0.0,0.0,0.0,0.0,0.0,0.0,0.0,0.0,0.0,0.0,0.0,0.0,0.0,0.0,0.0,0.0,0.0,0.0,0.0,0.0,0.0,0.0,0.0,0.0,0.0,0.0,0.0,0.0,0.0,0.0,0.0,0.0,0.0,0.0,0.0,0.0,0.0,0.0,0.0,0.0,0.0,0.0,0.0,0.0,0.0,0.0,0.0,0.0,0.0,0.0,0.0,0.0,0.0,0.0,0.0,0.0,0.0,0.0,0.0,-0.327,-0.2545,-0.1599,-0.1099,-0.1109,-0.2584,-0.3436,0.0,0.0,0.0,0.0,0.0,0.0,0.0,0.0,0.0,0.0,0.0,0.0,0.0,0.0,0.0,0.0,0.0,0.0,0.0,0.0,0.0,0.0,0.0,0.0,0.0,0.0,0.0,0.0,0.0,0.0,0.0,0.0,0.0,0.0,0.0,0.0,0.0,0.0,0.0,0.0,0.0,0.0,0.0,0.0,0.0,0.0,0.0,0.0,-0.7366,0.0,0.0,0.0,0.0,0.0,0.0,0.0,0.0,0.0,0.0,0.0,0.0,0.0,0.0,0.0,0.0,0.0,0.0,0.0,0.0,0.0,0.0,0.0,0.0,0.0,0.0,0.0,0.0,0.0,0.0,0.0,0.0,0.0,0.0,0.0,0.0,0.0,0.0,0.0,0.0,0.0,0.0,0.0,0.0,0.0,0.0,0.0,0.0,0.0,0.0,0.0,0.0,0.0,0.0,0.0,0.0,0.0,0.0,0.0,-0.3257,-0.2414,-0.1533,-0.1099,-0.1128,-0.2233,-0.2969,0.0,0.0,0.0,0.0,0.0,0.0,0.0,0.0,0.0,0.0,0.0,0.0,0.0,0.0,0.0,0.0,0.0,0.0,0.0,0.0,0.0,0.0,0.0,0.0,0.0,0.0,0.0,0.0,0.0,0.0,0.0,0.0,0.0,0.0,0.0,0.0,0.0,0.0,0.0,0.0,0.0,0.0,0.0,0.0,0.0,0.0,0.0,0.0,0.0,0.0,0.0,0.0,0.0,0.0,0.0,0.0,0.0,0.0,0.0,0.0,0.0,0.0,0.0,0.0,0.0,0.0,0.0,0.0,0.0,0.0,0.0,0.0,0.0,0.0,0.0,0.0,0.0,0.0,0.0,0.0,0.0,0.0,0.0,0.0,0.0,0.0,0.0,0.0,0.0,0.0,0.0,0.0,0.0,0.0,0.0,0.0,0.0,0.0,0.0,0.0,0.0,0.0,0.0,0.0,0.0,0.0,0.0,-0.4061,-0.3267,-0.237,-0.1528,-0.1091,-0.1106,-0.1901,-0.2596,-0.3187,0.0,0.0,0.0,0.0,0.0,0.0,0.0,0.0,0.0,0.0,0.0,0.0,0.0,0.0,0.0,0.0,0.0,0.0,0.0,0.0,0.0,0.0,0.0,0.0,0.0,0.0,0.0,0.0,0.0,0.0,0.0,0.0,0.0,0.0,0.0,0.0,0.0,0.0,-0.721,-0.8059,0.0,0.0,0.0,0.0,0.0,0.0,0.0,0.0,-0.8218,0.0,0.0,0.0,0.0,0.0,0.0,0.0,0.0,0.0,0.0,0.0,0.0,0.0,0.0,0.0,0.0,0.0,0.0,0.0,0.0,0.0,0.0,0.0,0.0,0.0,0.0,0.0,0.0,0.0,0.0,0.0,0.0,0.0,0.0,0.0,0.0,0.0,0.0,0.0,0.0,0.0,0.0,0.0,0.0,0.0,0.0,0.0,0.0,0.0,0.0,0.0,0.0,0.0,0.0,0.0,0.0,-0.4169,-0.3952,-0.303,-0.1322,-0.1153,-0.1059,-0.105,-0.2025,-0.2769,-0.3263,0.0,0.0,0.0,0.0,0.0,0.0,0.0,0.0,0.0,0.0,0.0,0.0,0.0,0.0,0.0,0.0,0.0,0.0,0.0,0.0,0.0,0.0,0.0,0.0,0.0,0.0,0.0,0.0,0.0,0.0,0.0,0.0,0.0,0.0,0.0,0.0,0.0,0.0,0.0,-0.8576,-0.9225,0.0,0.0,0.0,0.0,0.0,0.0,0.0,0.0,-0.8054,0.0,0.0,0.0,0.0,0.0,0.0,0.0,0.0,0.0,0.0,0.0,0.0,0.0,0.0,0.0,0.0,0.0,0.0,0.0,0.0,0.0,0.0,0.0,0.0,0.0,0.0,0.0,0.0,0.0,0.0,0.0,0.0,0.0,0.0,0.0,0.0,0.0,0.0,0.0,0.0,0.0,0.0,0.0,0.0,0.0,0.0,0.0,0.0,0.0,0.0,0.0,0.0,0.0,0.0,0.0,-0.3979,-0.3611,-0.2689,-0.1066,-0.1076,-0.1077,-0.1035,-0.184,-0.2578,0.0,0.0,0.0,0.0,0.0,0.0,0.0,0.0,0.0,0.0,0.0,0.0,0.0,0.0,0.0,0.0,0.0,0.0,0.0,0.0,0.0,0.0,0.0,0.0,0.0,0.0,0.0,0.0,0.0,0.0,0.0,0.0,0.0,0.0,0.0,0.0,0.0,0.0,0.0,0.0,-0.8379,-0.855,-0.7768,0.0,0.0,0.0,0.0,0.0,0.0,-0.7897,-0.7973,0.0,0.0,0.0,0.0,0.0,0.0,0.0,0.0,0.0,0.0,0.0,0.0,0.0,0.0,0.0,0.0,0.0,0.0,0.0,0.0,0.0,0.0,0.0,0.0,0.0,0.0,0.0,0.0,0.0,0.0,0.0,0.0,0.0,0.0,0.0,0.0,0.0,0.0,0.0,0.0,0.0,0.0,0.0,0.0,0.0,0.0,0.0,0.0,0.0,0.0,0.0,0.0,0.0,0.0,0.0,-0.4067,-0.3394,-0.2449,-0.1205,-0.1097,-0.1062,-0.1033,-0.1881,-0.2639,0.0,0.0,0.0,0.0,0.0,0.0,0.0,0.0,0.0,0.0,0.0,0.0,0.0,0.0,0.0,0.0,0.0,0.0,0.0,0.0,0.0,0.0,0.0,0.0,0.0,0.0,0.0,0.0,0.0,0.0,0.0,0.0,0.0,0.0,0.0,0.0,0.0,0.0,0.0,0.0,0.0,-0.7985,-0.7616,-0.7879,0.0,0.0,0.0,0.0,-0.8416,-0.8304,0.0,0.0,0.0,0.0,0.0,0.0,0.0,0.0,0.0,0.0,0.0,0.0,0.0,0.0,0.0,0.0,0.0,0.0,0.0,0.0,0.0,0.0,0.0,0.0,0.0,0.0,0.0,0.0,0.0,0.0,0.0,0.0,0.0,0.0,0.0,0.0,0.0,0.0,0.0,0.0,0.0,0.0,0.0,0.0,0.0,0.0,0.0,0.0,0.0,0.0,0.0,0.0,0.0,0.0,0.0,0.0,-0.4851,-0.3584,-0.2471,-0.157,-0.1241,-0.1062,-0.1033,-0.2634,-0.3426,0.0,0.0,0.0,0.0,0.0,0.0,0.0,0.0,0.0,0.0,0.0,0.0,0.0,0.0,0.0,0.0,0.0,0.0,0.0,0.0,0.0,0.0,0.0,0.0,0.0,0.0,0.0,0.0,0.0,0.0,0.0,0.0,0.0,0.0,0.0,0.0,0.0,0.0,0.0,0.0,0.0,-0.8665,-0.7879,-0.8351,-0.8791,0.0,0.0,-0.8606,-0.8574,-0.8951,0.0,0.0,0.0,0.0,0.0,0.0,0.0,0.0,0.0,0.0,0.0,0.0,0.0,0.0,0.0,0.0,0.0,0.0,0.0,0.0,0.0,0.0,0.0,0.0,0.0,0.0,0.0,0.0,0.0,0.0,0.0,0.0,0.0,0.0,0.0,0.0,0.0,0.0,0.0,0.0,0.0,0.0,0.0,0.0,0.0,0.0,0.0,0.0,0.0,0.0,0.0,0.0,0.0,0.0,0.0,-0.5116,-0.4647,-0.3604,-0.2586,-0.1647,-0.1445,-0.1262,-0.1002,-0.2724,-0.3511,0.0,0.0,0.0,0.0,0.0,0.0,0.0,0.0,0.0,0.0,0.0,0.0,0.0,0.0,0.0,0.0,0.0,0.0,0.0,0.0,0.0,0.0,0.0,0.0,0.0,0.0,0.0,0.0,0.0,0.0,0.0,0.0,0.0,0.0,0.0,0.0,0.0,0.0,0.0,0.0,0.0,0.0,-0.8281,-0.8462,0.0,0.0,0.0,-0.8918,-0.9352,0.0,0.0,0.0,0.0,0.0,0.0,0.0,0.0,0.0,0.0,0.0,0.0,0.0,0.0,0.0,0.0,0.0,0.0,0.0,0.0,0.0,0.0,0.0,0.0,0.0,0.0,0.0,0.0,0.0,0.0,0.0,0.0,0.0,0.0,0.0,0.0,0.0,0.0,0.0,0.0,0.0,0.0,0.0,0.0,0.0,0.0,0.0,0.0,0.0,0.0,0.0,0.0,0.0,0.0,0.0,0.0,0.0,-0.4854,-0.3877,-0.2922,-0.2051,-0.1814,-0.1532,-0.1175,-0.2511,0.0,0.0,0.0,0.0,0.0,0.0,0.0,0.0,0.0,0.0,0.0,0.0,0.0,0.0,0.0,0.0,0.0,0.0,0.0,0.0,0.0,0.0,0.0,0.0,0.0,0.0,0.0,-0.5167,0.0,0.0,0.0,0.0,0.0,0.0,0.0,0.0,0.0,0.0,0.0,0.0,0.0,0.0,-0.8462,-0.8666,-0.8728,-0.8723,0.0,0.0,-0.9604,-1.0197,-0.993,-0.9915,0.0,0.0,0.0,0.0,0.0,0.0,0.0,0.0,0.0,0.0,0.0,0.0,0.0,0.0,0.0,0.0,0.0,0.0,0.0,0.0,0.0,0.0,0.0,0.0,0.0,0.0,0.0,0.0,0.0,0.0,0.0,0.0,0.0,0.0,0.0,0.0,0.0,0.0,0.0,0.0,0.0,0.0,0.0,0.0,0.0,0.0,0.0,0.0,0.0,0.0,0.0,0.0,0.0,0.0,0.0,-0.6075,-0.4598,-0.3558,-0.3092,-0.2417,-0.1913,-0.1574,-0.2025,-0.2641,0.0,0.0,0.0,0.0,0.0,0.0,0.0,0.0,0.0,0.0,0.0,0.0,0.0,0.0,0.0,0.0,0.0,0.0,0.0,0.0,0.0,0.0,0.0,0.0,0.0,0.0,0.0,0.0,0.0,0.0,0.0,0.0,0.0,0.0,0.0,0.0,0.0,0.0,0.0,0.0,0.0,-0.8886,-0.896,-0.9335,-0.961,0.0,0.0,-1.0964,-1.1025,-1.1292,-1.1595,-1.1773,0.0,0.0,0.0,0.0,0.0,0.0,0.0,0.0,0.0,0.0,0.0,0.0,0.0,0.0,0.0,0.0,0.0,0.0,0.0,0.0,0.0,0.0,0.0,0.0,0.0,0.0,0.0,0.0,0.0,0.0,0.0,0.0,0.0,0.0,0.0,0.0,0.0,0.0,0.0,0.0,0.0,0.0,0.0,0.0,0.0,0.0,0.0,0.0,0.0,0.0,0.0,0.0,0.0,-0.5566,-0.5922,-0.4929,-0.4125,-0.3558,-0.3054,-0.2484,-0.1914,-0.2452,-0.2915,0.0,0.0,0.0,0.0,0.0,0.0,0.0,0.0,0.0,0.0,0.0,0.0,0.0,0.0,0.0,0.0,0.0,0.0,0.0,0.0,0.0,0.0,0.0,0.0,0.0,0.0,0.0,0.0,-0.5919,-0.6361,-0.6931,0.0,0.0,0.0,0.0,0.0,0.0,0.0,0.0,0.0,0.0,-0.951,-0.9531,-0.9903,0.0,0.0,-1.0684,-1.1107,-1.1107,-1.1354,-1.1595,-1.166,-1.1688,0.0,0.0,0.0,0.0,0.0,0.0,0.0,0.0,0.0,0.0,0.0,0.0,0.0,0.0,0.0,0.0,0.0,0.0,0.0,0.0,0.0,0.0,0.0,0.0,0.0,0.0,0.0,0.0,0.0,0.0,0.0,0.0,0.0,0.0,0.0,0.0,0.0,0.0,0.0,0.0,0.0,0.0,0.0,0.0,0.0,0.0,0.0,0.0,0.0,0.0,0.0,0.0,-0.5729,-0.591,-0.524,-0.4625,-0.4059,-0.3661,-0.3121,-0.2449,-0.2663,-0.288,0.0,0.0,0.0,0.0,0.0,0.0,0.0,0.0,0.0,0.0,0.0,0.0,0.0,0.0,0.0,0.0,0.0,0.0,0.0,0.0,0.0,0.0,0.0,0.0,0.0,0.0,0.0,0.0,-0.6067,-0.6485,-0.7045,0.0,0.0,0.0,0.0,0.0,0.0,0.0,0.0,0.0,0.0,-1.0112,-1.0119,-1.0393,-1.0617,-1.0675,-1.1047,-1.1348,-1.1385,-1.1523,-1.1602,-1.1596,0.0,0.0,0.0,0.0,0.0,0.0,0.0,0.0,0.0,0.0,0.0,0.0,0.0,0.0,0.0,0.0,0.0,0.0,0.0,0.0,0.0,0.0,0.0,0.0,0.0,0.0,0.0,0.0,0.0,0.0,-0.2355,0.0,0.0,0.0,0.0,0.0,0.0,0.0,0.0,0.0,0.0,0.0,0.0,0.0,0.0,0.0,0.0,0.0,0.0,0.0,0.0,0.0,0.0,-0.6023,-0.637,-0.5481,-0.4921,-0.4558,-0.4192,-0.3661,-0.3159,-0.2482,-0.2346,-0.2785,0.0,0.0,0.0,0.0,0.0,0.0,0.0,0.0,0.0,0.0,0.0,0.0,0.0,0.0,0.0,0.0,0.0,0.0,0.0,0.0,0.0,0.0,0.0,0.0,0.0,0.0,-0.713,-0.7134,-0.7025,0.0,0.0,0.0,0.0,0.0,0.0,0.0,0.0,0.0,0.0,-1.036,-1.058,-1.058,-1.0887,-1.1122,-1.1271,-1.157,-1.1841,-1.2027,-1.1903,-1.1818,0.0,0.0,0.0,0.0,0.0,0.0,0.0,0.0,0.0,0.0,0.0,0.0,0.0,0.0,0.0,0.0,0.0,0.0,0.0,0.0,0.0,0.0,0.0,0.0,0.0,0.0,0.0,-0.1852,-0.2106,0.0,0.0,0.0,0.0,0.0,0.0,0.0,0.0,0.0,0.0,0.0,-0.5816,-0.5939,0.0,0.0,0.0,0.0,0.0,0.0,0.0,0.0,0.0,0.0,0.0,0.0,-0.5921,-0.5709,-0.4964,-0.4287,-0.3685,-0.3322,-0.2919,-0.2484,-0.2014,-0.1897,-0.2187,0.0,0.0,0.0,0.0,0.0,0.0,0.0,0.0,0.0,0.0,0.0,0.0,0.0,0.0,0.0,0.0,0.0,0.0,0.0,0.0,0.0,0.0,0.0,0.0,0.0,-0.6378,0.0,0.0,0.0,0.0,0.0,0.0,0.0,0.0,0.0,0.0,0.0,-1.006,-1.0382,-1.0791,-1.1085,-1.1056,-1.1488,-1.1798,0.0,0.0,0.0,0.0,0.0,0.0,0.0,0.0,0.0,0.0,0.0,0.0,0.0,0.0,-1.1191,-1.13,-1.1123,-1.0692,-0.9836,0.0,0.0,0.0,0.0,0.0,0.0,0.0,0.0,0.0,0.0,0.0,0.0,0.0,0.0,-0.2287,0.0,-0.2683,0.0,0.0,0.0,0.0,0.0,0.0,0.0,0.0,-0.4923,-0.4947,-0.514,-0.5572,-0.5837,0.0,-0.6489,-0.6551,0.0,0.0,0.0,0.0,0.0,0.0,0.0,0.0,-0.5947,-0.5464,-0.4774,-0.4054,-0.3351,-0.3086,-0.2751,-0.2315,-0.1848,-0.1619,-0.1622,-0.2081,-0.2558,0.0,0.0,0.0,0.0,0.0,0.0,0.0,0.0,0.0,0.0,0.0,0.0,0.0,0.0,0.0,0.0,0.0,0.0,0.0,0.0,0.0,0.0,0.0,-0.6697,0.0,0.0,0.0,0.0,0.0,0.0,0.0,0.0,0.0,-0.9297,-0.9988,-1.0542,-1.0813,-1.116,-1.139,-1.139,0.0,0.0,0.0,0.0,0.0,0.0,0.0,-1.1497,-1.1526,-1.1354,-1.1175,-1.1099,-1.1,-1.0968,-1.107,0.0,0.0,-1.0958,-1.0791,-1.0301,-0.9378,-0.9397,-0.9403,-0.8825,-0.8988,-0.9254,0.0,0.0,0.0,0.0,0.0,0.0,0.0,0.0,-0.2675,-0.2863,0.0,-0.3105,0.0,0.0,0.0,0.0,0.0,-0.464,0.0,0.0,-0.3573,-0.344,-0.3681,-0.4616,-0.496,-0.4966,-0.6498,-0.6963,-0.6399,-0.5307,0.0,0.0,0.0,0.0,0.0,0.0,-0.6061,-0.5586,-0.489,-0.4195,-0.3453,-0.342,-0.3153,-0.2619,-0.1949,-0.1445,-0.114,-0.1716,-0.2035,-0.1946,-0.2518,0.0,0.0,0.0,0.0,0.0,0.0,0.0,0.0,0.0,0.0,0.0,0.0,0.0,0.0,0.0,0.0,0.0,0.0,0.0,0.0,-0.6949,0.0,0.0,0.0,0.0,0.0,0.0,0.0,0.0,0.0,0.0,-0.9192,-1.0279,-1.1144,-1.1309,0.0,0.0,0.0,0.0,-1.1263,-1.1642,-1.139,-1.1361,-1.1791,-1.1402,-1.103,-1.0836,0.0,0.0,-1.0653,-1.0408,-1.0301,-1.0611,-1.0408,-1.0283,-1.057,-1.0174,-0.9641,-0.9076,-0.8878,-0.8728,-0.8551,-0.8825,-0.9284,-0.0922,0.0,0.0,0.0,0.0,-0.1648,-0.1726,-0.1976,-0.1796,-0.1892,-0.2204,-0.2376,0.0,0.0,0.0,0.0,0.0,0.0,-0.4518,-0.4954,-0.4756,-0.4828,-0.5162,-0.5497,-0.5717,-0.5876,-0.6364,-0.6339,-0.5848,-0.5246,-0.5463,-0.6473,0.0,0.0,0.0,0.0,-0.6229,-0.5126,-0.4198,-0.3351,-0.2515,-0.2013,-0.1712,-0.1578,-0.1378,-0.121,-0.1109,-0.129,-0.165,-0.2229,-0.2297,0.0,0.0,0.0,0.0,0.0,0.0,0.0,0.0,0.0,0.0,0.0,0.0,0.0,0.0,0.0,0.0,0.0,0.0,0.0,-0.6391,-0.6736,-0.6944,0.0,0.0,0.0,0.0,0.0,0.0,0.0,0.0,0.0,-0.9367,-1.0078,-1.085,0.0,0.0,-1.1588,-1.1774,-1.1703,-1.1597,-1.158,-1.1283,0.0,-1.1368,-1.0853,-1.042,-1.0566,-1.0302,-1.0072,-1.0101,-1.0057,-1.0035,-1.0096,-0.9882,-0.9694,-0.9688,-0.9627,-0.9221,-0.8493,-0.8458,-0.8338,-0.7768,-0.7892,-0.8164,-0.0485,-0.0699,-0.1171,-0.1462,-0.157,-0.1496,-0.1525,-0.1637,-0.1538,-0.1624,-0.1919,-0.1991,-0.2291,-0.2824,-0.3705,0.0,0.0,0.0,-0.4887,-0.4961,-0.4881,-0.4898,-0.509,-0.543,-0.5683,-0.5792,-0.6145,-0.6145,-0.587,-0.5841,-0.6126,-0.6697,0.0,0.0,-0.6787,-0.6795,-0.6275,-0.5241,-0.4544,-0.3748,-0.2867,-0.1959,-0.1444,-0.1277,-0.1176,-0.1109,-0.1109,-0.1109,-0.1427,-0.2094,-0.2026,-0.2271,0.0,0.0,0.0,0.0,0.0,0.0,0.0,0.0,0.0,0.0,0.0,-0.4688,-0.4857,0.0,0.0,0.0,-0.5677,-0.6015,-0.6319,-0.6564,0.0,0.0,0.0,0.0,0.0,0.0,0.0,-0.7533,-0.8015,-0.8608,-0.9321,-0.9664,-1.0264,-1.1434,-1.1349,-1.1216,-1.1287,0.0,-1.1002,-1.0944,-1.0717,-1.0598,-1.0791,-1.029,-0.9903,-0.989,-0.9647,-0.9458,-0.9539,-0.9539,-0.9533,-0.9523,-0.9392,-0.9226,-0.9008,-0.8893,-0.8681,-0.7967,-0.8042,-0.7963,-0.7223,-0.7312,-0.7498,0.0,0.0,-0.1118,-0.142,-0.1256,-0.1671,-0.1589,-0.126,-0.1631,-0.179,-0.1831,-0.1793,-0.2062,-0.2686,-0.4576,0.0,-0.5397,-0.5704,-0.5333,-0.4373,-0.4323,-0.4277,-0.4236,-0.4952,-0.5246,-0.5176,-0.5912,-0.63,-0.6331,-0.6787,-0.6915,-0.6678,-0.5907,-0.5996,-0.6878,-0.6696,-0.6314,-0.5769,-0.5448,-0.4882,-0.4002,-0.2771,-0.1957,-0.1687,-0.1315,-0.1112,-0.1109,-0.1109,-0.1296,-0.1684,-0.1713,-0.1979,-0.2544,0.0,0.0,0.0,0.0,0.0,0.0,0.0,0.0,0.0,0.0,0.0,0.0,0.0,0.0,0.0,-0.5701,0.0,-0.6275,-0.6403,0.0,0.0,0.0,-0.6869,-0.6849,-0.6849,-0.6989,-0.7315,0.0,0.0,-0.9059,-0.9083,-0.9465,-1.0637,-1.0682,-1.0559,-1.0369,-1.0079,-0.9878,-0.9997,-0.9843,-0.9816,-0.9964,-0.9674,-0.9296,-0.9036,-0.8775,-0.8742,-0.8889,-0.8927,-0.8922,-0.8927,-0.8922,-0.8808,-0.8441,-0.8276,-0.7979,-0.7593,-0.7678,-0.7596,-0.7057,-0.7088,-0.7292,0.0,0.0,-0.0294,-0.0382,-0.0321,-0.0411,-0.0507,-0.061,-0.0644,-0.0775,-0.1002,-0.0936,-0.1404,-0.2342,-0.3393,-0.4294,-0.5073,-0.4765,-0.505,-0.5755,-0.537,-0.5482,-0.5954,-0.5971,-0.6018,-0.6132,-0.6273,-0.63,-0.6296,-0.6412,-0.6576,-0.6751,-0.6552,-0.671,-0.7111,-0.7177,-0.6914,-0.6376,-0.5776,-0.4919,-0.3784,-0.2829,-0.23,-0.2218,-0.1492,-0.1099,-0.1111,-0.1109,-0.1273,-0.1599,-0.1765,-0.2005,-0.2365,-0.2507,0.0,0.0,0.0,0.0,0.0,0.0,0.0,0.0,0.0,-0.3916,-0.4072,0.0,-0.4281,0.0,-0.5292,-0.5976,-0.6277,-0.633,0.0,0.0,-0.6449,-0.6429,-0.6439,-0.6457,-0.6605,-0.6972,-0.7207,-0.7559,-0.8231,-0.8344,-0.8487,-0.8899,-0.9437,-0.9793,-0.9769,-0.958,-0.9383,-0.928,-0.907,-0.8949,-0.8841,-0.8632,-0.8446,-0.8331,-0.8289,-0.8255,-0.8293,-0.8289,-0.8289,-0.8327,-0.8327,-0.8289,-0.8174,-0.8138,-0.7952,-0.7606,-0.7557,-0.7456,-0.7068,-0.7209,-0.7388,0.0,0.0,0.0,0.0,0.0,0.0,-0.0097,-0.0244,-0.0192,-0.0238,-0.0427,-0.0837,-0.1659,-0.2758,-0.3638,-0.4678,-0.5653,-0.5413,-0.57,-0.6499,-0.6208,-0.6313,-0.6748,-0.6589,-0.6521,-0.6569,-0.6463,-0.6395,-0.6395,-0.6392,-0.6464,-0.6689,-0.6719,-0.6859,-0.7082,-0.7303,-0.7269,-0.698,-0.633,-0.5502,-0.4507,-0.3619,-0.3263,-0.3459,-0.2515,-0.2093,-0.2272,-0.2139,-0.2075,-0.2109,-0.2143,-0.2187,-0.2245,-0.2275,-0.2224,0.0,0.0,0.0,0.0,0.0,0.0,0.0,0.0,0.0,0.0,0.0,-0.3963,-0.4346,-0.5227,-0.5806,-0.5997,-0.618,-0.6298,-0.627,-0.628,-0.628,-0.6289,-0.63,-0.6412,-0.6714,-0.6897,-0.7214,-0.7652,-0.7772,-0.7822,-0.789,-0.831,-0.8632,-0.8756,-0.8775,-0.8699,-0.8504,-0.8356,-0.8208,-0.7906,-0.7872,-0.7791,-0.7718,-0.7795,-0.7872,-0.7953,-0.7953,-0.7953,-0.7953,-0.7953,-0.7915,-0.7834,-0.7829,-0.7753,-0.7589,-0.7521,-0.7392,-0.7126,-0.7224,-0.7352,0.0,0.0,0.0,0.0,0.0,-0.005,-0.005,0.0,-0.005,-0.0099,-0.0295,-0.1355,-0.2447,-0.3593,-0.4635,-0.567,-0.6596,-0.6575,-0.6636,-0.678,-0.6796,-0.6851,-0.687,-0.687,-0.6832,-0.6725,-0.6617,-0.6542,-0.6538,-0.6542,-0.6532,-0.6598,-0.6729,-0.6892,-0.7099,-0.7355,-0.7427,-0.738,-0.6913,-0.6426,-0.5754,-0.4874,-0.4569,-0.4908,-0.3807,-0.3372,-0.3717,-0.3482,-0.3099,-0.2751,-0.2628,-0.2463,-0.2238,-0.2046,-0.2004,0.0,-0.2022,0.0,0.0,0.0,0.0,0.0,0.0,0.0,0.0,-0.3449,-0.3967,-0.4588,-0.5272,-0.5713,-0.5713,-0.6065,-0.63,-0.63,-0.63,-0.63,-0.63,-0.6313,-0.6401,-0.6592,-0.6695,-0.6914,-0.7262,-0.7316,-0.7301,-0.7343,-0.7365,-0.7442,-0.762,-0.7854,-0.791,-0.7714,-0.7668,-0.7518,-0.7253,-0.7292,-0.733,-0.7257,-0.7373,-0.7522,-0.7723,-0.7761,-0.7761,-0.7761,-0.7761,-0.7718,-0.7518,-0.7518,-0.7518,-0.7506,-0.7498,-0.7449,-0.7293,-0.7265,-0.7309,0.0,0.0,0.0,0.0,0.0,-0.0252,-0.0202,0.0,-0.0252,-0.0703,-0.1354,-0.2447,-0.339,-0.4278,-0.5291,-0.6021,-0.6573,-0.647,-0.6493,-0.6648,-0.6759,-0.6819,-0.6807,-0.6757,-0.6766,-0.6839,-0.6732,-0.6658,-0.6654,-0.6654,-0.6838,-0.7147,-0.7177,-0.7328,-0.7638,0.0,0.0,0.0,-0.7265,-0.7281,-0.7118,-0.6414,-0.5997,-0.5884,-0.4469,0.0,-0.3564,-0.3357,-0.3127,-0.2933,-0.2825,0.0,0.0,0.0,0.0,0.0,0.0,0.0,0.0,0.0,0.0,0.0,-0.262,-0.2825,-0.2784,-0.3364,-0.402,-0.4637,-0.5271,-0.5671,-0.5861,-0.6125,-0.63,-0.63,-0.63,-0.63,-0.6303,-0.6402,-0.6474,-0.6513,-0.6647,-0.6788,-0.6972,-0.6902,-0.6871,-0.7,-0.6832,-0.6724,-0.6882,-0.7177,-0.721,-0.7092,-0.698,-0.683,-0.6753,-0.6756,-0.6949,-0.7103,-0.7219,-0.7334,-0.7526,-0.7561,-0.7561,-0.7561,-0.7561,-0.7561,-0.7518,-0.7518,-0.7518,-0.7518,-0.7518,-0.751,-0.7439,-0.7473,-0.7443,0.0,0.0,0.0,0.0,0.0,-0.0303,-0.0353,-0.0202,-0.0353,-0.0606,-0.111,-0.2569,-0.3475,-0.4078,-0.5383,-0.6121,-0.6457,-0.639,-0.6389,-0.6505,-0.657,-0.6674,-0.6819,-0.684,-0.6863,-0.6966,-0.6833,-0.6814,-0.6814,-0.6814,-0.6895,-0.7109,-0.7181,-0.7266,-0.7355,-0.7308,-0.7177,-0.706,-0.7201,-0.7138,-0.6868,-0.6159,-0.5897,-0.612,-0.4848,0.0,0.0,0.0,0.0,0.0,0.0,0.0,0.0,0.0,0.0,-0.2005,-0.203,-0.2081,-0.2199,-0.2393,-0.2588,-0.2782,-0.3249,-0.3476,-0.3279,-0.3775,-0.427,-0.4662,-0.5246,-0.5637,-0.575,-0.6162,-0.6405,-0.6405,-0.6474,-0.6478,-0.6525,-0.6542,-0.6583,-0.66,-0.6719,-0.6844,-0.7044,-0.7034,-0.701,-0.7079,-0.6968,-0.6857,-0.6719,-0.679,-0.6802,-0.6764,-0.6676,-0.6563,-0.6486,-0.6528,-0.6641,-0.6872,-0.7065,-0.7219,-0.733,-0.7446,-0.7518,-0.7518,-0.7518,-0.7518,-0.7518,-0.7518,-0.7518,-0.7518,-0.7518,-0.7518,-0.7518,-0.7518,-0.7518,0.0,0.0,0.0,0.0,0.0,-0.0353,-0.0505,-0.0556,0.0,0.0,0.0,-0.267,-0.3627,-0.388,-0.5388,-0.6142,-0.6301,-0.6301,-0.6327,-0.6398,-0.6418,-0.6501,-0.6744,-0.6941,-0.6968,-0.7002,-0.6993,-0.695,-0.6923,-0.6966,-0.6966,-0.6933,-0.7041,-0.7038,-0.692,-0.6841,-0.6846,-0.6971,-0.7086,-0.6982,-0.6528,-0.587,-0.5822,-0.6429,-0.5324,-0.47,-0.4638,-0.4302,-0.3754,-0.3018,-0.2754,-0.2531,-0.2368,-0.204,-0.187,-0.1906,-0.1909,-0.2107,-0.2503,-0.282,-0.3176,-0.3728,-0.4277,-0.4404,-0.399,-0.4312,-0.4639,-0.4799,-0.539,-0.5747,-0.575,-0.6198,-0.6515,-0.6555,-0.6665,-0.6698,-0.6698,-0.6729,-0.6742,-0.6756,-0.6875,-0.7009,-0.7225,-0.7314,-0.7354,-0.7347,-0.7314,-0.7208,-0.6874,-0.6713,-0.6617,-0.6581,-0.6595,-0.6567,-0.6458,-0.6563,-0.6679,-0.6756,-0.703,-0.7184,-0.7261,-0.7373,-0.748,-0.7518,-0.7518,-0.7518,-0.7518,-0.7518,-0.7518,-0.7518,-0.7518,-0.7518,-0.7518,-0.7518,-0.7518,0.0,0.0,0.0,0.0,-0.005,-0.0556,-0.0909,-0.1111,-0.1564,-0.1917,-0.222,-0.3879,-0.4583,-0.4682,-0.5837,-0.6329,-0.6363,-0.6363,-0.6352,-0.6298,-0.6391,-0.6422,-0.6467,-0.6846,-0.701,-0.7021,-0.7238,-0.7241,-0.7078,-0.7068,-0.7065,-0.7065,-0.7085,-0.7085,-0.7065,-0.7045,-0.6997,-0.6961,-0.7484,-0.7696,-0.7505,-0.7545,-0.7488,-0.7278,-0.6448,-0.5777,-0.5275,-0.4792,-0.4138,-0.3366,-0.2918,-0.2555,-0.2252,-0.2089,-0.1992,-0.1998,-0.1999,-0.2166,-0.2666,-0.3243,-0.407,-0.5072,-0.5457,-0.5287,-0.4575,-0.4974,-0.5278,-0.532,-0.5879,-0.6302,-0.6302,-0.6527,-0.6668,-0.6668,-0.6688,-0.6702,-0.6719,-0.6824,-0.6895,-0.6898,-0.698,-0.7105,-0.7183,-0.7365,-0.7501,-0.7493,-0.7487,-0.7423,-0.7079,-0.6833,-0.6613,-0.6424,-0.6566,-0.6659,-0.6521,-0.6714,-0.6791,-0.7103,-0.7107,-0.718,-0.733,-0.7407,-0.7442,-0.7484,-0.748,-0.7484,-0.748,-0.7518,-0.748,-0.7442,-0.7442,-0.748,-0.7442,-0.748,-0.748,0.0,0.0,0.0,0.0,-0.0051,-0.0558,-0.096,-0.1263,-0.1917,-0.2017,-0.1968,-0.3578,-0.4384,-0.4485,-0.5784,-0.6387,-0.6387,-0.6387,-0.6357,-0.6363,-0.6363,-0.6426,-0.6425,-0.6806,-0.6981,-0.7004,-0.7346,-0.7414,-0.7275,-0.7265,-0.7179,-0.7102,-0.7095,-0.7095,-0.7095,-0.7095,-0.7061,-0.7001,-0.7232,-0.7284,-0.7163,-0.7042,-0.6889,-0.6742,-0.6162,-0.5506,-0.4724,-0.4451,-0.3878,-0.2886,-0.2658,-0.2399,-0.2111,-0.1923,-0.185,-0.185,-0.2311,-0.273,-0.3068,-0.4193,-0.5069,-0.5618,-0.5936,-0.5909,-0.5558,-0.5669,-0.5785,-0.5788,-0.6153,-0.6402,-0.6405,-0.6644,-0.6827,-0.6782,-0.6849,-0.6936,-0.6903,-0.6953,-0.7044,-0.7182,-0.7281,-0.7408,-0.7669,-0.7804,-0.7896,-0.7889,-0.773,-0.7458,-0.7271,-0.6931,-0.668,-0.6464,-0.6369,-0.6286,-0.6225,-0.6212,-0.6289,-0.6444,-0.6602,-0.6799,-0.6988,-0.7099,-0.7173,-0.7173,-0.7173,-0.7173,-0.7173,-0.7173,-0.7173,-0.7173,-0.7173,-0.7173,-0.7173,-0.7249,-0.7369,0.0,0.0,-0.0053,-0.0104,-0.0259,-0.0614,-0.0964,-0.1263,-0.1917,-0.1868,-0.1616,-0.3328,-0.4133,-0.4183,-0.5687,-0.6387,-0.6387,-0.6387,-0.6387,-0.6387,-0.6387,-0.6387,-0.6478,-0.6836,-0.7027,-0.704,-0.7416,-0.757,-0.7438,-0.7421,-0.7363,-0.7206,-0.721,-0.7146,-0.7149,-0.7115,-0.7095,-0.7088,-0.6987,-0.6905,-0.6759,-0.646,-0.6277,-0.6204,-0.5951,-0.5366,-0.4613,-0.434,-0.3762,-0.2711,-0.247,-0.2176,-0.1878,-0.1706,-0.1621,-0.1706,-0.243,-0.3154,-0.3792,-0.5106,-0.599,-0.6078,-0.6321,-0.6411,-0.6401,-0.6327,-0.6216,-0.6241,-0.6418,-0.653,-0.6514,-0.6707,-0.6886,-0.6893,-0.7014,-0.7078,-0.7092,-0.7095,-0.7143,-0.737,-0.7415,-0.7544,-0.7848,-0.8025,-0.8028,-0.8025,-0.7808,-0.7534,-0.7361,-0.7061,-0.6757,-0.6385,-0.6125,-0.5959,-0.5882,-0.5763,-0.5715,-0.5822,-0.6057,-0.6293,-0.6444,-0.6595,-0.6707,-0.6745,-0.6745,-0.6745,-0.6745,-0.6826,-0.6826,-0.6865,-0.6907,-0.6942,-0.6942,-0.7022,-0.7219,0.0,0.0,-0.0266,-0.0527,-0.0779,-0.083,-0.0975,-0.1215,-0.1516,-0.1667,-0.1768,-0.378,-0.4383,-0.4284,-0.5684,-0.6387,-0.6387,-0.6387,-0.6387,-0.6387,-0.6387,-0.6387,-0.6437,-0.6924,-0.7109,-0.711,-0.7559,-0.7719,-0.7584,-0.7573,-0.7567,-0.7543,-0.7417,-0.735,-0.7336,-0.7166,-0.7098,-0.7095,-0.7082,-0.7007,-0.6876,-0.6823,-0.6759,-0.666,-0.6581,-0.637,-0.5844,-0.5169,-0.4276,-0.3336,-0.2601,-0.2006,-0.1559,-0.1471,-0.1427,-0.1471,-0.2006,-0.3029,-0.4712,-0.5775,-0.6514,-0.6916,-0.685,-0.68,-0.684,-0.6706,-0.6592,-0.66,-0.6728,-0.6743,-0.6687,-0.6798,-0.6889,-0.691,-0.7018,-0.7095,-0.7095,-0.7095,-0.7095,-0.7139,-0.7187,-0.7187,-0.7363,-0.7544,-0.768,-0.794,-0.7856,-0.7669,-0.7504,-0.7081,-0.6637,-0.6187,-0.5952,-0.5864,-0.5755,-0.5662,-0.5478,-0.5572,-0.575,-0.5879,-0.5925,-0.6103,-0.6279,-0.6163,-0.624,-0.624,-0.6321,-0.644,-0.6598,-0.656,-0.6676,-0.6865,-0.6865,-0.6903,-0.7019,0.0,0.0,-0.0272,-0.0483,-0.0634,-0.0949,-0.1044,-0.0976,-0.1439,-0.1634,-0.1769,-0.3026,-0.3729,-0.4083,-0.5536,-0.6237,-0.6387,-0.6387,-0.6387,-0.6387,-0.6387,-0.6387,-0.6437,-0.6936,-0.7158,-0.7162,-0.7651,-0.7868,-0.7733,-0.7641,-0.7597,-0.7597,-0.7533,-0.7366,-0.7071,-0.6943,-0.6869,-0.6776,-0.6427,-0.6404,-0.6624,-0.6877,-0.698,-0.6927,-0.6658,-0.631,-0.5884,-0.5231,-0.4506,-0.3585,-0.2945,-0.2376,-0.1885,-0.157,-0.1525,-0.1885,-0.2869,-0.4164,-0.5719,-0.6207,-0.6605,-0.7095,-0.6967,-0.6916,-0.6991,-0.6837,-0.6721,-0.6757,-0.6759,-0.6797,-0.6827,-0.6849,-0.6916,-0.6994,-0.7065,-0.7095,-0.7095,-0.7095,-0.7143,-0.7279,-0.7323,-0.7411,-0.7544,-0.768,-0.7768,-0.7856,-0.7771,-0.7595,-0.7455,-0.7004,-0.6493,-0.6031,-0.5553,-0.5091,-0.4943,-0.4726,-0.4689,-0.4799,-0.4956,-0.5076,-0.5263,-0.5391,-0.547,-0.5512,-0.5595,-0.5673,-0.5667,-0.5864,-0.6022,-0.606,-0.6173,-0.6286,-0.6321,-0.6518,-0.6749,0.0,0.0,-0.0277,-0.0382,-0.043,-0.0966,-0.1063,-0.089,-0.136,-0.1605,-0.1681,-0.239,-0.3141,-0.3984,-0.5238,-0.5892,-0.6089,-0.6287,-0.6387,-0.6387,-0.6387,-0.6387,-0.6434,-0.6936,-0.7185,-0.7285,-0.7736,-0.7934,-0.7872,-0.7777,-0.7719,-0.7671,-0.7536,-0.7228,-0.6878,-0.6758,-0.655,-0.6216,-0.6012,-0.5995,-0.6123,-0.6494,-0.6697,-0.6694,-0.6384,-0.6033,-0.5722,-0.5233,-0.4565,-0.3673,-0.3181,-0.269,-0.2243,-0.184,-0.1884,-0.2602,-0.3628,-0.4788,-0.5941,-0.6254,-0.6564,-0.6864,-0.6877,-0.6927,-0.697,-0.6805,-0.6759,-0.6792,-0.6766,-0.6756,-0.6841,-0.6859,-0.6933,-0.7024,-0.7065,-0.7095,-0.7095,-0.7095,-0.7187,-0.7367,-0.7323,-0.7459,-0.7632,-0.7632,-0.7632,-0.7632,-0.7499,-0.737,-0.7323,-0.683,-0.6296,-0.5947,-0.5076,-0.4472,-0.4297,-0.403,-0.3912,-0.3978,-0.4168,-0.434,-0.4458,-0.4588,-0.4757,-0.4835,-0.4915,-0.5031,-0.5051,-0.5204,-0.5446,-0.5559,-0.5673,-0.5825,-0.5977,-0.6209,-0.6521,0.0,0.0,-0.028,-0.0444,-0.0438,-0.0765,-0.092,-0.0906,-0.1173,-0.1425,-0.1714,-0.2228,-0.2872,-0.3587,-0.4601,-0.5244,-0.5343,-0.5952,-0.6308,-0.6358,-0.6353,-0.6392,-0.6437,-0.6936,-0.7188,-0.7188,-0.769,-0.7932,-0.7915,-0.7965,-0.7975,-0.7905,-0.7378,-0.7024,-0.6861,-0.6753,-0.6261,-0.5487,-0.5999,-0.6119,-0.5329,-0.5555,-0.5725,-0.5675,-0.5719,-0.5675,-0.5633,-0.523,-0.4518,-0.3623,-0.3135,-0.2644,-0.2243,-0.22,-0.2556,-0.3408,-0.3987,-0.4523,-0.5144,-0.5852,-0.6384,-0.6457,-0.6703,-0.6896,-0.688,-0.6768,-0.6729,-0.6729,-0.6742,-0.6729,-0.6766,-0.6829,-0.6893,-0.6927,-0.7028,-0.7088,-0.7095,-0.7095,-0.7095,-0.7139,-0.7143,-0.7187,-0.7187,-0.7139,-0.7183,-0.7228,-0.7139,-0.7139,-0.7098,-0.6741,-0.621,-0.5591,-0.491,-0.4259,-0.4169,-0.3737,-0.3391,-0.3465,-0.3602,-0.365,-0.3692,-0.3805,-0.4002,-0.4162,-0.4261,-0.4376,-0.4459,-0.4662,-0.4943,-0.5137,-0.5404,-0.5556,-0.5667,-0.5822,-0.6187,-0.0112,-0.028,-0.0617,-0.0726,-0.0723,-0.1056,-0.1046,-0.0922,-0.1029,-0.1073,-0.1165,-0.132,-0.1683,-0.2192,-0.3078,-0.4042,-0.493,-0.4975,-0.5261,-0.5782,-0.5989,-0.6316,-0.6816,-0.737,-0.7368,-0.7051,-0.7288,-0.749,-0.754,-0.7643,-0.7643,-0.7484,-0.7242,-0.6816,-0.6202,-0.6014,-0.5572,-0.4881,-0.489,-0.458,-0.4206,-0.4263,-0.4221,-0.3987,-0.4474,-0.4964,-0.5233,-0.4204,-0.3628,-0.3583,-0.2868,-0.2377,-0.2243,-0.2466,-0.2914,-0.3542,-0.4032,-0.4523,-0.4964,-0.5322,-0.563,-0.5933,-0.6269,-0.6498,-0.6567,-0.6639,-0.6773,-0.6915,-0.6888,-0.6881,-0.6953,-0.6913,-0.6923,-0.7011,-0.7065,-0.7095,-0.7095,-0.7095,-0.7095,-0.7095,-0.7095,-0.7095,-0.7095,-0.7095,-0.7095,-0.7095,-0.7095,-0.7095,-0.7007,-0.6694,-0.621,-0.5633,-0.5013,-0.438,-0.382,-0.3397,-0.3068,-0.3099,-0.3177,-0.3274,-0.3348,-0.3437,-0.364,-0.3707,-0.3733,-0.3924,-0.4068,-0.4383,-0.4609,-0.4682,-0.4948,-0.5229,-0.5318,-0.5569,-0.6081,-0.0112,-0.0283,-0.0622,-0.0735,-0.0735,-0.0961,-0.0952,-0.0883,-0.0771,-0.0764,-0.0808,-0.0806,-0.1018,-0.1441,-0.1927,-0.2773,-0.3957,-0.403,-0.4462,-0.5047,-0.5256,-0.5645,-0.6219,-0.6725,-0.6762,-0.6404,-0.6553,-0.6786,-0.7086,-0.7288,-0.7288,-0.7235,-0.7036,-0.6487,-0.5724,-0.5421,-0.4892,-0.4235,-0.4073,-0.3864,-0.3344,-0.3605,-0.3572,-0.3208,-0.3609,-0.3991,-0.4302,-0.3537,-0.3093,-0.3048,-0.2512,-0.225,-0.2354,-0.287,-0.3383,-0.3749,-0.4114,-0.4431,-0.4795,-0.5022,-0.5234,-0.551,-0.6024,-0.6354,-0.6416,-0.6651,-0.6923,-0.7024,-0.7018,-0.7001,-0.7051,-0.7007,-0.6994,-0.7078,-0.7095,-0.7095,-0.7095,-0.7095,-0.7095,-0.7095,-0.7095,-0.7095,-0.7095,-0.7095,-0.7095,-0.7095,-0.7095,-0.7095,-0.7051,-0.6697,-0.6254,-0.5764,-0.5102,-0.4435,-0.3887,-0.3383,-0.3025,-0.3018,-0.3012,-0.3033,-0.3057,-0.3146,-0.3203,-0.3276,-0.3391,-0.3553,-0.3777,-0.4103,-0.4234,-0.4262,-0.456,-0.4891,-0.5067,-0.5325,-0.5762,0.0,0.0,-0.0287,-0.0459,-0.0459,-0.0459,-0.0626,-0.0788,-0.0505,-0.0556,-0.0769,-0.0875,-0.1031,-0.1397,-0.1413,-0.1694,-0.2395,-0.3335,-0.3901,-0.4114,-0.4163,-0.4425,-0.4892,-0.5206,-0.5365,-0.5377,-0.5542,-0.6047,-0.6698,-0.6753,-0.6901,-0.6989,-0.6537,-0.5937,-0.5484,-0.4874,-0.4227,-0.361,-0.4,-0.3767,-0.2639,-0.3411,-0.3708,-0.3275,-0.313,-0.308,-0.2973,-0.3284,-0.3112,-0.2433,-0.2254,-0.2313,-0.268,-0.324,-0.385,-0.4027,-0.4178,-0.4324,-0.4559,-0.4969,-0.5046,-0.5165,-0.5928,-0.6304,-0.626,-0.6628,-0.6939,-0.6931,-0.7007,-0.7051,-0.7061,-0.7088,-0.7078,-0.7095,-0.7095,-0.7095,-0.7095,-0.7095,-0.7095,-0.7095,-0.7095,-0.7095,-0.7095,-0.7095,-0.7095,-0.7095,-0.7095,-0.7095,-0.7051,-0.6697,-0.6254,-0.5766,-0.5191,-0.4569,-0.4034,-0.354,-0.3229,-0.3004,-0.2956,-0.2945,-0.2938,-0.3001,-0.3066,-0.3095,-0.3213,-0.3376,-0.3449,-0.3701,-0.3871,-0.3971,-0.4272,-0.4522,-0.4713,-0.4943,-0.5294,0.0,0.0,-0.0283,-0.0398,-0.0402,-0.0403,-0.0461,-0.0521,-0.0229,-0.0171,-0.0283,-0.0447,-0.061,-0.0774,-0.0944,-0.1224,-0.1557,-0.2046,-0.2591,-0.3305,-0.3633,-0.4155,-0.477,-0.4976,-0.4985,-0.4911,-0.5141,-0.5401,-0.5755,-0.6205,-0.6121,-0.5601,-0.5386,-0.4784,-0.4085,-0.3781,-0.333,-0.2773,-0.2958,-0.2634,-0.1965,-0.2535,-0.2657,-0.2244,-0.2668,-0.2791,-0.2249,-0.2527,-0.2714,-0.2711,-0.2435,-0.2442,-0.2832,-0.3086,-0.3477,-0.3861,-0.3908,-0.3956,-0.4043,-0.4283,-0.4431,-0.4522,-0.5063,-0.541,-0.5505,-0.5899,-0.621,-0.631,-0.6445,-0.6637,-0.6757,-0.6974,-0.7102,-0.7095,-0.7095,-0.7095,-0.7095,-0.7095,-0.7095,-0.7095,-0.7095,-0.7095,-0.7095,-0.7095,-0.7095,-0.7095,-0.7095,-0.7095,-0.7007,-0.6697,-0.6251,-0.5764,-0.5188,-0.4612,-0.4034,-0.3631,-0.3363,-0.3096,-0.2963,-0.292,-0.292,-0.2917,-0.2946,-0.2981,-0.3059,-0.3124,-0.3202,-0.334,-0.3567,-0.3695,-0.3912,-0.4094,-0.424,-0.4517,-0.4839,0.0,0.0,-0.0171,-0.0288,-0.0409,-0.0291,-0.0291,-0.0349,-0.0115,0.0,0.0,-0.0169,-0.0224,-0.0336,-0.0561,-0.0841,-0.1121,-0.1234,-0.1794,-0.2522,-0.2801,-0.3338,-0.3964,-0.4157,-0.4075,-0.3978,-0.4164,-0.4446,-0.4765,-0.5385,-0.539,-0.4694,-0.4733,-0.4311,-0.3283,-0.2978,-0.2675,-0.2422,-0.2421,-0.2158,-0.184,-0.2182,-0.2218,-0.1904,-0.2386,-0.2483,-0.2094,-0.2339,-0.2565,-0.2683,-0.2544,-0.265,-0.2891,-0.3005,-0.3263,-0.3606,-0.3752,-0.3752,-0.389,-0.4103,-0.4138,-0.4248,-0.476,-0.5124,-0.518,-0.5511,-0.5831,-0.5917,-0.6062,-0.6242,-0.6478,-0.6713,-0.6922,-0.7095,-0.7095,-0.7095,-0.7095,-0.7095,-0.7095,-0.7095,-0.7095,-0.7095,-0.7095,-0.7095,-0.7095,-0.7095,-0.7095,-0.7054,-0.6922,-0.6656,-0.6166,-0.5722,-0.5233,-0.4656,-0.4034,-0.3721,-0.3496,-0.3229,-0.3006,-0.2963,-0.292,-0.292,-0.291,-0.2955,-0.2992,-0.2988,-0.308,-0.3208,-0.3408,-0.3493,-0.3527,-0.367,-0.3861,-0.4078,-0.436,0.0,0.0,0.0,-0.0119,-0.03,-0.0119,-0.0176,-0.0289,-0.0114,0.0,0.0,-0.0056,-0.0056,-0.0056,-0.0336,-0.0617,-0.0897,-0.1121,-0.1458,-0.1738,-0.1907,-0.2183,-0.2456,-0.2761,-0.2853,-0.2788,-0.3024,-0.3317,-0.3784,-0.4528,-0.4697,-0.405,-0.4353,-0.4217,-0.3103,-0.2579,-0.2377,-0.2271,-0.2321,-0.2068,-0.1664,-0.2267,-0.2418,-0.1964,-0.2161,-0.231,-0.2308,-0.2556,-0.2625,-0.2461,-0.2682,-0.285,-0.2907,-0.3051,-0.3318,-0.3566,-0.3581,-0.3671,-0.3925,-0.4036,-0.416,-0.4195,-0.4653,-0.5294,-0.507,-0.5296,-0.553,-0.5598,-0.5639,-0.5836,-0.6156,-0.6373,-0.6542,-0.6922,-0.7007,-0.7095,-0.7095,-0.7095,-0.7095,-0.7095,-0.7095,-0.7095,-0.7095,-0.7051,-0.7051,-0.7095,-0.7051,-0.6922,-0.6836,-0.6526,-0.6077,-0.5633,-0.5146,-0.4612,-0.3946,-0.3587,-0.3406,-0.3272,-0.305,-0.2963,-0.292,-0.292,-0.292,-0.292,-0.292,-0.2917,-0.2957,-0.3121,-0.3151,-0.3199,-0.325,-0.3351,-0.3516,-0.3781,-0.3856,0.0,0.0,0.0,-0.0059,-0.0121,0.0,0.0,0.0,0.0,0.0,0.0,-0.0225,-0.0168,-0.0056,-0.028,-0.0448,-0.0617,-0.0841,-0.1177,-0.1458,-0.1683,-0.1851,-0.2019,-0.2403,-0.2507,-0.2392,-0.2764,-0.3131,-0.3203,-0.3689,-0.3603,-0.2963,-0.3168,-0.2881,-0.217,-0.2007,-0.1893,-0.1822,-0.1818,-0.1768,-0.1667,-0.1768,-0.1869,-0.1768,-0.1768,-0.1919,-0.2121,-0.2575,-0.2869,-0.2992,-0.3045,-0.3106,-0.3102,-0.3165,-0.3222,-0.3277,-0.3327,-0.333,-0.342,-0.3435,-0.3549,-0.3677,-0.3923,-0.3977,-0.4195,-0.4392,-0.4564,-0.468,-0.4958,-0.5299,-0.5484,-0.5799,-0.6037,-0.6136,-0.6609,-0.7007,-0.7051,-0.7095,-0.7095,-0.7095,-0.7095,-0.7051,-0.6962,-0.683,-0.6741,-0.6874,-0.6782,-0.6609,-0.6526,-0.6305,-0.5813,-0.5369,-0.4924,-0.4435,-0.3944,-0.354,-0.3317,-0.3227,-0.305,-0.2918,-0.292,-0.292,-0.292,-0.292,-0.292,-0.2918,-0.2918,-0.2957,-0.2941,-0.2969,-0.3096,-0.3252,-0.3293,-0.347,-0.3461,0.0,0.0,0.0,0.0,0.0,0.0,0.0,0.0,0.0,0.0,0.0,-0.0169,-0.0168,0.0,-0.0168,-0.0336,-0.0448,-0.0729,-0.1009,-0.1346,-0.1627,-0.1795,-0.1907,-0.2188,-0.2244,-0.2131,-0.2467,-0.2619,-0.2655,-0.3038,-0.2899,-0.2427,-0.2406,-0.2272,-0.1817,-0.1647,-0.1636,-0.162,-0.1566,-0.1566,-0.1566,-0.1566,-0.1617,-0.1617,-0.1617,-0.1718,-0.2021,-0.2323,-0.2625,-0.2922,-0.3107,-0.3142,-0.314,-0.3166,-0.3168,-0.3136,-0.3071,-0.3013,-0.3027,-0.2988,-0.3005,-0.3193,-0.3257,-0.3485,-0.3659,-0.379,-0.391,-0.4068,-0.4336,-0.4522,-0.4831,-0.533,-0.5613,-0.5777,-0.6207,-0.6517,-0.6517,-0.6473,-0.6517,-0.6561,-0.6697,-0.6697,-0.6564,-0.6428,-0.6428,-0.6428,-0.6251,-0.6166,-0.608,-0.5813,-0.5502,-0.5013,-0.4567,-0.4076,-0.3721,-0.3361,-0.3184,-0.3094,-0.3051,-0.292,-0.292,-0.292,-0.292,-0.292,-0.292,-0.292,-0.292,-0.292,-0.2914,-0.2952,-0.305,-0.3092,-0.3123,-0.3203,-0.3197,0.0,0.0,0.0,0.0,0.0,0.0,0.0,0.0,0.0,0.0,0.0,0.0,0.0,0.0,0.0,-0.0112,-0.0392,-0.0729,-0.1065,-0.1402,-0.1683,-0.1795,-0.1795,-0.1851,-0.1907,-0.1851,-0.2075,-0.2074,-0.2125,-0.263,-0.2502,-0.2085,-0.227,-0.2229,-0.178,-0.1645,-0.1626,-0.1618,-0.1566,-0.1566,-0.1566,-0.1566,-0.1566,-0.1566,-0.1566,-0.1718,-0.1869,-0.2021,-0.2272,-0.2675,-0.2929,-0.3065,-0.3101,-0.3097,-0.3053,-0.2986,-0.2819,-0.2703,-0.273,-0.2657,-0.2623,-0.2722,-0.3055,-0.3337,-0.3324,-0.3416,-0.3518,-0.3526,-0.3549,-0.385,-0.4156,-0.4766,-0.4973,-0.505,-0.5317,-0.5408,-0.5453,-0.5589,-0.5722,-0.5722,-0.6118,-0.6074,-0.5941,-0.5944,-0.6121,-0.5944,-0.5722,-0.5544,-0.5455,-0.5188,-0.4877,-0.4431,-0.4074,-0.3717,-0.3451,-0.3183,-0.305,-0.2962,-0.2963,-0.292,-0.292,-0.292,-0.292,-0.292,-0.292,-0.292,-0.292,-0.292,-0.292,-0.292,-0.2963,-0.2963,-0.2917,-0.2999,-0.304,0.0,0.0,0.0,0.0,0.0,0.0,0.0,0.0,0.0,0.0,0.0,0.0,0.0,0.0,0.0,-0.0056,0.0,-0.0673,-0.1177,-0.1683,-0.1739,-0.1795,-0.1795,-0.1795,-0.1795,-0.1795,-0.1851,-0.1851,-0.1907,-0.2018,-0.2016,-0.1895,-0.1933,-0.1911,-0.1753,-0.1684,-0.166,-0.1627,-0.1618,-0.1618,-0.1566,-0.1566,-0.1566,-0.1566,-0.1566,-0.1617,-0.1718,-0.1869,-0.2022,-0.227,-0.2613,-0.2901,-0.3032,-0.2941,-0.2838,-0.2801,-0.2565,-0.24,-0.2431,-0.2259,-0.2191,-0.2328,-0.2371,-0.2336,-0.2572,-0.2756,-0.2867,-0.291,-0.3177,-0.343,-0.3562,-0.3477,-0.3633,-0.376,-0.3803,-0.3805,-0.3803,-0.4786,-0.5453,-0.563,-0.5675,-0.5808,-0.5633,-0.5366,-0.5366,-0.5369,-0.5191,-0.4968,-0.4743,-0.4563,-0.4295,-0.3941,-0.3674,-0.3361,-0.3274,-0.3094,-0.3006,-0.2918,-0.292,-0.292,-0.292,-0.292,-0.292,-0.292,-0.292,-0.292,-0.292,-0.292,-0.292,-0.292,-0.292,-0.292,-0.292,-0.292,-0.2918,0.0,0.0,0.0,0.0,0.0,0.0,0.0,0.0,0.0,0.0,0.0,0.0,0.0,0.0,0.0,0.0,0.0,-0.0617,-0.1234,-0.1683,-0.1795,-0.1795,-0.1795,-0.1795,-0.1795,-0.1795,-0.1795,-0.1795,-0.1795,-0.1795,-0.1851,-0.1793,-0.1782,-0.1811,-0.1727,-0.1712,-0.168,-0.1648,-0.1638,-0.1633,-0.162,-0.1566,-0.1566,-0.1566,-0.1566,-0.1566,-0.1617,-0.1718,-0.1869,-0.2022,-0.2272,-0.2552,-0.2704,-0.2609,-0.2549,-0.2453,-0.2268,-0.2109,-0.2079,-0.1878,-0.1714,-0.1857,-0.1856,-0.1947,-0.2084,-0.2291,-0.242,-0.2462,-0.2643,-0.2871,-0.2962,-0.2895,-0.2736,-0.2913,-0.2956,-0.3001,-0.3092,-0.3894,-0.4518,-0.4607,-0.465,-0.4696,-0.4654,-0.4654,-0.4565,-0.4523,-0.4433,-0.421,-0.4121,-0.3941,-0.3762,-0.3496,-0.3274,-0.3094,-0.3051,-0.3008,-0.2963,-0.292,-0.292,-0.292,-0.292,-0.292,-0.292,-0.2876,-0.2877,-0.292,-0.292,-0.292,-0.2879,-0.2876,-0.2876,-0.2875,-0.2875,-0.2875,-0.2875,0.0,0.0,0.0,0.0,0.0,0.0,0.0,0.0,0.0,0.0,0.0,0.0,0.0,0.0,0.0,0.0,-0.0224,-0.0504,-0.1065,-0.1627,-0.1683,-0.1739,-0.1795,-0.1795,-0.1795,-0.1795,-0.1795,-0.1795,-0.1795,-0.1795,-0.1795,-0.1791,-0.1828,-0.1813,-0.1799,-0.1726,-0.1699,-0.1672,-0.1668,-0.1654,-0.1633,-0.1626,-0.1626,-0.1566,-0.1566,-0.1566,-0.1566,-0.1617,-0.1718,-0.192,-0.192,-0.2033,-0.2122,-0.2212,-0.2139,-0.2142,-0.1924,-0.1829,-0.1803,-0.1598,-0.1442,-0.1391,-0.1572,-0.1708,-0.1799,-0.1937,-0.2026,-0.2024,-0.2115,-0.2205,-0.2334,-0.2289,-0.2377,-0.2555,-0.2644,-0.2689,-0.2734,-0.2869,-0.3092,-0.336,-0.3715,-0.3849,-0.3898,-0.3898,-0.3765,-0.3676,-0.3587,-0.3497,-0.3451,-0.3361,-0.3274,-0.3229,-0.3051,-0.3006,-0.2963,-0.2829,-0.2785,-0.2845,-0.2842,-0.285,-0.2854,-0.2972,-0.2978,-0.2887,-0.2882,-0.2843,-0.2762,-0.2679,-0.2722,-0.2797,-0.2741,-0.2649,-0.2694,-0.2785,-0.2785,0.0,0.0,0.0,0.0,0.0,0.0,0.0,0.0,0.0,0.0,0.0,0.0,0.0,0.0,0.0,0.0,-0.0281,-0.0505,-0.0841,-0.1346,-0.1458,-0.1514,-0.1795,-0.1795,-0.1795,-0.1795,-0.1795,-0.1795,-0.1795,-0.1795,-0.1795,-0.1794,-0.1789,-0.1776,-0.1812,-0.1797,-0.1727,-0.1702,-0.1697,-0.1683,-0.1661,-0.1654,-0.1642,-0.1626,-0.1622,-0.1619,-0.1566,-0.1566,-0.1617,-0.1667,-0.1667,-0.1696,-0.1761,-0.1869,-0.1947,-0.1882,-0.1701,-0.1551,-0.1564,-0.1501,-0.1394,-0.1391,-0.148,-0.148,-0.148,-0.1525,-0.1615,-0.1615,-0.1615,-0.166,-0.1885,-0.1795,-0.166,-0.1749,-0.1884,-0.1973,-0.1839,-0.1973,-0.2331,-0.2734,-0.2913,-0.3092,-0.3183,-0.3272,-0.3227,-0.3183,-0.3138,-0.305,-0.3006,-0.2962,-0.2963,-0.2918,-0.292,-0.292,-0.292,-0.2695,-0.2609,-0.2683,-0.2739,-0.2712,-0.2819,-0.3,-0.3043,-0.2809,-0.2703,-0.2671,-0.2581,-0.2488,-0.2442,-0.2487,-0.2414,-0.234,-0.2436,-0.249,-0.243,0.0,0.0,0.0,0.0,0.0,0.0,0.0,0.0,0.0,0.0,0.0,0.0,0.0,0.0,0.0,0.0,-0.034,-0.0394,-0.0729,-0.1177,-0.1346,-0.1458,-0.1795,-0.1795,-0.1795,-0.1795,-0.1795,-0.1795,-0.1795,-0.1795,-0.1795,-0.1795,-0.1795,-0.1787,-0.1777,-0.1773,-0.181,-0.1734,-0.178,-0.1767,-0.1687,-0.1684,-0.1668,-0.1649,-0.1638,-0.1633,-0.1618,-0.1566,-0.1566,-0.1617,-0.1566,-0.16,-0.1627,-0.1657,-0.1735,-0.1669,-0.1545,-0.1478,-0.1481,-0.1465,-0.1455,-0.1393,-0.1392,-0.1391,-0.1391,-0.1436,-0.1392,-0.1391,-0.1391,-0.1436,-0.1615,-0.148,-0.1436,-0.1436,-0.1525,-0.1525,-0.148,-0.1525,-0.1839,-0.2196,-0.2286,-0.2422,-0.2601,-0.2647,-0.269,-0.269,-0.269,-0.2647,-0.2604,-0.2612,-0.2615,-0.2624,-0.263,-0.2639,-0.2638,-0.2498,-0.2415,-0.2528,-0.2548,-0.2566,-0.2587,-0.2714,-0.2658,-0.2485,-0.2437,-0.25,-0.2398,-0.2304,-0.221,-0.2163,-0.2193,-0.2221,-0.2201,-0.2187,-0.2131,0.0,0.0,0.0,0.0,0.0,0.0,0.0,0.0,0.0,0.0,0.0,0.0,0.0,0.0,0.0,-0.0114,-0.0344,-0.0283,-0.0621,-0.096,-0.1185,-0.1352,-0.1627,-0.1795,-0.1795,-0.1795,-0.1795,-0.1795,-0.1795,-0.1795,-0.1795,-0.1795,-0.1795,-0.1795,-0.1793,-0.1789,-0.1776,-0.1823,-0.1813,-0.1798,-0.172,-0.1706,-0.1695,-0.1724,-0.1717,-0.165,-0.1632,-0.162,-0.1567,-0.1566,-0.1564,-0.1606,-0.1585,-0.1581,-0.1569,-0.15,-0.1486,-0.1513,-0.1499,-0.1491,-0.1482,-0.1466,-0.1457,-0.141,-0.1408,-0.1455,-0.1444,-0.1393,-0.1391,-0.1391,-0.1436,-0.1391,-0.1391,-0.1391,-0.1391,-0.1391,-0.1436,-0.1436,-0.1436,-0.1615,-0.166,-0.184,-0.2154,-0.2243,-0.2287,-0.2423,-0.2467,-0.2423,-0.2382,-0.2313,-0.2321,-0.2286,-0.2296,-0.2308,-0.2264,-0.2262,-0.223,-0.2301,-0.2318,-0.2286,-0.23,-0.2367,-0.226,-0.2262,-0.232,-0.2331,-0.2221,-0.2111,-0.1967,-0.1966,-0.2009,-0.2033,-0.1947,-0.1931,-0.1879,0.0,0.0,0.0,0.0,0.0,0.0,0.0,0.0,0.0,0.0,0.0,0.0,0.0,0.0,0.0,0.0,0.0,0.0,0.0,-0.063,-0.0858,-0.1136,-0.1406,-0.1683,-0.1795,-0.1795,-0.1795,-0.1795,-0.1795,-0.1795,-0.1795,-0.1795,-0.1795,-0.1795,-0.1795,-0.1795,-0.1793,-0.1789,-0.1788,-0.1774,-0.1746,-0.1722,-0.1709,-0.1695,-0.1731,-0.1713,-0.17,-0.163,-0.1566,-0.1566,-0.1566,-0.1564,-0.1612,-0.1611,-0.1611,-0.1592,-0.1513,-0.1477,-0.1522,-0.1521,-0.1516,-0.1506,-0.146,-0.1513,-0.1502,-0.1485,-0.1466,-0.1391,-0.1393,-0.1391,-0.1392,-0.1391,-0.1391,-0.1391,-0.1391,-0.1391,-0.1391,-0.1391,-0.1391,-0.1391,-0.1525,-0.1615,-0.184,-0.1885,-0.193,-0.2064,-0.22,-0.2157,-0.2118,-0.2046,-0.2065,-0.2029,-0.2004,-0.2017,-0.2025,-0.1974,-0.1992,-0.211,-0.2071,-0.2037,-0.2053,-0.2067,-0.2138,-0.2141,-0.2144,-0.2083,-0.1967,-0.186,-0.1712,-0.1758,-0.1802,-0.1718,-0.158,-0.1575,-0.1676,0.0,0.0,0.0,0.0,0.0,0.0,0.0,0.0,0.0,0.0,0.0,0.0,0.0,0.0,0.0,0.0,0.0,0.0,0.0,-0.0407,-0.0751,-0.1031,-0.1308,-0.1635,-0.1795,-0.1795,-0.1795,-0.1795,-0.1795,-0.1795,-0.1795,-0.1795,-0.1795,-0.1795,-0.1795,-0.1795,-0.1795,-0.1794,-0.1793,-0.1789,-0.1776,-0.1761,-0.1747,-0.1729,-0.1701,-0.1733,-0.166,-0.1633,-0.1567,-0.1566,-0.1566,-0.1566,-0.1566,-0.1566,-0.1566,-0.1564,-0.1595,-0.1571,-0.1555,-0.1552,-0.1545,-0.1531,-0.148,-0.1476,-0.1475,-0.1515,-0.1493,-0.1465,-0.1461,-0.1455,-0.1397,-0.1391,-0.1391,-0.1392,-0.14,-0.1397,-0.1397,-0.1391,-0.1391,-0.1391,-0.1437,-0.153,-0.1623,-0.1622,-0.1666,-0.1708,-0.1807,-0.1818,-0.1774,-0.1689,-0.1705,-0.1719,-0.1742,-0.1765,-0.1723,-0.1726,-0.1745,-0.1809,-0.1804,-0.177,-0.1841,-0.1858,-0.1915,-0.1868,-0.181,-0.1751,-0.1695,-0.1694,-0.1641,-0.1639,-0.1588,-0.1555,-0.1526,-0.153,-0.1629,0.0,0.0,0.0,0.0,0.0,0.0,0.0,0.0,0.0,0.0,0.0,0.0,0.0,0.0,0.0,0.0,0.0,0.0,0.0,-0.0354,-0.0642,-0.0924,-0.1202,-0.1472,-0.1683,-0.1795,-0.1795,-0.1795,-0.1795,-0.1795,-0.1795,-0.1795,-0.1795,-0.1795,-0.1795,-0.1795,-0.1795,-0.1795,-0.1795,-0.1793,-0.1791,-0.1792,-0.1779,-0.1756,-0.1726,-0.1694,-0.1671,-0.1635,-0.1567,-0.1566,-0.1566,-0.1566,-0.1566,-0.1566,-0.1566,-0.1566,-0.1608,-0.1602,-0.1588,-0.1581,-0.1569,-0.1558,-0.1498,-0.1505,-0.154,-0.1536,-0.1525,-0.1495,-0.1492,-0.1479,-0.1419,-0.1416,-0.142,-0.1422,-0.142,-0.1414,-0.1456,-0.1455,-0.1455,-0.1455,-0.1456,-0.1453,-0.1499,-0.1451,-0.1447,-0.1442,-0.1406,-0.1466,-0.1472,-0.1474,-0.1538,-0.1603,-0.1626,-0.1646,-0.165,-0.1612,-0.1581,-0.1541,-0.1585,-0.159,-0.1706,-0.166,-0.171,-0.1612,-0.1562,-0.1603,-0.1639,-0.1604,-0.1566,-0.1608,-0.16,-0.1592,-0.1578,-0.1578,-0.157,0.0,0.0,0.0,0.0,0.0,0.0,0.0,0.0,0.0,0.0,0.0,0.0,0.0,0.0,0.0,0.0,0.0,0.0,0.0,0.0,-0.0296,-0.0643,-0.0982,-0.1253,-0.1517,-0.1742,-0.1797,-0.1795,-0.1795,-0.1795,-0.1795,-0.1795,-0.1795,-0.1795,-0.1795,-0.1795,-0.1795,-0.1795,-0.1795,-0.1795,-0.1795,-0.1795,-0.1792,-0.1778,-0.1737,-0.1702,-0.1698,-0.1647,-0.1566,-0.1566,-0.1566,-0.1566,-0.1566,-0.1566,-0.1566,-0.1566,-0.1566,-0.1562,-0.1607,-0.1606,-0.161,-0.1609,-0.1603,-0.1589,-0.1571,-0.1568,-0.1553,-0.1528,-0.1523,-0.1519,-0.1515,-0.1471,-0.1457,-0.1454,-0.1449,-0.145,-0.1491,-0.1483,-0.1481,-0.1479,-0.1476,-0.1474,-0.1479,-0.148,-0.1465,-0.1459,-0.1405,-0.1463,-0.1487,-0.1495,-0.1517,-0.1584,-0.1606,-0.162,-0.1574,-0.1585,-0.16,-0.1554,-0.1603,-0.1605,-0.1613,-0.1562,-0.161,-0.1603,-0.16,-0.1592,-0.1588,-0.1597,-0.1606,-0.1563,-0.1611,-0.1603,-0.1594,-0.1588,-0.1582,0.0,0.0,0.0,0.0,0.0,0.0,0.0,0.0,0.0,0.0,0.0,0.0,0.0,0.0,0.0,0.0,0.0,0.0,0.0,0.0,-0.0301,-0.0596,-0.0882,-0.1156,-0.1481,-0.1704,-0.1806,-0.1795,-0.1795,-0.1795,-0.1795,-0.1795,-0.1795,-0.1795,-0.1795,-0.1795,-0.1795,-0.1795,-0.1795,-0.1795,-0.1795,-0.1795,-0.1795,-0.1789,-0.1736,-0.1707,-0.1695,-0.1647,-0.1626,-0.1567,-0.1568,-0.1568,-0.1566,-0.1566,-0.1566,-0.1566,-0.1566,-0.1566,-0.1566,-0.1566,-0.1566,-0.1566,-0.1565,-0.1611,-0.1596,-0.1598,-0.1583,-0.1566,-0.1554,-0.1551,-0.1481,-0.1478,-0.1475,-0.1478,-0.1481,-0.1484,-0.1528,-0.1517,-0.1504,-0.1501,-0.15,-0.15,-0.1507,-0.1562,-0.1495,-0.1476,-0.1466,-0.1465,-0.1493,-0.1511,-0.1529,-0.1549,-0.1568,-0.1585,-0.1588,-0.1601,-0.1566,-0.1566,-0.1566,-0.1566,-0.1566,-0.1566,-0.1612,-0.1601,-0.1593,-0.1592,-0.159,-0.159,-0.1598,-0.1611,-0.1565,-0.1562,-0.1605,-0.1597,-0.1592,0.0,0.0,0.0,0.0,0.0,0.0,0.0,0.0,0.0,0.0,0.0,0.0,0.0,0.0,0.0,0.0,0.0,0.0,0.0,0.0,-0.0181,-0.0481,-0.0775,-0.1055,-0.1319,-0.1604,-0.1755,-0.1795,-0.1795,-0.1795,-0.1795,-0.1795,-0.1795,-0.1795,-0.1795,-0.1795,-0.1795,-0.1795,-0.1795,-0.1795,-0.1795,-0.1795,-0.1795,-0.1789,-0.1746,-0.1725,-0.1711,-0.1677,-0.1646,-0.1637,-0.1632,-0.1626,-0.162,-0.1566,-0.1566,-0.1566,-0.1566,-0.1566,-0.1566,-0.1566,-0.1566,-0.1566,-0.1566,-0.1566,-0.1566,-0.1566,-0.16,-0.159,-0.1584,-0.1575,-0.1502,-0.1512,-0.1563,-0.1568,-0.1568,-0.1569,-0.1561,-0.1551,-0.1535,-0.157,-0.1526,-0.1533,-0.1536,-0.1591,-0.1536,-0.1515,-0.15,-0.1502,-0.152,-0.1532,-0.1532,-0.1551,-0.1573,-0.1588,-0.16,-0.1609,-0.1566,-0.1566,-0.1566,-0.1566,-0.1566,-0.1566,-0.1558,-0.1592,-0.1588,-0.1592,-0.1493,-0.1394,-0.1452,-0.1563,-0.1564,-0.1464,-0.1564,-0.1606,-0.16,0.0,0.0,0.0,0.0,0.0,0.0,0.0,0.0,0.0,0.0,0.0,0.0,0.0,0.0,0.0,0.0,0.0,0.0,0.0,0.0,0.0,0.0,-0.0476,-0.0763,-0.11,-0.1319,-0.1594,-0.1754,-0.1799,-0.1803,-0.1801,-0.1795,-0.1795,-0.1795,-0.1795,-0.1795,-0.1795,-0.1795,-0.1795,-0.1795,-0.1795,-0.1795,-0.1795,-0.1787,-0.1761,-0.1795,-0.1785,-0.1705,-0.1677,-0.1663,-0.1707,-0.1644,-0.1627,-0.1569,-0.1567,-0.1566,-0.1566,-0.1566,-0.1566,-0.1566,-0.1566,-0.1566,-0.1566,-0.1566,-0.1566,-0.1566,-0.1566,-0.1605,-0.1608,-0.1611,-0.1559,-0.1609,-0.1604,-0.1601,-0.1599,-0.1596,-0.1588,-0.1583,-0.1566,-0.155,-0.156,-0.157,-0.157,-0.1571,-0.1571,-0.1558,-0.1539,-0.1538,-0.1546,-0.1551,-0.1547,-0.1559,-0.158,-0.1592,-0.1604,-0.1611,-0.1566,-0.1566,-0.1566,-0.1566,-0.1516,-0.1465,-0.1504,-0.1536,-0.1336,-0.1093,-0.1095,-0.1147,-0.1104,-0.106,-0.1313,-0.1364,-0.1465,-0.1412,-0.1254,0.0,0.0,0.0,0.0,0.0,0.0,0.0,0.0,0.0,0.0,0.0,0.0,0.0,0.0,0.0,0.0,0.0,0.0,0.0,0.0,0.0,0.0,-0.0417,-0.0593,-0.0881,-0.1238,-0.152,-0.1665,-0.1826,-0.1825,-0.181,-0.1801,-0.1799,-0.1795,-0.1795,-0.1795,-0.1795,-0.1795,-0.1795,-0.1795,-0.1795,-0.1795,-0.1795,-0.1793,-0.1821,-0.1808,-0.1806,-0.1724,-0.1701,-0.1685,-0.1728,-0.1706,-0.1639,-0.163,-0.1566,-0.1566,-0.1566,-0.1566,-0.1566,-0.1566,-0.1566,-0.1566,-0.1566,-0.1566,-0.1566,-0.1566,-0.1566,-0.1566,-0.1566,-0.1566,-0.1564,-0.1564,-0.1611,-0.1612,-0.1611,-0.1611,-0.1556,-0.1605,-0.1595,-0.1581,-0.1582,-0.1593,-0.1598,-0.1592,-0.1592,-0.1583,-0.1562,-0.1543,-0.1545,-0.1559,-0.1564,-0.1573,-0.1588,-0.1598,-0.1607,-0.1562,-0.1566,-0.1566,-0.1566,-0.1566,-0.1516,-0.1263,-0.1108,-0.1,-0.0747,-0.0546,-0.0499,-0.0452,-0.0403,-0.0454,-0.0454,-0.0606,-0.0758,-0.0604,-0.0351,0.0,0.0,0.0,0.0,0.0,0.0,0.0,0.0,0.0,0.0,0.0,0.0,0.0,0.0,0.0,0.0,0.0,0.0,0.0,0.0,0.0,0.0,-0.0241,-0.0419,-0.0597,-0.102,-0.1308,-0.1521,-0.1624,-0.1797,-0.184,-0.1819,-0.181,-0.1805,-0.1801,-0.1795,-0.1795,-0.1795,-0.1795,-0.1795,-0.1795,-0.1795,-0.1795,-0.179,-0.1778,-0.1822,-0.1758,-0.174,-0.1715,-0.1702,-0.1735,-0.1711,-0.1646,-0.1632,-0.1566,-0.1566,-0.1566,-0.1566,-0.1566,-0.1566,-0.1566,-0.1566,-0.1566,-0.1566,-0.1566,-0.1566,-0.1566,-0.1566,-0.1566,-0.1566,-0.1566,-0.1566,-0.1566,-0.1566,-0.1566,-0.1566,-0.1566,-0.1563,-0.1561,-0.1599,-0.1547,-0.1559,-0.1566,-0.1564,-0.161,-0.1548,-0.1534,-0.1566,-0.1552,-0.1568,-0.1583,-0.159,-0.1596,-0.1605,-0.1611,-0.1564,-0.1566,-0.1566,-0.1465,-0.1313,-0.1111,-0.0859,-0.0657,-0.0505,-0.0301,-0.01,0.0151,0.0252,0.0404,0.0606,0.0808,0.0555,0.0151,0.0201,0.0451,0.0,0.0,0.0,0.0,0.0,0.0,0.0,0.0,0.0,0.0,0.0,0.0,0.0,0.0,0.0,0.0,0.0,0.0,0.0,0.0,0.0,0.0,0.0,-0.0242,-0.0423,-0.0661,-0.0896,-0.1249,-0.1416,-0.1526,-0.1688,-0.179,-0.1727,-0.1716,-0.1704,-0.1751,-0.1803,-0.1797,-0.1795,-0.1795,-0.1795,-0.1795,-0.1795,-0.1792,-0.1789,-0.1787,-0.178,-0.1765,-0.174,-0.1716,-0.1687,-0.1656,-0.1634,-0.162,-0.1618,-0.1566,-0.1566,-0.1566,-0.1566,-0.1566,-0.1566,-0.1566,-0.1566,-0.1566,-0.1566,-0.1566,-0.1566,-0.1566,-0.1566,-0.1566,-0.1566,-0.1566,-0.1566,-0.1566,-0.1566,-0.1566,-0.1566,-0.1566,-0.1566,-0.1511,-0.146,-0.1415,-0.1415,-0.1465,-0.1516,-0.1511,-0.1501,-0.155,-0.154,-0.1543,-0.1605,-0.1605,-0.1611,-0.1563,-0.1566,-0.1465,-0.1364,-0.1313,-0.096,-0.0758,-0.0556,-0.0303,0.005,0.0252,0.0202,0.0454,0.1111,0.1313,0.1262,0.1515,0.1868,0.1514,0.106,0.1009,0.1106,0.0,0.0,0.0,0.0,0.0,0.0,0.0,0.0,0.0,0.0,0.0,0.0,0.0,0.0,0.0,0.0,0.0,0.0,0.0,0.0,0.0,0.0,0.0,0.0,0.0,-0.0427,-0.067,-0.0906,-0.1018,-0.1189,-0.1357,-0.1463,-0.1521,-0.1514,-0.1563,-0.1723,-0.1706,-0.1747,-0.1744,-0.1795,-0.1795,-0.1795,-0.1795,-0.1795,-0.1795,-0.1795,-0.1789,-0.178,-0.1763,-0.1761,-0.179,-0.1763,-0.1682,-0.166,-0.1645,-0.1568,-0.1566,-0.1566,-0.1566,-0.1566,-0.1566,-0.1566,-0.1566,-0.1566,-0.1566,-0.1566,-0.1566,-0.1516,-0.1465,-0.1465,-0.1465,-0.1465,-0.1465,-0.1465,-0.1465,-0.1465,-0.1465,-0.1465,-0.1415,-0.1313,-0.1263,-0.1162,-0.1162,-0.1313,-0.1364,-0.1364,-0.1415,-0.1516,-0.1516,-0.1465,-0.1465,-0.1465,-0.1313,-0.1212,-0.1263,-0.1212,-0.1111,-0.0909,-0.0556,-0.0151,0.005,0.0353,0.0808,0.111,0.1363,0.1867,0.2473,0.2423,0.212,0.2473,0.2726,0.2371,0.2068,0.2017,0.2063,0.0,0.0,0.0,0.0,0.0,0.0,0.0,0.0,0.0,0.0,0.0,0.0,0.0,0.0,0.0,0.0,0.0,0.0,0.0,0.0,0.0,0.0,0.0,0.0,0.0,-0.0308,-0.0432,-0.0613,-0.0729,-0.0906,-0.1079,-0.119,-0.1189,-0.1184,-0.1235,-0.1282,-0.1389,-0.1487,-0.1643,-0.1743,-0.1795,-0.1795,-0.1795,-0.1795,-0.1795,-0.1795,-0.179,-0.1782,-0.1768,-0.1767,-0.1796,-0.1769,-0.1697,-0.1685,-0.1665,-0.1643,-0.1637,-0.1628,-0.157,-0.1465,-0.1465,-0.1415,-0.1313,-0.1263,-0.1313,-0.1313,-0.1364,-0.1414,-0.1313,-0.1263,-0.1263,-0.1263,-0.1263,-0.1263,-0.1263,-0.1263,-0.1263,-0.1263,-0.1162,-0.1061,-0.096,-0.0859,-0.0909,-0.1061,-0.1212,-0.1313,-0.1313,-0.1364,-0.1263,-0.1162,-0.1162,-0.1162,-0.096,-0.0758,-0.0808,-0.0808,-0.0606,-0.0353,0.0,0.0353,0.0606,0.116,0.1715,0.222,0.2675,0.2977,0.3179,0.313,0.2978,0.3281,0.3482,0.3328,0.3126,0.3025,0.3162,0.0,0.0,0.0,0.0,0.0,0.0,0.0,0.0,0.0,0.0,0.0,0.0,0.0,0.0,0.0,0.0,0.0,0.0,0.0,0.0,0.0,0.0,0.0,0.0,0.0,0.0,-0.0247,-0.0432,-0.0555,-0.0675,-0.073,-0.0846,-0.0907,-0.0903,-0.0894,-0.1006,-0.1058,-0.1164,-0.143,-0.1693,-0.1689,-0.1743,-0.1795,-0.1795,-0.1795,-0.1793,-0.1781,-0.1757,-0.1724,-0.1779,-0.1769,-0.1749,-0.1689,-0.1701,-0.1684,-0.1669,-0.1708,-0.1595,-0.1478,-0.1267,-0.1061,-0.096,-0.0808,-0.0606,-0.0555,-0.101,-0.1111,-0.1162,-0.1061,-0.101,-0.101,-0.101,-0.101,-0.101,-0.101,-0.101,-0.101,-0.096,-0.0859,-0.0707,-0.0606,-0.0505,-0.0353,-0.0454,-0.0454,-0.0858,-0.096,-0.096,-0.0757,-0.0555,-0.0606,-0.0606,-0.0556,-0.0353,-0.0252,-0.0202,0.005,0.0303,0.0707,0.1212,0.1665,0.2169,0.2672,0.3127,0.3531,0.3481,0.3531,0.3581,0.3682,0.3682,0.3932,0.4185,0.4183,0.4031,0.4124,0.0587,0.0591,0.0165,0.0,0.0,0.0,0.0,0.0,0.0,0.0,0.0,0.0,0.0,0.0,0.0,0.0,0.0,0.0,0.0,0.0,0.0,0.0,0.0,0.0,0.0,0.0,-0.0124,-0.0247,-0.0371,-0.0432,-0.0432,-0.0553,-0.0613,-0.061,-0.0608,-0.0724,-0.0836,-0.0829,-0.1102,-0.1373,-0.1428,-0.1638,-0.1795,-0.1795,-0.1795,-0.1795,-0.1787,-0.1782,-0.1774,-0.1776,-0.1803,-0.1768,-0.1728,-0.1695,-0.1689,-0.1721,-0.1613,-0.1398,-0.118,-0.0813,-0.0455,-0.0202,0.0051,0.0303,0.0151,-0.0505,-0.0808,-0.0808,-0.0757,-0.0707,-0.0656,-0.0656,-0.0656,-0.0656,-0.0656,-0.0656,-0.0656,-0.0555,-0.0404,-0.0353,-0.0252,-0.005,0.0202,0.0202,0.0202,0.0151,0.005,0.0101,0.0353,0.0555,0.0405,0.0304,-0.0051,0.005,0.0303,0.0656,0.0959,0.1262,0.1665,0.217,0.2675,0.3127,0.3578,0.3932,0.4236,0.4135,0.4133,0.4433,0.4433,0.4332,0.4483,0.4786,0.4987,0.4935,0.5035,0.1149,0.1057,0.0601,0.039,0.0337,0.0114,0.0,0.0,0.0,0.0,0.0,0.0,0.0,0.0,0.0,0.0,0.0,0.0,0.0,0.0,0.0,0.0,0.0,0.0,0.0,0.0,0.0,-0.0124,0.0,-0.0185,-0.0185,0.0,0.0,0.0,0.0,0.0,0.0,-0.0481,-0.0823,-0.0989,-0.1158,-0.148,-0.1797,-0.1795,-0.1795,-0.1795,-0.1789,-0.1787,-0.1672,-0.1564,-0.1442,-0.1487,-0.1358,-0.1199,-0.1184,-0.1113,-0.0997,-0.0782,-0.0515,-0.0153,0.0254,0.0559,0.0859,0.1059,0.1122,0.0561,0.0404,0.0404,0.0504,0.0555,0.0555,0.0555,0.0555,0.0555,0.0555,0.0555,0.0555,0.0605,0.0656,0.0706,0.0757,0.0807,0.0958,0.0807,0.0756,0.0706,0.0706,0.0908,0.121,0.162,0.1471,0.1372,0.1167,0.1213,0.1564,0.1867,0.2119,0.2371,0.2573,0.2925,0.3328,0.3932,0.4435,0.4535,0.4636,0.4634,0.4734,0.4885,0.4985,0.4836,0.5037,0.5336,0.5536,0.5639,0.5687,0.1636,0.1566,0.113,0.0937,0.0954,0.0455,0.0,0.0,0.0,0.0,0.0,0.0,0.0,0.0,0.0,0.0,0.0,0.0,0.0,0.0,0.0,0.0,0.0,0.0,0.0,0.0,0.0,0.0,0.0,0.0,0.0,0.0,0.0,0.0,0.0,0.0,0.0,0.0,-0.0417,-0.059,-0.093,-0.1427,-0.1635,-0.1739,-0.1795,-0.1795,-0.1729,-0.1668,-0.1554,-0.1336,-0.1118,-0.1052,-0.0941,-0.0717,-0.0602,-0.0485,-0.0107,0.0106,0.0363,0.0768,0.0975,0.1232,0.1575,0.1777,0.1795,0.1788,0.1618,0.1563,0.1664,0.1513,0.1513,0.1513,0.1513,0.1564,0.1564,0.1564,0.1564,0.1563,0.1563,0.1563,0.1563,0.1613,0.1613,0.1462,0.1412,0.1311,0.1412,0.1563,0.1819,0.229,0.2455,0.2662,0.2713,0.2853,0.279,0.2774,0.2875,0.3127,0.3278,0.363,0.3932,0.4332,0.4634,0.4734,0.4784,0.4885,0.4985,0.5085,0.5188,0.5238,0.5489,0.5689,0.5789,0.5939,0.6089,0.2006,0.1644,0.1549,0.158,0.1623,0.1463,0.1192,0.0747,0.0749,0.0465,0.0,0.0,0.0,0.0,0.0,0.0,0.0,0.0,0.0,0.0,0.0,0.0,0.0,0.0,0.0,0.0,0.0,0.0,0.0,0.0,0.0,0.0,0.0,0.0,0.0,0.0,0.0,0.0,-0.018,-0.0416,-0.0637,-0.1025,-0.152,-0.1683,-0.1795,-0.1627,-0.1512,-0.1398,-0.1231,-0.1064,-0.084,-0.072,-0.0442,-0.0166,0.011,0.0328,0.0758,0.0969,0.1218,0.1613,0.1823,0.1977,0.2316,0.2589,0.2703,0.2847,0.2677,0.2623,0.2522,0.1919,0.1869,0.1866,0.1865,0.1918,0.1969,0.1971,0.1971,0.1918,0.1916,0.1916,0.1865,0.2067,0.232,0.2268,0.232,0.2322,0.2479,0.2632,0.2844,0.3172,0.346,0.3724,0.3988,0.3719,0.3401,0.329,0.3379,0.363,0.3882,0.4083,0.4332,0.4583,0.4784,0.4885,0.4987,0.5087,0.5188,0.5336,0.5436,0.5539,0.5792,0.5942,0.6039,0.6139,0.6239]}]]